[[{"header":{"parameterUnit":"m.s-1","parameterCategory":1,"la1":30.6,"la2":29.2853,"lo1":-89.7004,"lo2":-87.6739,"dy":0.0162,"dx":0.0183,"nx":112,"ny":82,"refTime":"2026-02-26T00:00:00:Z","depth":0,"parameterNumber":2,"parameterNumberName":"U-component_of_WINDS"},"data":[0.0,0.0,0.0,0.0,0.0,0.0,0.0,0.0,0.0,0.0,0.0,0.0,0.0,0.0,0.0,0.0,0.0,0.0,0.0,0.0,0.0,0.0,0.0,0.0,0.0,0.0,0.0,0.0,0.0,0.0,0.0,0.0,0.0,0.0,0.0,0.0,0.0,0.0,0.0,0.0,0.0,0.0,0.0,0.0,0.0,0.0,0.0,0.0,0.0,0.0,0.0,0.0,0.0,0.0,0.0,0.0,0.0,0.0,0.0,0.0,0.0,0.0,0.0,0.0,0.0,0.0,0.0,0.0,0.0,0.0,0.0,0.0,0.0,0.0,0.0,0.0,0.0,0.0,0.0,0.0,0.0,0.0,0.0,0.0,0.0,0.0,0.0,0.0,0.0,0.0,0.0,-2.0361,-2.0971,-2.1517,-2.1786,-2.1508,-2.1033,-2.0404,0.0,0.0,0.0,0.0,0.0,0.0,0.0,0.0,0.0,0.0,0.0,0.0,0.0,0.0,0.0,0.0,0.0,0.0,0.0,0.0,0.0,0.0,0.0,0.0,0.0,0.0,0.0,0.0,0.0,0.0,0.0,0.0,0.0,0.0,0.0,0.0,0.0,0.0,0.0,0.0,0.0,0.0,0.0,0.0,0.0,0.0,0.0,0.0,0.0,0.0,0.0,0.0,0.0,0.0,0.0,0.0,0.0,0.0,0.0,0.0,0.0,0.0,0.0,0.0,0.0,0.0,0.0,0.0,0.0,0.0,0.0,0.0,0.0,0.0,0.0,0.0,0.0,0.0,0.0,0.0,0.0,0.0,0.0,0.0,0.0,0.0,0.0,0.0,0.0,0.0,0.0,0.0,0.0,0.0,0.0,0.0,0.0,0.0,0.0,0.0,0.0,0.0,0.0,0.0,-1.904,-1.9363,-1.9764,-1.9909,-1.9706,-1.9625,-1.967,-1.9799,0.0,0.0,0.0,0.0,0.0,0.0,0.0,0.0,0.0,0.0,0.0,0.0,0.0,0.0,0.0,0.0,0.0,0.0,0.0,0.0,0.0,0.0,0.0,0.0,0.0,0.0,0.0,0.0,0.0,0.0,0.0,0.0,0.0,0.0,0.0,0.0,0.0,0.0,0.0,0.0,0.0,0.0,0.0,0.0,0.0,0.0,0.0,0.0,0.0,0.0,0.0,0.0,0.0,0.0,0.0,0.0,0.0,0.0,0.0,0.0,0.0,0.0,0.0,0.0,0.0,0.0,0.0,0.0,0.0,0.0,0.0,0.0,0.0,0.0,0.0,0.0,0.0,0.0,0.0,0.0,0.0,0.0,0.0,0.0,0.0,0.0,0.0,0.0,0.0,0.0,0.0,0.0,0.0,0.0,0.0,0.0,0.0,0.0,0.0,0.0,0.0,0.0,0.0,-1.9239,-1.9093,-1.9312,-1.9539,-1.9668,-1.9542,-1.9209,-1.918,-1.9664,-1.96,0.0,0.0,0.0,0.0,0.0,0.0,0.0,0.0,0.0,0.0,0.0,0.0,0.0,0.0,0.0,0.0,0.0,0.0,0.0,0.0,0.0,0.0,0.0,0.0,0.0,0.0,0.0,0.0,0.0,0.0,0.0,0.0,0.0,0.0,0.0,0.0,0.0,0.0,0.0,0.0,0.0,0.0,0.0,0.0,0.0,0.0,0.0,0.0,0.0,0.0,0.0,0.0,0.0,0.0,0.0,0.0,0.0,0.0,0.0,0.0,0.0,0.0,0.0,0.0,0.0,0.0,0.0,0.0,0.0,0.0,0.0,0.0,0.0,0.0,0.0,0.0,0.0,0.0,0.0,0.0,0.0,0.0,0.0,0.0,0.0,0.0,0.0,0.0,0.0,0.0,0.0,0.0,0.0,0.0,0.0,0.0,0.0,0.0,0.0,0.0,0.0,0.0,-1.9146,-1.8916,-1.8671,-1.8885,-1.8969,-1.8901,-1.8334,-1.838,-1.9204,-1.8599,0.0,0.0,0.0,0.0,0.0,0.0,0.0,0.0,0.0,0.0,0.0,0.0,0.0,0.0,0.0,0.0,0.0,0.0,0.0,0.0,0.0,0.0,0.0,0.0,0.0,0.0,0.0,0.0,0.0,0.0,0.0,0.0,0.0,0.0,0.0,0.0,0.0,0.0,0.0,0.0,0.0,0.0,0.0,0.0,0.0,0.0,0.0,0.0,0.0,0.0,0.0,0.0,0.0,0.0,0.0,0.0,0.0,0.0,0.0,0.0,0.0,0.0,0.0,0.0,0.0,0.0,0.0,0.0,0.0,0.0,0.0,0.0,0.0,0.0,0.0,0.0,0.0,0.0,0.0,0.0,0.0,0.0,0.0,0.0,0.0,0.0,0.0,0.0,0.0,0.0,0.0,0.0,0.0,0.0,0.0,0.0,0.0,0.0,0.0,0.0,0.0,0.0,-1.7651,-1.7306,-1.6606,-1.6775,-1.6717,-1.6194,-1.589,-1.6382,-1.7846,-1.7152,0.0,0.0,0.0,0.0,0.0,0.0,0.0,0.0,0.0,0.0,0.0,0.0,0.0,0.0,0.0,0.0,0.0,0.0,0.0,0.0,0.0,0.0,0.0,0.0,0.0,0.0,0.0,0.0,0.0,0.0,0.0,0.0,0.0,0.0,0.0,0.0,0.0,0.0,0.0,0.0,0.0,0.0,0.0,0.0,0.0,0.0,0.0,0.0,0.0,0.0,0.0,0.0,0.0,0.0,0.0,0.0,0.0,0.0,0.0,0.0,0.0,0.0,0.0,0.0,0.0,0.0,0.0,0.0,0.0,0.0,0.0,0.0,0.0,0.0,0.0,0.0,0.0,0.0,0.0,0.0,0.0,0.0,0.0,0.0,0.0,0.0,0.0,0.0,0.0,0.0,0.0,0.0,0.0,0.0,0.0,0.0,0.0,0.0,0.0,0.0,0.0,0.0,-1.6769,-1.6785,0.0,-1.6314,-1.6317,-1.5935,-1.55,-1.5663,-1.6668,0.0,0.0,0.0,0.0,0.0,0.0,0.0,0.0,0.0,0.0,0.0,0.0,0.0,0.0,0.0,0.0,0.0,0.0,0.0,0.0,0.0,0.0,0.0,0.0,0.0,0.0,0.0,0.0,0.0,0.0,0.0,0.0,0.0,0.0,0.0,0.0,0.0,0.0,0.0,0.0,0.0,0.0,0.0,0.0,0.0,0.0,0.0,0.0,0.0,0.0,0.0,0.0,0.0,0.0,0.0,0.0,0.0,0.0,0.0,0.0,0.0,0.0,0.0,0.0,0.0,0.0,0.0,0.0,0.0,0.0,0.0,0.0,0.0,0.0,0.0,0.0,0.0,0.0,0.0,0.0,0.0,0.0,0.0,0.0,0.0,0.0,0.0,0.0,0.0,0.0,0.0,0.0,0.0,0.0,0.0,0.0,0.0,0.0,0.0,0.0,0.0,0.0,-1.575,-1.606,-1.6171,0.0,-1.6016,-1.5951,-1.5682,-1.5171,-1.5096,-1.5759,0.0,0.0,0.0,0.0,0.0,0.0,0.0,0.0,0.0,0.0,0.0,0.0,0.0,0.0,0.0,0.0,0.0,0.0,0.0,0.0,0.0,0.0,0.0,0.0,0.0,0.0,0.0,0.0,0.0,0.0,0.0,0.0,0.0,0.0,0.0,0.0,0.0,0.0,0.0,0.0,0.0,0.0,0.0,0.0,0.0,0.0,0.0,0.0,0.0,0.0,0.0,0.0,0.0,0.0,0.0,0.0,0.0,0.0,0.0,0.0,0.0,0.0,0.0,0.0,0.0,0.0,0.0,0.0,0.0,0.0,0.0,0.0,0.0,0.0,0.0,0.0,0.0,0.0,0.0,0.0,0.0,0.0,0.0,0.0,0.0,0.0,0.0,0.0,0.0,0.0,0.0,0.0,0.0,0.0,0.0,0.0,0.0,0.0,0.0,0.0,0.0,0.0,-1.5825,-1.5449,-1.5312,-1.5831,-1.565,-1.539,-1.5131,-1.4606,-1.4534,0.0,0.0,0.0,0.0,0.0,0.0,0.0,0.0,0.0,0.0,0.0,0.0,0.0,0.0,0.0,0.0,0.0,0.0,0.0,0.0,0.0,0.0,0.0,0.0,0.0,0.0,0.0,0.0,0.0,0.0,0.0,0.0,0.0,0.0,0.0,0.0,0.0,0.0,0.0,0.0,0.0,0.0,0.0,0.0,0.0,0.0,0.0,0.0,0.0,0.0,0.0,0.0,0.0,0.0,0.0,0.0,0.0,0.0,0.0,0.0,0.0,0.0,0.0,0.0,0.0,0.0,0.0,0.0,0.0,0.0,0.0,0.0,0.0,0.0,0.0,0.0,0.0,0.0,0.0,0.0,0.0,0.0,0.0,0.0,0.0,0.0,0.0,0.0,0.0,0.0,0.0,0.0,0.0,0.0,0.0,0.0,0.0,0.0,0.0,0.0,0.0,0.0,0.0,-1.4716,-1.4967,-1.5312,-1.5831,-1.5487,-1.5191,-1.5113,-1.4606,-1.421,-1.3991,0.0,0.0,0.0,0.0,0.0,0.0,0.0,0.0,0.0,0.0,0.0,0.0,0.0,0.0,0.0,0.0,0.0,0.0,0.0,0.0,0.0,0.0,0.0,0.0,0.0,0.0,0.0,0.0,0.0,0.0,0.0,0.0,0.0,0.0,0.0,0.0,0.0,0.0,0.0,0.0,0.0,0.0,0.0,0.0,0.0,0.0,0.0,0.0,0.0,0.0,0.0,0.0,0.0,0.0,0.0,0.0,0.0,0.0,0.0,0.0,0.0,0.0,0.0,0.0,0.0,0.0,0.0,0.0,0.0,0.0,0.0,0.0,0.0,0.0,0.0,0.0,0.0,0.0,0.0,0.0,0.0,0.0,0.0,0.0,0.0,0.0,0.0,0.0,0.0,0.0,0.0,0.0,0.0,0.0,0.0,0.0,0.0,0.0,0.0,0.0,0.0,0.0,-1.4364,-1.4742,-1.5245,-1.5982,-1.5467,-1.5068,-1.4961,-1.4461,-1.3903,-1.3276,0.0,0.0,0.0,0.0,0.0,0.0,0.0,0.0,0.0,0.0,0.0,0.0,0.0,0.0,0.0,0.0,0.0,0.0,0.0,0.0,0.0,0.0,0.0,0.0,0.0,0.0,0.0,0.0,0.0,0.0,0.0,0.0,0.0,0.0,0.0,0.0,0.0,0.0,0.0,0.0,0.0,0.0,0.0,0.0,0.0,0.0,0.0,0.0,0.0,0.0,0.0,0.0,0.0,0.0,0.0,0.0,0.0,0.0,0.0,0.0,0.0,0.0,0.0,0.0,0.0,0.0,0.0,0.0,0.0,0.0,0.0,0.0,0.0,0.0,0.0,0.0,0.0,0.0,0.0,0.0,0.0,0.0,0.0,0.0,0.0,0.0,0.0,0.0,0.0,0.0,0.0,0.0,0.0,0.0,0.0,0.0,0.0,0.0,0.0,0.0,0.0,0.0,-1.4448,-1.4637,-1.504,-1.609,-1.5541,-1.4982,-1.4696,-1.4215,-1.3608,-1.29,0.0,0.0,0.0,0.0,0.0,0.0,0.0,0.0,0.0,0.0,0.0,0.0,0.0,0.0,0.0,0.0,0.0,0.0,0.0,0.0,0.0,0.0,0.0,0.0,0.0,0.0,0.0,0.0,0.0,0.0,0.0,0.0,0.0,0.0,0.0,0.0,0.0,0.0,0.0,0.0,0.0,0.0,0.0,0.0,0.0,0.0,0.0,0.0,0.0,0.0,0.0,0.0,0.0,0.0,0.0,0.0,0.0,0.0,0.0,0.0,-1.5379,0.0,0.0,0.0,0.0,0.0,0.0,0.0,0.0,0.0,0.0,0.0,0.0,0.0,0.0,0.0,0.0,0.0,0.0,0.0,0.0,0.0,0.0,0.0,0.0,0.0,0.0,0.0,0.0,0.0,0.0,0.0,0.0,0.0,0.0,0.0,0.0,0.0,0.0,0.0,0.0,0.0,-1.4143,-1.4329,-1.4677,-1.5491,-1.5068,-1.4699,-1.4648,-1.4173,-1.3756,-1.3354,-1.351,0.0,0.0,0.0,0.0,0.0,0.0,0.0,0.0,0.0,0.0,0.0,0.0,0.0,0.0,0.0,0.0,0.0,0.0,0.0,0.0,0.0,0.0,0.0,0.0,0.0,0.0,0.0,0.0,0.0,0.0,0.0,0.0,0.0,0.0,0.0,0.0,0.0,0.0,0.0,0.0,0.0,0.0,0.0,0.0,0.0,0.0,0.0,0.0,0.0,0.0,0.0,0.0,0.0,0.0,0.0,0.0,0.0,0.0,0.0,0.0,-1.4684,0.0,0.0,0.0,0.0,0.0,0.0,0.0,0.0,0.0,0.0,0.0,0.0,0.0,0.0,0.0,0.0,0.0,0.0,0.0,0.0,0.0,0.0,0.0,0.0,0.0,0.0,0.0,0.0,0.0,0.0,0.0,0.0,0.0,0.0,0.0,0.0,0.0,0.0,0.0,0.0,-1.4071,-1.4145,-1.4463,-1.5327,-1.4908,-1.4584,-1.4472,-1.4064,-1.3657,-1.318,-1.3015,0.0,0.0,0.0,0.0,0.0,0.0,0.0,0.0,0.0,0.0,0.0,0.0,0.0,0.0,0.0,0.0,0.0,0.0,0.0,0.0,0.0,0.0,0.0,0.0,0.0,0.0,0.0,0.0,0.0,0.0,0.0,0.0,0.0,0.0,0.0,0.0,0.0,0.0,0.0,0.0,0.0,0.0,0.0,0.0,0.0,0.0,0.0,0.0,0.0,0.0,0.0,0.0,0.0,-1.3971,-1.4038,-1.3567,-1.4027,-1.4236,-1.4234,-1.3836,-1.4044,-1.464,-1.4974,0.0,0.0,0.0,0.0,0.0,0.0,0.0,0.0,0.0,0.0,0.0,0.0,0.0,0.0,0.0,0.0,0.0,0.0,0.0,0.0,0.0,0.0,0.0,0.0,-1.2883,-1.2941,0.0,0.0,0.0,0.0,0.0,0.0,0.0,0.0,0.0,0.0,0.0,0.0,-1.4027,-1.4009,-1.4247,-1.5168,-1.4804,-1.4475,-1.4281,-1.4048,-1.3599,-1.298,-1.2663,-1.2296,0.0,0.0,0.0,0.0,0.0,0.0,0.0,0.0,0.0,0.0,0.0,0.0,0.0,0.0,0.0,0.0,0.0,0.0,0.0,0.0,0.0,0.0,0.0,0.0,0.0,0.0,0.0,0.0,0.0,0.0,0.0,0.0,-1.5613,-1.5798,0.0,0.0,0.0,0.0,0.0,0.0,0.0,0.0,0.0,0.0,0.0,0.0,0.0,-1.3308,-1.3473,-1.387,-1.3946,-1.3701,-1.4478,-1.4565,-1.412,-1.4331,-1.4467,-1.4439,-1.4396,0.0,-1.457,-1.4247,0.0,0.0,0.0,0.0,0.0,0.0,0.0,0.0,0.0,0.0,0.0,0.0,0.0,0.0,0.0,0.0,0.0,0.0,0.0,0.0,0.0,0.0,-1.1971,-1.1891,-1.1878,-1.1872,0.0,-1.1651,-1.1734,-1.153,-1.1231,0.0,0.0,0.0,0.0,0.0,0.0,0.0,-1.3751,-1.3855,-1.4018,-1.4531,-1.4385,-1.4234,-1.4202,-1.4143,-1.3927,-1.3416,-1.317,-1.2807,-1.2296,-1.1618,0.0,0.0,0.0,0.0,0.0,0.0,0.0,0.0,0.0,0.0,0.0,0.0,0.0,0.0,0.0,0.0,0.0,0.0,0.0,0.0,0.0,0.0,0.0,0.0,0.0,0.0,0.0,0.0,0.0,-1.4867,-1.4939,-1.4526,-1.4417,-1.4282,0.0,0.0,0.0,0.0,0.0,0.0,0.0,0.0,0.0,-1.2237,-1.2253,-1.242,-1.2765,-1.3138,-1.3251,-1.3111,-1.3738,-1.3816,-1.3527,-1.3742,-1.3836,-1.3836,-1.3836,-1.3838,-1.3872,-1.4019,-1.3867,-1.3507,0.0,0.0,0.0,0.0,-1.2113,-1.2264,-1.2373,-1.2302,0.0,-1.1878,0.0,0.0,0.0,0.0,0.0,0.0,0.0,0.0,0.0,0.0,-1.2114,-1.2114,-1.2198,-1.2222,-1.2024,-1.181,-1.1642,0.0,-1.1528,-1.1511,-1.1167,0.0,0.0,0.0,0.0,0.0,-1.3542,-1.3726,-1.3954,-1.4304,-1.4256,-1.4196,-1.4196,-1.4196,-1.4105,-1.3895,-1.3523,-1.3007,-1.2374,-1.2066,-1.1489,0.0,0.0,0.0,0.0,0.0,0.0,0.0,0.0,0.0,0.0,0.0,0.0,0.0,0.0,0.0,0.0,0.0,0.0,0.0,0.0,0.0,0.0,0.0,0.0,0.0,0.0,0.0,0.0,-1.4266,-1.4186,-1.3491,-1.3358,-1.3231,0.0,0.0,0.0,0.0,0.0,0.0,-1.1355,-1.1494,-1.167,-1.1824,-1.1838,-1.2063,-1.2482,-1.2693,-1.2796,-1.28,-1.3215,-1.3187,-1.2811,-1.3201,-1.3262,-1.3021,-1.3266,-1.3384,-1.34,-1.3735,-1.3566,-1.3073,-1.2477,-1.2003,-1.1644,-1.1644,-1.1723,-1.1942,-1.236,-1.2497,-1.2404,-1.2004,0.0,-1.1591,-1.0881,0.0,0.0,0.0,0.0,-1.1139,-1.1245,-1.1692,-1.2041,-1.2087,-1.2042,-1.1923,-1.1729,-1.1312,-1.1012,0.0,-1.1572,-1.1671,-1.1058,0.0,0.0,0.0,0.0,-1.2824,-1.3296,-1.3666,-1.3933,-1.3954,-1.3975,-1.3921,-1.3753,-1.3806,-1.379,-1.3675,-1.3398,-1.2895,-1.2193,-1.2119,-1.1509,-1.0227,0.0,0.0,0.0,0.0,0.0,0.0,0.0,0.0,0.0,0.0,0.0,0.0,0.0,0.0,0.0,0.0,0.0,0.0,0.0,0.0,0.0,0.0,0.0,0.0,0.0,0.0,0.0,0.0,0.0,-1.318,-1.308,0.0,0.0,0.0,0.0,-1.1161,-1.1319,-1.1615,-1.1943,-1.1976,-1.2168,-1.2529,-1.2543,-1.2702,-1.297,-1.3172,-1.3271,-1.3276,-1.3561,-1.3177,-1.2247,-1.3237,-1.3181,-1.2324,-1.3241,-1.367,-1.3641,-1.3206,-1.2918,-1.2604,-1.237,-1.2281,-1.2222,-1.2222,-1.2357,-1.2571,-1.2781,-1.2395,-1.192,-1.2258,-1.199,-1.1494,-1.1225,-1.1399,0.0,0.0,-1.1181,-1.1166,-1.1044,-1.1048,-1.1109,-1.1212,-1.057,-0.99,-0.9791,-0.9286,-0.9352,0.0,-1.1248,-1.1085,-1.0863,0.0,-1.0688,-1.108,-1.1831,-1.2496,-1.2948,-1.3698,-1.3959,-1.3423,-1.3369,-1.3098,-1.255,-1.2726,-1.2674,-1.2234,-1.2367,-1.2224,-1.1761,-1.1544,-1.1319,-1.1035,-1.0454,0.0,0.0,0.0,0.0,0.0,0.0,0.0,0.0,0.0,0.0,0.0,0.0,0.0,0.0,0.0,0.0,0.0,0.0,0.0,0.0,0.0,0.0,0.0,0.0,0.0,0.0,0.0,0.0,-1.2625,-1.268,0.0,-1.2053,-1.2039,-1.1769,-1.1196,-1.1594,-1.1694,-1.1381,-1.1436,-1.1616,-1.1876,-1.1889,-1.1979,-1.223,-1.169,-1.1411,-1.1404,-1.0912,-1.0496,-1.0218,-1.0596,-1.0534,-1.0218,-1.0596,-1.0721,-1.0706,-1.0487,-1.126,-1.2507,-1.23,-1.1933,-1.1594,-1.1594,-1.1718,-1.1897,-1.1957,-1.1824,-1.1583,-1.1536,-1.1285,-1.0954,-1.0891,-1.0983,-1.1078,-1.1054,-1.0603,-1.0095,-1.0216,-0.9834,-0.9425,-0.9378,-0.915,-0.9007,-0.8801,-0.9001,-0.9405,-1.0062,-1.0439,-1.0551,-1.0315,-1.083,-1.1274,-1.1292,-1.1782,-1.2211,-1.2418,-1.2793,-1.2935,-1.2767,-1.2713,-1.2604,-1.2441,-1.2507,-1.2602,-1.2729,-1.2668,-1.2344,-1.1869,-1.1947,-1.146,-1.0175,-1.0254,-1.0005,0.0,0.0,0.0,0.0,0.0,0.0,0.0,0.0,0.0,0.0,0.0,0.0,0.0,0.0,0.0,0.0,0.0,0.0,0.0,0.0,0.0,0.0,0.0,0.0,0.0,0.0,-1.2274,-1.2283,-1.2432,-1.2385,-1.1904,-1.2003,-1.1879,-1.118,-1.1556,-1.1602,-1.1208,-1.1256,-1.1223,-1.1105,-1.1109,-1.1011,-1.0878,-1.0199,-0.9906,-0.9929,-0.9302,-0.8905,-0.8608,-0.8927,-0.8927,-0.8605,-0.8927,-0.9118,-0.9112,-0.9022,-0.9933,-1.1374,-1.1437,-1.1227,-1.0938,-1.1354,-1.1573,-1.1679,-1.1679,-1.1719,-1.1703,-1.1285,-1.1066,-1.0952,-1.0891,-1.0647,-1.0403,-1.0634,-0.9932,-0.9215,-0.9424,-0.906,-0.8627,-0.8476,-0.8346,-0.8136,-0.7948,-0.8087,-0.8244,-0.8199,-0.9395,-1.0354,-1.0182,-1.0733,-1.1173,-1.1064,-1.1478,-1.1877,-1.1893,-1.2189,-1.2332,-1.2169,-1.2114,-1.206,-1.1837,-1.1778,-1.1855,-1.2176,-1.2008,-1.1766,-1.1436,-1.1654,-1.1189,-0.9912,-1.0125,-0.9759,-0.8877,0.0,0.0,0.0,0.0,0.0,0.0,0.0,0.0,0.0,0.0,0.0,0.0,0.0,0.0,0.0,0.0,0.0,0.0,0.0,0.0,0.0,0.0,0.0,-1.1021,-1.199,-1.2487,-1.2058,-1.2273,-1.2227,-1.1537,-1.1316,-1.1167,-1.0997,-1.1086,-1.1259,-1.1437,-1.1445,-1.105,-1.0308,-1.0251,-0.9835,-0.8985,-0.8925,-0.8929,-0.8997,-0.8933,-0.8422,-0.7596,-0.8556,-0.8492,-0.7596,-0.862,-0.9003,-0.9003,-0.9,-0.8997,-0.91,-0.9947,-1.0258,-1.0461,-1.1541,-1.1913,-1.1974,-1.1974,-1.2096,-1.2219,-1.1635,-1.1461,-1.1425,-1.1185,-1.0493,-0.9768,-0.9912,-0.9301,-0.862,-0.8745,-0.8714,-0.8717,-0.8717,-0.8044,-0.7345,-0.7183,-0.6439,-0.5813,-0.5724,-0.8239,-1.0349,-1.0345,-1.0245,-1.0237,-1.0416,-1.0913,0.0,-1.1542,-1.2005,-1.2169,-1.1623,-1.1568,-1.135,-1.0747,-1.0534,-1.0387,-1.0395,-1.0391,-1.0391,-1.0391,-1.0603,-1.0607,-1.0379,-1.0063,-0.9705,-0.9404,0.0,0.0,0.0,0.0,0.0,0.0,0.0,0.0,0.0,0.0,0.0,0.0,0.0,0.0,0.0,0.0,0.0,0.0,0.0,0.0,0.0,0.0,-1.0823,-1.1071,-1.1293,-1.1529,-1.1642,-1.1854,-1.1887,-1.1537,-1.1606,-1.1248,-1.0358,-1.0443,-1.025,-0.9566,-0.957,-0.9515,-0.9354,-0.936,-0.8985,-0.8284,-0.7597,-0.7013,-0.6523,-0.5881,-0.5721,-0.6045,-0.6308,-0.6574,-0.6841,-0.7103,-0.7238,-0.7165,-0.6566,-0.6601,-0.724,-0.8819,-0.9886,-1.0517,-1.0059,-1.0388,-1.1084,-1.1084,-1.1622,-1.2154,-1.1245,-1.087,-1.0702,-0.9866,-0.9354,-0.9096,-0.9134,-0.8479,-0.7762,-0.7792,-0.7255,-0.6709,-0.6709,-0.6526,-0.6274,-0.625,-0.6489,-0.6966,-0.7649,-0.8942,-0.9723,-0.893,-0.9783,-1.0562,-1.0611,-1.0782,0.0,-1.0958,-1.1076,-1.1126,-1.0966,-1.0966,-1.0857,-1.0692,-1.0534,-1.0546,-1.0806,-1.0696,-1.0623,-1.0623,-1.0668,-1.0546,-1.0245,-0.988,-0.9583,0.0,0.0,0.0,0.0,0.0,0.0,0.0,0.0,0.0,0.0,0.0,0.0,0.0,0.0,0.0,0.0,0.0,0.0,0.0,0.0,0.0,0.0,-1.0647,-1.0923,-1.1219,-1.1228,-1.1269,-1.1476,-1.1663,-1.1736,-1.1626,-1.1346,-1.0876,-1.0172,-0.9825,-0.9326,-0.8471,-0.8398,-0.8153,-0.7538,-0.7521,-0.7153,-0.6416,-0.5841,-0.5428,-0.5038,-0.4515,-0.447,-0.4908,-0.4908,-0.5176,-0.5579,-0.5579,-0.5579,-0.5508,-0.5064,-0.5046,0.0,0.0,0.0,0.0,0.0,-0.9684,-1.0242,-1.0179,-1.0547,-1.0987,-1.028,-1.0009,-0.9876,-0.9252,-0.8696,-0.8324,-0.8324,-0.764,-0.6892,-0.6892,-0.6243,-0.5598,-0.5912,-0.5696,-0.5546,-0.5855,-0.6239,-0.6921,-0.7884,-0.8738,0.0,-0.8997,-1.0061,-1.0915,-1.0915,-1.0915,-1.0915,-1.0915,-1.0915,-1.0915,-1.0915,-1.085,-1.0806,-1.0806,-1.0578,0.0,0.0,0.0,-1.0469,-1.0469,-1.0469,0.0,0.0,0.0,0.0,0.0,0.0,0.0,0.0,-0.9762,-0.9685,0.0,0.0,0.0,0.0,0.0,0.0,0.0,0.0,0.0,0.0,0.0,0.0,0.0,0.0,0.0,0.0,-1.077,-1.0928,-1.1431,-1.1516,-1.1469,-1.1533,-1.1615,-1.1651,-1.1651,-1.0671,-0.9997,-0.9876,-0.8958,-0.8108,-0.7508,0.0,0.0,0.0,0.0,-0.4939,-0.4094,-0.4094,-0.4052,-0.4033,-0.4033,-0.41,-0.4167,-0.4167,-0.4234,-0.43,-0.43,-0.43,-0.43,-0.4234,-0.4167,-0.4356,-0.5875,-0.6784,-0.7374,-0.8573,-0.9076,-0.916,-0.9044,0.0,0.0,-0.8811,-0.8704,-0.8689,-0.8564,-0.7914,-0.72,-0.72,-0.6562,-0.5923,-0.5923,-0.5485,-0.5117,-0.5625,-0.5245,-0.5002,-0.5684,-0.58,-0.6096,-0.7192,-0.8081,-0.8904,-0.9853,-1.0708,-1.1224,-1.1224,-1.1224,-1.1224,-1.1224,-1.1224,-1.1224,-1.1224,0.0,0.0,-1.1001,-1.0672,-1.0404,-1.0314,-1.0269,-1.0245,-1.0245,-1.0224,-1.0257,-1.0407,-1.0411,-1.0639,-1.0997,-1.0834,-1.1009,-1.1472,-1.0318,-1.014,0.0,0.0,0.0,0.0,0.0,0.0,0.0,0.0,0.0,0.0,0.0,0.0,0.0,0.0,0.0,-1.0469,-1.0853,-1.1208,-1.1464,-1.1379,-1.1471,-1.1723,-1.108,-1.0611,-1.0611,-0.9262,-0.8041,-0.7187,-0.6451,-0.5686,-0.4826,-0.4779,-0.465,-0.4438,-0.4452,-0.4094,-0.3415,-0.3417,-0.3153,-0.2625,0.0,0.0,-0.343,-0.343,-0.3764,-0.43,-0.43,-0.43,-0.4233,-0.363,-0.343,-0.3562,-0.5337,-0.5592,-0.5064,-0.6205,-0.6621,-0.6635,-0.6616,-0.7135,-0.7725,-0.6786,-0.6466,-0.6278,-0.5436,-0.4941,0.0,-0.4701,-0.4574,-0.4446,-0.4446,-0.4308,-0.4236,-0.4364,-0.4251,-0.433,-0.5018,-0.5156,-0.5538,-0.7128,-0.8149,-0.9102,-1.0073,-1.0789,-1.1224,-1.1224,-1.1224,-1.1224,-1.1224,-1.1224,-1.1224,-1.1224,-1.1191,-1.1175,-1.1175,-1.0846,-1.0692,-1.0861,-1.0542,-1.0383,-1.0383,-1.0241,-1.0314,-1.0635,-1.0643,-1.0818,-1.1175,-1.1139,-1.1248,-1.1488,-1.0956,-1.0936,0.0,0.0,0.0,0.0,0.0,0.0,0.0,0.0,0.0,0.0,0.0,-1.0449,-1.0173,0.0,-1.0522,-1.0536,-1.0841,-1.0891,-1.0214,-1.0119,-1.0169,-1.0486,-0.9933,-0.9319,-0.865,-0.7429,-0.6471,-0.5965,-0.5165,-0.4389,-0.3569,-0.3531,-0.3439,-0.3162,-0.3185,-0.3007,-0.2692,-0.2692,-0.2558,-0.2222,-0.2222,-0.2356,-0.2692,-0.2692,-0.2893,-0.3228,-0.3228,-0.3228,-0.3228,-0.2826,-0.2692,-0.2759,-0.3697,-0.4166,-0.4367,-0.4902,-0.5103,-0.5103,-0.5103,-0.5432,-0.5832,-0.5302,-0.5078,-0.4917,-0.439,-0.4171,-0.4147,-0.4147,-0.4147,-0.4147,-0.4147,-0.3864,-0.3714,-0.404,-0.3804,-0.3698,-0.4334,-0.4472,-0.4857,-0.6217,-0.7347,-0.841,-0.938,-1.0345,-1.1138,-1.1441,-1.15,-1.15,-1.15,-1.15,-1.15,-1.15,-1.1415,-1.1362,-1.1362,-1.1033,-1.0871,-1.0964,-1.0712,-1.0562,-1.0562,-1.0477,-1.0595,-1.0952,-1.0956,-1.1179,-1.1626,-1.1447,-1.1462,-1.1715,-1.1423,-1.1388,0.0,0.0,0.0,0.0,0.0,0.0,0.0,0.0,-1.0755,-1.062,-1.0325,-1.0132,-1.0221,-1.0333,-1.048,-1.062,-1.0601,-1.0151,-0.8991,-0.8517,-0.8334,-0.834,-0.8216,-0.7726,-0.6693,-0.5594,-0.4954,-0.503,-0.4159,-0.3432,-0.2912,-0.2881,-0.2638,-0.2118,-0.2142,-0.2222,-0.2222,-0.2222,-0.2222,-0.2222,-0.2222,-0.2222,-0.2222,-0.2222,-0.2222,-0.2222,-0.2222,-0.2222,-0.2222,-0.2222,-0.2222,-0.2222,-0.2222,-0.2893,-0.3899,-0.3899,-0.3899,-0.3899,-0.3899,-0.3899,-0.3899,-0.3899,-0.3899,-0.3899,-0.3899,-0.3899,-0.3899,-0.3899,-0.3899,-0.3899,-0.3899,-0.3467,-0.3174,-0.3705,-0.3338,-0.298,-0.3689,-0.384,-0.4115,-0.5057,-0.6365,-0.7649,-0.8375,-0.9765,-1.1035,-1.1591,-1.1712,-1.1712,-1.1776,-1.1776,-1.1776,-1.1776,-1.1642,-1.1541,-1.1382,-1.1121,-1.0887,-1.0851,-1.0711,-1.0627,-1.0627,-1.0627,-1.0791,-1.1143,-1.1093,-1.1355,-1.188,-1.1635,-1.1668,-1.1965,-1.1705,-1.1637,-1.6106,-1.4606,-1.2777,-1.0918,-1.0574,-1.0627,0.0,0.0,-1.0158,-1.0621,-1.0436,-1.0237,-1.0445,-1.0503,-1.0523,-1.0527,-0.9683,-0.8987,-0.8818,-0.7601,-0.6259,-0.5104,-0.5471,-0.5716,-0.5596,-0.4187,-0.329,-0.3276,-0.2649,-0.2235,-0.2233,-0.2239,-0.2187,-0.2216,-0.222,-0.2222,-0.2222,-0.2222,-0.2222,-0.2222,-0.2222,-0.2222,-0.2222,-0.2222,-0.2222,-0.2222,-0.2222,-0.2222,-0.2222,-0.2222,-0.2222,-0.2222,-0.2222,-0.2289,-0.2423,-0.2423,-0.2423,-0.2423,-0.2423,-0.2423,-0.2423,-0.2423,-0.2423,-0.2423,-0.2423,-0.2423,-0.2423,-0.2423,-0.2423,-0.2423,-0.2423,-0.2354,-0.2351,-0.2418,-0.2325,-0.2367,-0.3088,-0.3185,-0.3345,-0.405,-0.5896,-0.7461,-0.7521,-0.9345,-1.091,-1.1273,-1.1333,-1.1462,-1.1776,-1.1776,-1.1776,-1.1776,-1.1756,-1.1559,-1.1098,-1.0757,-1.0493,-1.0401,-1.0371,-1.0364,-1.0364,-1.0364,-1.0518,-1.085,-1.0853,-1.1098,-1.1535,-1.1535,-1.1633,-1.1816,-1.175,-1.1809,-1.5035,-1.3573,0.0,0.0,-1.0209,-1.0334,-1.0246,-1.0155,-1.014,-1.025,-1.0232,-1.0221,-1.0357,-1.0455,-1.0482,0.0,-0.9341,-0.8155,-0.7238,-0.5831,-0.4488,-0.3144,-0.3267,-0.3452,-0.3452,-0.2796,-0.2453,-0.2489,-0.219,-0.209,-0.2133,-0.2136,-0.2142,-0.2222,-0.2222,-0.2222,-0.2222,-0.2222,-0.2222,-0.2222,-0.2222,-0.2222,-0.2222,-0.2222,-0.2222,-0.2222,-0.2222,-0.2222,-0.2222,-0.2222,-0.2222,-0.2222,-0.2222,-0.2222,-0.2222,-0.2222,-0.2222,-0.2222,-0.2222,-0.2222,-0.2222,-0.2222,-0.2222,-0.2222,-0.2222,-0.2222,-0.2222,-0.2222,-0.2222,-0.2222,-0.2222,-0.2222,-0.2222,-0.2222,-0.2212,-0.2202,-0.2535,-0.2507,-0.2548,-0.2808,-0.4958,-0.6685,-0.6685,-0.8797,-1.0553,-1.0826,-1.0913,-1.1031,-1.122,-1.122,-1.122,-1.122,-1.122,-1.1129,-1.0876,-1.0748,-1.0658,-1.0591,-1.0584,-1.0629,-1.0726,-1.0729,-1.0886,-1.121,-1.1217,-1.137,-1.1676,-1.141,-1.1381,-1.1449,-1.1251,-1.1185,-1.3573,0.0,0.0,-1.0159,-1.0026,-1.0237,-1.0181,-1.0164,-1.0199,-1.0047,-1.0034,-1.0095,-1.0185,-1.0259,-1.0254,-1.0151,-0.8769,-0.7238,-0.608,-0.4427,-0.3015,-0.2087,-0.1964,-0.1964,-0.1964,-0.199,-0.2022,-0.2126,-0.2084,-0.2114,-0.222,-0.2222,-0.2222,-0.2222,-0.2222,-0.2222,-0.2222,-0.2222,-0.2222,-0.2222,-0.2222,-0.2222,-0.2222,-0.2222,-0.2222,-0.2222,-0.2222,-0.2222,-0.2222,-0.2222,-0.2222,-0.2222,-0.2222,-0.2222,-0.2222,-0.2222,-0.2222,-0.2222,-0.2222,-0.2222,-0.2222,-0.2222,-0.2222,-0.2222,-0.2222,-0.2222,-0.2222,-0.2222,-0.2222,-0.2222,-0.2222,-0.2222,-0.2222,-0.2222,-0.2222,-0.2222,-0.2222,-0.2137,-0.2122,-0.2122,-0.3989,-0.5755,-0.6142,-0.8116,-0.9856,-1.0378,-1.0576,-1.0713,-1.08,-1.0789,-1.0789,-1.0789,-1.0728,-1.0668,-1.0668,-1.0587,-1.0551,-1.0551,-1.0656,-1.0736,-1.0794,-1.0797,-1.0924,-1.12,-1.1203,-1.1283,-1.1516,-1.1181,-1.1052,-1.1052,-1.0787,-1.0721,0.0,0.0,-1.0939,-0.9875,-0.9983,-1.0317,-1.0091,-1.0171,-1.0236,-1.0014,-0.9924,-0.9853,-0.9987,-0.989,-0.9831,-0.9835,-0.7673,-0.5957,-0.5896,-0.3696,-0.2027,-0.1936,-0.1932,-0.1932,0.0,-0.196,-0.2002,-0.2124,-0.2129,-0.2157,-0.2218,-0.2222,-0.2222,-0.2222,-0.2222,-0.2222,-0.2222,-0.2222,-0.2222,-0.2222,-0.2222,-0.2222,-0.2222,-0.2222,-0.2222,-0.2222,-0.2222,-0.2222,-0.2222,-0.2222,-0.2222,-0.2222,-0.2222,-0.2222,-0.2222,-0.2222,-0.2222,-0.2222,-0.2222,-0.2222,-0.2222,-0.2222,-0.2222,-0.2222,-0.2222,-0.2222,-0.2222,-0.2222,-0.2222,-0.2222,-0.2222,-0.2222,-0.2222,-0.2222,-0.2222,-0.2222,-0.2222,-0.2221,-0.2221,-0.2221,-0.3256,-0.4599,-0.5973,-0.7262,-0.8669,-1.0079,-1.0333,-1.0409,-1.0769,-1.0789,-1.0789,-1.0789,-1.0486,-1.0304,-1.0304,-1.0139,-1.0042,-1.0042,-1.0185,-1.0333,-1.0337,-1.0337,-1.0408,-1.0555,-1.0555,-1.0633,-1.0721,-1.0721,-1.0721,-1.0721,-1.0721,-1.0721,-1.1385,0.0,-1.0302,-1.0151,-1.0227,-1.0334,-1.0221,-1.0104,-0.9886,-0.9669,-0.966,-0.9631,-0.9505,-0.9517,-0.9562,-0.9646,-0.7501,-0.5772,-0.5888,-0.3634,-0.1965,-0.1934,-0.1871,0.0,0.0,0.0,0.0,-0.2031,-0.2071,-0.2103,-0.2123,-0.2144,-0.2222,-0.2222,-0.2222,-0.2222,-0.2222,-0.2222,-0.2222,-0.2222,-0.2222,-0.2222,-0.2222,-0.2222,-0.2222,-0.2222,-0.2222,-0.2222,-0.2222,-0.2222,-0.2222,-0.2222,-0.2222,-0.2222,-0.2222,-0.2222,-0.2222,-0.2222,-0.2222,-0.2222,-0.2222,-0.2222,-0.2222,-0.2222,-0.2222,-0.2222,-0.2222,-0.2222,-0.2222,-0.2222,-0.2222,-0.2222,-0.2222,-0.2222,-0.2222,-0.2222,-0.2222,-0.2222,-0.2222,-0.2222,-0.3283,-0.4403,-0.4868,-0.6896,-0.8887,-1.0239,-1.0341,-1.0369,-1.0451,-1.0499,-1.0499,-1.0499,-1.0374,-1.0312,-1.0312,-1.0234,-1.0202,-1.0202,-1.0253,-1.0324,-1.0415,-1.0422,-1.049,-1.0639,-1.0643,-1.067,-1.0721,-1.0721,-1.0721,-1.0721,-1.0721,-1.0721,-1.0538,-1.0092,-0.9745,-1.0036,-1.0074,-1.0091,-0.9981,-0.9816,-0.9614,-0.9391,-0.9279,-0.9266,-0.9262,-0.9228,-0.931,-0.9568,-0.7806,-0.6281,-0.5945,-0.4045,-0.25,-0.1933,-0.1922,-0.1919,0.0,0.0,0.0,-0.2014,-0.2054,-0.2086,-0.2108,-0.2128,-0.2144,-0.2222,-0.2222,-0.2222,-0.2222,-0.2222,-0.2222,-0.2222,-0.2222,-0.2222,-0.2222,-0.2222,-0.2222,-0.2222,-0.2222,-0.2222,-0.2222,-0.2222,-0.2222,-0.2222,-0.2222,-0.2222,-0.2222,-0.2222,-0.2222,-0.2222,-0.2222,-0.2222,-0.2222,-0.2222,-0.2222,-0.2222,-0.2222,-0.2222,-0.2222,-0.2222,-0.2222,-0.2222,-0.2222,-0.2222,-0.2222,-0.2222,-0.2222,-0.2222,-0.2222,-0.2222,-0.2222,-0.2222,-0.296,-0.3698,-0.4234,-0.6704,-0.9079,-1.0389,-1.0493,-1.0399,-1.0293,-1.028,-1.028,-1.028,-1.028,-1.028,-1.028,-1.0327,-1.0354,-1.0354,-1.0409,-1.048,-1.0568,-1.0571,-1.0619,-1.0717,-1.0721,-1.0721,-1.0721,-1.0721,-1.0721,-1.0721,-1.0721,-1.0721,-0.9406,-0.925,-0.9328,-0.9491,-0.9646,-0.971,-0.9445,-0.9382,-0.9362,-0.9216,-0.8913,-0.8849,0.0,0.0,-0.8967,-0.9396,-0.8331,-0.6995,-0.5945,-0.4618,-0.3317,0.0,0.0,0.0,0.0,0.0,0.0,-0.2009,0.0,-0.2043,-0.2104,-0.2108,-0.2123,-0.2221,-0.2222,-0.2222,-0.2222,-0.2222,-0.2222,-0.2222,-0.2222,-0.2222,-0.2222,-0.2222,-0.2222,-0.2222,-0.2222,-0.2222,-0.2222,-0.2222,-0.2222,-0.2222,-0.2222,-0.2222,-0.2222,-0.2222,-0.2222,-0.2222,-0.2222,-0.2222,-0.2222,-0.2222,-0.2222,-0.2222,-0.2222,-0.2222,-0.2222,-0.2222,-0.2222,-0.2222,-0.2222,-0.2222,-0.2222,-0.2222,-0.2222,-0.2222,-0.2222,-0.2289,-0.2289,-0.2222,-0.2289,-0.2759,-0.4167,-0.6771,-0.9108,-1.0518,-1.0721,-1.0619,-1.0337,-1.0304,-1.0304,-1.0304,-1.0304,-1.0304,-1.0304,-1.0426,-1.0504,-1.0504,-1.0639,-1.0721,-1.0721,-1.0721,-1.0721,-1.0721,-1.0721,-1.0721,-1.0721,-1.0721,-1.0721,-1.0721,-1.0721,-1.0724,-0.9332,-0.935,-0.952,-0.9809,-0.971,-0.9518,-0.9518,-0.9293,-0.8972,-0.8838,-0.8852,-0.8845,0.0,0.0,0.0,-0.7789,-0.6031,0.0,-0.441,-0.3316,0.0,-0.1934,0.0,-0.1923,-0.187,-0.1924,0.0,0.0,-0.1988,-0.2014,-0.2072,-0.2097,-0.2123,-0.2221,-0.2222,-0.2222,-0.2222,-0.2222,-0.2222,-0.2222,-0.2222,-0.2222,-0.2222,-0.2222,-0.2222,-0.2222,-0.2222,-0.2222,-0.2222,-0.2222,-0.2222,-0.2222,-0.2222,-0.2222,-0.2222,-0.2222,-0.2222,-0.2222,-0.2222,-0.2222,-0.2222,-0.2222,-0.2222,-0.2222,-0.2222,-0.2222,-0.2222,-0.2222,-0.2222,-0.2222,-0.2222,-0.2222,-0.2222,-0.2222,-0.2222,-0.2222,-0.2222,-0.3027,-0.343,-0.2423,-0.3027,-0.4233,-0.5633,-0.7369,-0.9108,-1.0518,-1.0721,-1.0694,-1.0619,-1.0609,-1.0609,-1.0609,-1.0609,-1.0609,-1.0609,-1.0639,-1.0663,-1.0663,-1.07,-1.0721,-1.0721,-1.0721,-1.0721,-1.0721,-1.0721,-1.0721,-1.0721,-1.0721,-1.0721,-1.0721,-1.0721,-1.0782,-0.9208,-0.928,-0.9368,-0.9482,-0.9437,-0.9297,-0.9245,-0.9006,-0.8794,-0.8642,-0.8628,0.0,0.0,0.0,0.0,0.0,0.0,0.0,-0.3981,-0.3308,-0.2625,0.0,-0.1939,0.0,-0.1949,-0.1939,-0.1944,0.0,-0.1977,-0.2002,-0.2125,-0.208,-0.2109,-0.2221,-0.2222,-0.2222,-0.2222,-0.2222,-0.2222,-0.2222,-0.2222,-0.2222,-0.2222,-0.2222,-0.2222,-0.2222,0.0,-0.2222,-0.2222,-0.2222,-0.2222,-0.2222,-0.2222,-0.2222,-0.2222,-0.2222,-0.2222,-0.2222,-0.2222,-0.2222,-0.2222,-0.2222,-0.2222,-0.2222,-0.2222,-0.2222,-0.2222,-0.2222,-0.2222,-0.2222,-0.2222,-0.2222,-0.2222,-0.2222,-0.2222,-0.2222,-0.2222,-0.2826,-0.3295,-0.3162,-0.4231,-0.5702,-0.7102,-0.8038,-0.9108,-1.0518,-1.0721,-1.0721,-1.0721,-1.0721,-1.0721,-1.0721,-1.0721,-1.0721,-1.0721,-1.0721,-1.0721,-1.0721,-1.0721,-1.0721,-1.0721,-1.0721,-1.0721,-1.0721,-1.0721,-1.0721,-1.0721,-1.0721,-1.0721,-1.0721,-1.0789,-1.0799,-0.918,-0.9161,-0.918,-0.8998,-0.9045,-0.9055,-0.8798,-0.871,-0.8635,-0.8486,0.0,-0.8381,-0.8435,-0.7518,-0.6743,-0.6922,0.0,-0.4915,-0.3797,-0.3653,-0.322,-0.2158,-0.1892,-0.1887,-0.1974,-0.1892,-0.1887,-0.1975,-0.1977,-0.2002,-0.2125,-0.2132,-0.2161,-0.222,-0.2222,-0.2222,-0.2222,-0.2222,-0.2222,-0.2222,-0.2222,-0.2222,-0.2222,-0.2222,-0.2222,-0.2222,-0.2222,0.0,-0.2222,-0.2222,-0.2222,-0.2222,-0.2222,-0.2222,-0.2222,-0.2222,-0.2222,-0.2222,-0.2222,-0.2222,-0.2222,-0.2222,-0.2222,-0.2222,-0.2222,-0.2222,-0.2222,-0.2222,-0.2222,-0.2222,-0.2222,-0.2222,-0.2222,-0.2222,-0.2357,-0.249,-0.249,-0.2624,-0.3161,-0.4568,-0.5834,-0.71,-0.8374,-0.8776,-0.931,-1.0518,-1.0721,-1.0721,-1.0721,-1.0721,-1.0721,-1.0721,-1.0721,-1.0721,-1.0721,-1.0721,-1.0721,-1.0721,-1.0721,-1.0721,-1.0721,-1.0721,-1.0721,-1.0721,-1.0721,-1.0721,-1.0721,-1.0721,-1.0731,-1.0755,-1.082,-1.09,-0.9348,-0.93,-0.9204,-0.918,-0.9045,-0.896,-0.8854,-0.8703,0.0,0.0,0.0,-0.8418,-0.8374,-0.7458,-0.6473,-0.5677,0.0,0.0,0.0,0.0,-0.2278,0.0,0.0,0.0,0.0,0.0,0.0,0.0,0.0,-0.2002,-0.2125,-0.2088,-0.2118,-0.2221,-0.2222,-0.2222,-0.2222,-0.2222,-0.2222,-0.2222,-0.2222,-0.2222,-0.2222,-0.2222,-0.2222,-0.2222,-0.2222,0.0,-0.2222,-0.2222,-0.2222,-0.2222,-0.2222,-0.2222,-0.2222,-0.2222,-0.2222,-0.2222,-0.2222,-0.2222,-0.2222,-0.2222,-0.2222,-0.2222,-0.2222,-0.2222,-0.2222,-0.2222,-0.2222,-0.2222,-0.2222,-0.2222,-0.2222,-0.2222,-0.3095,-0.3966,-0.3966,-0.4832,-0.6101,-0.7572,-0.8038,-0.8307,-0.8573,-0.9579,-1.0452,-1.0651,-1.0721,-1.0721,-1.0721,-1.0721,-1.0721,-1.0721,-1.0721,-1.0721,-1.0721,-1.0721,-1.0721,-1.0721,-1.0721,-1.0721,-1.0721,-1.0721,-1.0721,-1.0721,-1.0721,-1.0721,-1.0721,-1.0721,-1.0785,-1.0843,-1.087,-1.108,-0.9247,-0.9154,-0.919,-0.9059,-0.8991,-0.8841,-0.8737,0.0,0.0,0.0,0.0,-0.8231,-0.8163,0.0,0.0,0.0,0.0,0.0,0.0,0.0,0.0,0.0,0.0,0.0,0.0,0.0,0.0,0.0,0.0,-0.164,-0.2061,-0.2108,-0.214,-0.2222,-0.2222,-0.2222,-0.2222,-0.2222,-0.2222,-0.2222,-0.2222,-0.2222,-0.2222,-0.2222,-0.2222,-0.2222,-0.2222,0.0,-0.2222,-0.2222,-0.2222,-0.2222,-0.2222,-0.2222,-0.2222,-0.2222,-0.2222,-0.2222,-0.2222,-0.2222,-0.2222,-0.2222,-0.2222,-0.2222,-0.2222,-0.2222,-0.2222,-0.2222,-0.2222,-0.2222,-0.2222,-0.2222,-0.2222,-0.2222,-0.3295,-0.4501,-0.5235,-0.6502,-0.7769,-0.844,-0.9175,-0.9712,-0.9712,-1.025,-1.0721,-1.0721,-1.0721,-1.0721,-1.0721,-1.0721,-1.0721,-1.0721,-1.0721,-1.0721,-1.0721,-1.0721,-1.0721,-1.0721,-1.0721,-1.0721,-1.0721,-1.0721,-1.0721,-1.0721,-1.0721,-1.0721,-1.0721,-1.0802,-1.0809,-1.0884,-1.1107,-1.1253,-0.9158,-0.9101,-0.9176,-0.8974,-0.8858,-0.8818,-0.8543,-0.8347,0.0,0.0,-0.7988,-0.8002,-0.8032,0.0,0.0,0.0,0.0,0.0,0.0,0.0,0.0,0.0,0.0,0.0,0.0,0.0,0.0,0.0,0.0,0.0,-0.1877,-0.1926,-0.1953,-0.1953,-0.202,-0.2087,-0.2087,-0.2155,-0.2222,-0.2222,-0.2222,-0.2222,-0.2222,-0.2222,-0.2222,-0.2222,-0.2222,0.0,0.0,-0.2222,-0.2222,-0.2222,-0.2222,-0.2222,-0.2222,-0.2222,-0.2222,-0.2222,-0.2222,-0.2222,-0.2222,-0.2222,-0.2222,-0.2222,-0.2222,-0.2222,-0.2222,-0.2222,-0.2222,-0.2222,-0.2222,-0.2222,-0.2356,-0.2959,-0.3964,-0.5235,-0.6969,-0.8238,-0.9042,-0.9042,-0.9915,-1.0721,-1.0721,-1.0721,-1.0721,-1.0721,-1.0721,-1.0721,-1.0721,-1.0721,-1.0721,-1.0721,-1.0721,-1.0721,-1.0721,-1.0721,-1.0721,-1.0721,-1.0721,-1.0721,-1.0721,-1.0721,-1.0721,-1.0721,-1.0721,-1.0734,-1.0768,-1.0823,-1.0914,-1.0981,-1.1284,-1.1409,-0.9434,-0.9266,-0.9176,-0.8974,-0.8832,-0.8686,-0.852,0.0,0.0,-0.7992,-0.7988,-0.8032,-0.8221,0.0,0.0,0.0,0.0,-0.568,0.0,0.0,0.0,0.0,0.0,0.0,0.0,0.0,0.0,0.0,0.0,0.0,-0.1183,-0.1201,-0.1212,-0.1212,-0.1481,-0.1683,-0.1683,-0.202,-0.2222,-0.2222,-0.2222,-0.2222,-0.2222,-0.2222,-0.2222,-0.2222,-0.2222,0.0,0.0,-0.2222,-0.2222,-0.2222,-0.2222,-0.2222,-0.2222,-0.2222,-0.2222,-0.2222,-0.2222,-0.2222,-0.2222,-0.2222,-0.2222,-0.2222,-0.2222,-0.2222,-0.2222,-0.2222,-0.2222,-0.2222,-0.2222,-0.2222,-0.2825,-0.5432,-0.6099,-0.6969,-0.9712,-1.0386,-1.0518,-1.0518,-1.0588,-1.0721,-1.0721,-1.0721,-1.0721,-1.0721,-1.0721,-1.0721,-1.0721,-1.0721,-1.0721,-1.0721,-1.0721,-1.0721,-1.0721,-1.0721,-1.0721,-1.0721,-1.0721,-1.0721,-1.0721,-1.0721,-1.0721,-1.0721,-1.0721,-1.0789,-1.086,-1.0873,-1.1087,-1.1352,-1.1379,-1.1463,-0.9189,-0.9036,-0.9011,-0.8898,-0.8754,-0.8557,-0.8496,0.0,-0.7988,-0.7988,-0.7988,-0.8008,-0.8119,-0.8029,0.0,0.0,0.0,0.0,0.0,0.0,0.0,0.0,0.0,0.0,0.0,0.0,0.0,0.0,0.0,0.0,-0.0455,-0.0864,-0.1077,-0.1077,-0.1212,-0.1279,-0.1279,-0.1481,-0.1616,-0.1818,-0.1818,-0.1953,-0.2222,-0.2222,-0.2222,-0.2222,-0.2222,0.0,0.0,-0.2222,-0.2222,-0.2222,-0.2222,-0.2222,-0.2222,-0.2222,-0.2222,-0.2222,-0.2222,-0.2222,-0.2222,-0.2222,-0.2222,-0.2222,-0.2222,-0.2222,-0.2222,-0.2222,-0.2222,-0.2222,-0.2222,-0.2826,-0.3964,-0.5899,-0.71,-0.8238,-1.025,-1.0721,-1.0721,-1.0721,-1.0721,-1.0721,-1.0721,-1.0721,-1.0721,-1.0721,-1.0721,-1.0721,-1.0721,-1.0721,-1.0721,-1.0721,-1.0721,-1.0721,-1.0721,-1.0721,-1.0721,-1.0721,-1.0721,-1.0721,-1.0721,-1.0721,-1.0721,-1.0721,-1.0812,-1.082,-1.088,-1.1128,-1.1277,-1.1392,-1.1487,-1.1562,-0.9057,-0.8903,-0.8885,-0.8885,-0.871,-0.8482,0.0,-0.8252,-0.7988,-0.7988,-0.7988,-0.7988,-0.7988,-0.7988,-0.7988,-0.7988,0.0,-0.6457,-0.5075,0.0,0.0,0.0,0.0,0.0,0.0,0.0,0.0,0.0,0.0,0.0,0.0,-0.0461,-0.0804,-0.0808,-0.0875,-0.0942,-0.0942,-0.101,-0.1279,-0.1616,-0.1481,-0.1683,-0.2222,-0.2087,-0.2087,-0.2222,-0.2222,0.0,0.0,-0.2222,-0.2222,-0.2222,-0.2222,-0.2222,-0.2222,-0.2222,-0.2222,-0.2222,-0.2222,-0.2222,-0.2222,-0.2222,-0.2222,-0.2222,-0.2222,-0.2222,-0.2222,-0.2222,-0.249,-0.2826,-0.2826,-0.3899,-0.5302,-0.67,-0.7836,-0.8975,-1.0386,-1.0721,-1.0721,-1.0721,-1.0721,-1.0721,-1.0721,-1.0721,-1.0721,-1.0721,-1.0721,-1.0721,-1.0721,-1.0721,-1.0721,-1.0721,-1.0721,-1.0721,-1.0721,-1.0721,-1.0721,-1.0721,-1.0721,-1.0721,-1.0721,-1.0765,-1.0785,-1.0785,-1.0934,-1.0756,-1.0385,-1.1074,-1.1197,-1.0815,-1.1351,-1.1619,-0.919,-0.8985,-0.8885,-0.8885,-0.871,-0.8482,0.0,-0.8252,-0.7988,-0.7988,-0.7988,-0.7988,-0.7988,-0.7988,-0.7988,-0.7988,-0.8167,0.0,-0.5242,0.0,0.0,0.0,0.0,0.0,0.0,0.0,0.0,0.0,0.0,0.0,0.0,0.0,0.0,0.0,-0.0337,-0.0538,-0.0538,-0.0875,-0.1279,-0.1616,-0.1279,-0.1481,-0.2155,-0.1818,-0.1818,0.0,0.0,0.0,0.0,-0.2222,-0.2222,-0.2222,-0.2222,-0.2222,-0.2222,-0.2222,-0.2222,-0.2222,-0.2222,-0.2222,-0.2222,-0.2222,-0.2222,-0.2222,-0.2222,-0.2222,-0.2222,-0.2222,-0.3228,-0.43,-0.43,-0.53,-0.6767,-0.8238,-0.8573,-0.8975,-1.0386,-1.0721,-1.0721,-1.0721,-1.0721,-1.0721,-1.0721,-1.0721,-1.0721,-1.0721,-1.0721,-1.0721,-1.0721,-1.0721,-1.0721,-1.0721,-1.0721,-1.0721,-1.0721,-1.0721,-1.0721,-1.0721,-1.0721,-1.0721,-1.0721,-1.0799,-1.088,-1.088,-1.1087,-1.0531,-0.9103,-1.0674,-1.0676,-0.936,-1.089,-1.1619,-0.9367,-0.9122,-0.8994,-0.8781,-0.871,-0.8611,-0.8506,-0.8333,-0.8167,-0.8012,-0.7988,-0.7988,-0.7988,-0.7988,-0.8025,-0.818,-0.8238,0.0,0.0,0.0,0.0,0.0,0.0,0.0,0.0,0.0,0.0,0.0,0.0,0.0,0.0,0.0,0.0,0.0,-0.0134,-0.0135,-0.0135,-0.0269,-0.0538,-0.0875,-0.074,-0.1077,-0.1818,-0.1683,-0.1818,0.0,0.0,0.0,0.0,-0.2222,-0.2222,-0.2222,-0.2222,-0.2222,-0.2222,-0.2222,-0.2222,-0.2222,-0.2222,-0.2222,-0.2222,-0.2222,-0.2222,-0.2222,-0.2222,-0.2222,-0.2423,-0.3362,-0.3966,-0.4501,-0.5501,-0.6836,-0.8038,-0.8507,-0.931,-1.0183,-1.0585,-1.0721,-1.0721,-1.0721,-1.0721,-1.0721,-1.0721,-1.0721,-1.0721,-1.0721,-1.0721,-1.0721,-1.0721,-1.0721,-1.0721,-1.0721,-1.0721,-1.0721,-1.0721,-1.0721,-1.0721,-1.0721,-1.0721,-1.0768,-1.0803,-1.0853,-1.0927,-1.1094,-1.0256,-1.0061,-1.0674,-0.9119,-0.8673,-0.9363,-1.089,-1.167,-1.0094,-0.9682,-0.9481,-0.9015,-0.8735,-0.852,-0.8425,-0.8289,-0.814,-0.7984,-0.7904,-0.7887,-0.7833,-0.7826,-0.7923,-0.8072,-0.8096,0.0,0.0,0.0,0.0,0.0,0.0,0.0,0.0,0.0,0.0,0.0,0.0,0.0,0.0,0.0,0.0,0.0,0.0,0.0,0.0,0.0,-0.0202,-0.0471,-0.0404,-0.074,-0.1616,-0.1481,-0.1683,0.0,0.0,0.0,0.0,-0.2222,-0.2222,-0.2222,-0.2222,-0.2222,-0.2222,-0.2222,-0.2222,-0.2222,-0.2222,-0.2222,-0.2222,-0.2222,-0.2222,-0.2423,-0.3495,-0.3429,-0.3162,-0.4033,-0.5103,-0.6103,-0.6969,-0.8307,-0.9377,-0.9377,-1.0047,-1.0721,-1.0721,-1.0721,-1.0721,-1.0721,-1.0721,-1.0721,-1.0721,-1.0721,-1.0721,-1.0721,-1.0721,-1.0721,-1.0721,-1.0721,-1.0721,-1.0721,-1.0721,-1.0721,-1.0721,-1.0721,-1.0721,-1.0721,-1.0775,-1.0578,-1.0051,-1.0708,-1.0875,-1.0401,-0.9612,-0.939,-0.9749,-0.7304,-0.7189,-0.9291,-1.0305,-1.1108,0.0,-1.0649,-1.0171,-0.9363,-0.8727,-0.832,-0.8306,-0.8143,0.0,-0.7831,-0.7794,-0.7756,-0.7638,-0.7607,-0.7648,-0.7801,0.0,0.0,0.0,0.0,0.0,0.0,0.0,0.0,0.0,0.0,0.0,0.0,0.0,0.0,0.0,0.0,0.0,0.0,0.0,0.0,0.0,0.0,-0.0134,-0.0471,-0.0135,-0.0538,-0.1548,-0.1212,-0.1481,0.0,0.0,0.0,0.0,-0.2222,-0.2222,-0.2222,-0.2222,-0.2222,-0.2222,-0.2222,-0.2222,-0.2222,-0.2222,-0.2222,-0.2222,-0.2222,-0.2222,-0.2691,-0.5432,-0.5367,-0.4368,-0.4568,-0.6504,-0.864,-0.8706,-0.9712,-1.0721,-1.0721,-1.0721,-1.0721,-1.0721,-1.0721,-1.0721,-1.0721,-1.0721,-1.0721,-1.0721,-1.0721,-1.0721,-1.0721,-1.0721,-1.0721,-1.0721,-1.0721,-1.0721,-1.0721,-1.0721,-1.0721,-1.0721,-1.0721,-1.0724,-1.0734,-1.0803,-1.0202,-0.8709,-1.0325,-1.0539,-0.912,-0.9231,-0.842,-0.668,-0.5452,-0.625,-0.9,-0.9216,-1.016,-1.29,0.0,-0.9763,-0.8808,-0.8435,-0.8241,0.0,-0.8015,-0.7917,-0.7702,0.0,-0.7672,-0.7746,-0.7672,-0.7685,0.0,0.0,0.0,0.0,0.0,0.0,0.0,0.0,0.0,0.0,0.0,0.0,0.0,0.0,0.0,0.0,0.0,0.0,0.0,0.0,0.0,0.0,0.0,-0.0067,-0.0135,-0.0067,-0.0404,-0.1212,-0.1144,-0.1481,0.0,0.0,0.0,-0.2222,-0.2222,-0.2222,-0.2222,-0.2222,-0.2222,-0.2222,-0.2222,-0.2222,-0.2222,-0.2222,-0.2222,-0.2222,-0.2222,-0.2222,-0.2558,-0.4298,-0.4567,-0.4769,-0.6971,-0.8107,-0.8842,-0.9915,-1.0452,-1.0721,-1.0721,-1.0721,-1.0721,-1.0721,-1.0721,-1.0721,-1.0721,-1.0721,-1.0721,-1.0721,-1.0721,-1.0721,-1.0721,-1.0721,-1.0721,-1.0721,-1.0721,-1.0721,-1.0721,-1.0721,-1.0721,-1.0721,-1.0721,-1.0768,-1.082,-1.086,-1.0287,-0.9016,-0.9431,-0.951,-0.9245,-0.9275,-0.7334,-0.3421,-0.5451,-0.6248,-0.5817,-0.8203,-0.9621,-1.3223,-1.1838,-1.0423,-0.9461,-0.8638,-0.8038,-0.7953,-0.7885,0.0,0.0,0.0,0.0,0.0,0.0,0.0,0.0,0.0,0.0,0.0,0.0,0.0,0.0,0.0,0.0,0.0,0.0,0.0,0.0,0.0,0.0,0.0,0.0,0.0,0.0,0.0,0.0,0.0,0.0,0.0,0.0,0.0,-0.0401,-0.1077,-0.1077,-0.1481,0.0,0.0,0.0,-0.2222,-0.2222,-0.2222,-0.2222,-0.2222,-0.2222,-0.2222,-0.2222,-0.2222,-0.2222,-0.2222,-0.2222,-0.2289,-0.296,-0.3162,-0.3564,-0.5637,-0.6303,-0.6571,-0.8174,-0.9042,-0.9712,-1.0518,-1.0721,-1.0721,-1.0721,-1.0721,-1.0721,-1.0721,-1.0721,-1.0721,-1.0721,-1.0721,-1.0721,-1.0721,-1.0721,-1.0721,-1.0721,-1.0721,-1.0744,-1.0749,-1.0765,-1.0748,-1.0816,-1.0761,-1.0748,-1.0819,-1.0146,-1.0043,-1.0873,-1.1008,-1.0171,-0.8111,-0.8734,-0.8576,-0.7191,-0.7191,-0.5597,-0.2333,-0.4002,-0.4799,-0.4731,-0.6434,-0.8067,-1.3187,-1.2232,-1.1208,-1.0307,-0.8906,-0.7773,-0.775,0.0,0.0,0.0,0.0,0.0,0.0,0.0,0.0,0.0,0.0,0.0,0.0,0.0,0.0,0.0,0.0,0.0,0.0,0.0,0.0,0.0,0.0,0.0,0.0,0.0,0.0,0.0,0.0,0.0,0.0,0.0,0.0,0.0,0.0,-0.0397,-0.1073,-0.1073,-0.1478,-0.2222,0.0,0.0,-0.2222,-0.2222,-0.2222,-0.2222,-0.2222,-0.2222,-0.2222,-0.2222,-0.2222,-0.2222,-0.2222,-0.2222,-0.2423,-0.3831,-0.43,-0.4835,-0.7705,-0.8573,-0.864,-0.8842,-0.9782,-1.0721,-1.0721,-1.0721,-1.0721,-1.0721,-1.0721,-1.0721,-1.0721,-1.0721,-1.0721,-1.0721,-1.0741,-1.0748,-1.0724,-1.0758,-1.0782,-1.0758,-1.0772,-1.0836,-1.0897,-1.0867,-1.0836,-1.0897,-1.0863,-1.0839,-1.0972,-0.976,-0.9496,-1.0532,-1.0686,-0.9405,-0.6504,-0.7796,-0.7263,-0.4366,-0.4584,-0.3931,-0.2333,-0.2333,-0.2987,-0.4369,-0.4572,-0.6264,-1.421,-1.273,-1.092,-0.9875,-0.8614,-0.7597,-0.7468,0.0,0.0,0.0,0.0,0.0,0.0,0.0,0.0,0.0,0.0,0.0,0.0,0.0,0.0,0.0,0.0,0.0,0.0,0.0,0.0,0.0,0.0,0.0,0.0,0.0,0.0,0.0,0.0,0.0,0.0,0.0,0.0,0.0,0.0,-0.0391,-0.1124,-0.1124,-0.1531,-0.2222,0.0,-0.2222,-0.2222,-0.2222,-0.2222,-0.2222,-0.2222,-0.2222,-0.2222,-0.2222,-0.2222,-0.2222,-0.2222,-0.2222,-0.2423,-0.3831,-0.43,-0.4835,-0.7705,-0.8573,-0.8842,-1.0047,-1.0518,-1.0721,-1.0721,-1.0721,-1.0721,-1.0721,-1.0721,-1.0721,-1.0721,-1.0721,-1.0721,-1.0721,-1.0759,-1.0806,-1.0744,-1.0928,-1.1053,-1.0863,-1.1016,-1.1104,-1.1128,-1.1111,-1.1104,-1.1128,-1.1111,-1.1104,-1.1128,-1.1038,-1.054,-0.9479,-0.8169,-0.6662,-0.5075,-0.5232,-0.4511,-0.2696,-0.4004,-0.3931,-0.2333,-0.2333,-0.2405,-0.2697,-0.4058,-0.5,-1.4071,-1.2533,-1.08,-1.0178,-0.8876,-0.7695,-0.7624,0.0,0.0,0.0,0.0,0.0,0.0,0.0,0.0,0.0,0.0,0.0,0.0,0.0,0.0,0.0,0.0,0.0,0.0,0.0,0.0,0.0,0.0,0.0,0.0,0.0,0.0,0.0,0.0,0.0,0.0,0.0,0.0,0.0,0.0,-0.0386,-0.1042,-0.1051,-0.1455,-0.2131,0.0,-0.2222,-0.2222,-0.2222,-0.2222,-0.2222,-0.2222,-0.2222,-0.2222,-0.2222,-0.2222,-0.2222,-0.2222,-0.2222,-0.2423,-0.3831,-0.4835,-0.5835,-0.7971,-0.9108,-0.9848,-1.0518,-1.0721,-1.0721,-1.0721,-1.0721,-1.0721,-1.0721,-1.0721,-1.0721,-1.0721,-1.0721,-1.0721,-1.0721,-1.0775,-1.0829,-1.0843,-1.0955,-1.105,-1.1063,-1.1121,-1.1261,-1.1274,-1.1212,-1.1265,-1.1277,-1.1212,-1.1196,-1.1277,-1.0569,-0.985,-0.9273,-0.6984,-0.5348,-0.4728,-0.3859,-0.306,-0.2333,-0.306,-0.306,-0.2333,-0.2333,-0.2333,-0.2334,-0.3123,-0.3985,-1.3864,-1.2362,-1.0781,-1.0616,0.0,-0.7719,-0.7753,0.0,0.0,0.0,0.0,0.0,0.0,0.0,0.0,0.0,0.0,0.0,0.0,0.0,0.0,0.0,0.0,0.0,0.0,0.0,0.0,0.0,0.0,0.0,0.0,0.0,0.0,0.0,0.0,0.0,0.0,0.0,0.0,0.0,-0.0063,-0.0443,-0.1027,-0.1103,-0.1506,-0.211,-0.2134,-0.2215,-0.2222,-0.2222,-0.2222,-0.2222,-0.2222,-0.2222,-0.2222,-0.2222,-0.2222,-0.2222,-0.2222,-0.2222,-0.2423,-0.3831,-0.5233,-0.6698,-0.8171,-0.9579,-1.0721,-1.0721,-1.0721,-1.0721,-1.0721,-1.0721,-1.0721,-1.0721,-1.0721,-1.0721,-1.0721,-1.0748,-1.0772,-1.0772,-1.0829,-1.0904,-1.0985,-1.0988,-1.1131,-1.1206,-1.1246,-1.1311,-1.143,-1.1341,-1.1314,-1.1433,-1.1341,-1.1318,-1.1436,-1.001,-0.9045,-0.8776,-0.6177,-0.4511,-0.4149,-0.2987,-0.2333,-0.2333,-0.2333,-0.2333,-0.2333,-0.2333,-0.2336,-0.2345,-0.2399,-0.3107,-1.4149,-1.2501,-1.0821,-1.0842,-0.9129,0.0,-0.7584,-0.7499,0.0,-0.757,0.0,0.0,0.0,0.0,0.0,0.0,0.0,0.0,0.0,0.0,0.0,0.0,0.0,0.0,0.0,0.0,0.0,0.0,0.0,0.0,0.0,0.0,0.0,0.0,0.0,0.0,0.0,0.0,0.0,0.0,-0.0309,-0.0623,-0.1012,-0.1329,-0.167,-0.2109,-0.2112,-0.2129,-0.2222,-0.2222,-0.2222,-0.2222,-0.2222,-0.2222,-0.2222,-0.2222,-0.2222,-0.2222,-0.2222,-0.2222,-0.2423,-0.3831,-0.5233,-0.6698,-0.8171,-0.9579,-1.0721,-1.0721,-1.0721,-1.0721,-1.0721,-1.0721,-1.0721,-1.0721,-1.0721,-1.0721,-1.0721,-1.0833,-1.0863,-1.0863,-1.1155,-1.1301,-1.1168,-1.1382,-1.1525,-1.1396,-1.1494,-1.1592,-1.1603,-1.1592,-1.1592,-1.1603,-1.1592,-1.1592,-1.1603,-1.0149,-0.8701,-0.7257,-0.5597,-0.4004,-0.2551,-0.2333,-0.2333,-0.2333,-0.2333,-0.2333,-0.2333,-0.2333,-0.2348,-0.2375,-0.2408,-0.2515,-1.3694,-1.2059,-1.0362,-1.044,-0.8992,0.0,0.0,-0.7685,-0.7689,0.0,0.0,0.0,0.0,0.0,0.0,0.0,0.0,0.0,0.0,0.0,0.0,0.0,0.0,0.0,0.0,0.0,0.0,0.0,0.0,0.0,0.0,0.0,0.0,0.0,0.0,0.0,0.0,0.0,-0.0123,-0.0309,-0.0432,-0.0805,-0.1309,-0.1445,-0.1713,-0.2054,-0.2093,-0.2116,-0.2128,-0.2214,-0.2222,-0.2222,-0.2222,-0.2222,-0.2222,-0.2222,-0.2222,-0.2222,-0.2222,-0.2759,-0.3764,-0.5166,-0.6569,-0.8038,-0.9446,-1.025,-1.0721,-1.0721,-1.0721,-1.0721,-1.0721,-1.0721,-1.0721,-1.0721,-1.0721,-1.0748,-1.0843,-1.084,-1.0907,-1.1063,-1.1172,-1.126,-1.1297,-1.1402,-1.1491,-1.1528,-1.1582,-1.1619,-1.1619,-1.1619,-1.1619,-1.1619,-1.1619,-1.1619,-1.1619,-0.9291,-0.7621,-0.7042,-0.5525,-0.4004,-0.2333,-0.2333,-0.2333,-0.2333,-0.2333,-0.2333,-0.2333,-0.2333,-0.2348,-0.2379,-0.2409,-0.244,-1.28,-1.1257,-0.9722,-0.9745,0.0,0.0,-0.7767,-0.7848,-0.7926,0.0,0.0,0.0,0.0,0.0,0.0,0.0,0.0,0.0,0.0,0.0,0.0,0.0,0.0,0.0,0.0,0.0,0.0,0.0,0.0,0.0,0.0,0.0,0.0,0.0,0.0,0.0,0.0,0.0,-0.0185,-0.0494,-0.0617,-0.0926,-0.1483,-0.1622,-0.1758,-0.2021,-0.2073,-0.2101,-0.2112,-0.2142,-0.2222,-0.2222,-0.2222,-0.2222,-0.2222,-0.2222,-0.2222,-0.2222,-0.2222,-0.3094,-0.4434,-0.5434,-0.7036,-0.8773,-0.9712,-1.0316,-1.0721,-1.0721,-1.0721,-1.0721,-1.0721,-1.0721,-1.0721,-1.0721,-1.0758,-1.0819,-1.0857,-1.0954,-1.1118,-1.1216,-1.1274,-1.1341,-1.1447,-1.1463,-1.1497,-1.1603,-1.1619,-1.1619,-1.1619,-1.1619,-1.1619,-1.1619,-1.1181,-1.089,-1.089,-0.8492,-0.6825,-0.6319,-0.5309,-0.4004,-0.2333,-0.2333,-0.2333,-0.2333,-0.2333,-0.2333,-0.2333,-0.2333,-0.2353,-0.2393,-0.2414,-0.2445,-1.1475,-1.0103,-0.8888,0.0,0.0,0.0,-0.7743,-0.788,-0.8032,0.0,0.0,0.0,0.0,0.0,0.0,0.0,0.0,0.0,0.0,0.0,0.0,0.0,0.0,0.0,0.0,0.0,0.0,0.0,0.0,0.0,0.0,0.0,0.0,0.0,0.0,0.0,0.0,0.0,-0.0185,-0.0494,-0.0864,-0.1173,-0.1482,-0.1853,-0.1992,-0.202,-0.205,-0.208,-0.2111,-0.2142,-0.2222,-0.2222,-0.2222,-0.2222,-0.2222,-0.2222,-0.2222,-0.2222,-0.2222,-0.3162,-0.4301,-0.4301,-0.6237,-0.864,-0.864,-0.9579,-1.0721,-1.0721,-1.0721,-1.0721,-1.0721,-1.0721,-1.0721,-1.0721,-1.0769,-1.088,-1.0884,-1.1182,-1.1389,-1.1392,-1.1514,-1.1619,-1.1619,-1.1619,-1.1619,-1.1619,-1.1619,-1.1619,-1.1619,-1.1619,-1.1619,-1.1619,-1.0233,-0.9291,-0.9291,-0.7837,-0.632,-0.4802,-0.4657,-0.3931,-0.2333,-0.2333,-0.2333,-0.2333,-0.2333,-0.2333,-0.2333,-0.2333,-0.2364,-0.2423,-0.2423,-0.2456,-1.1385,-0.9832,0.0,0.0,0.0,0.0,0.0,-0.7638,0.0,0.0,0.0,0.0,0.0,0.0,0.0,0.0,0.0,0.0,0.0,0.0,0.0,0.0,0.0,0.0,0.0,0.0,0.0,0.0,0.0,0.0,0.0,0.0,0.0,0.0,0.0,0.0,0.0,0.0,-0.0309,-0.0864,-0.0926,-0.1173,-0.1482,-0.1853,-0.1981,-0.199,-0.202,-0.2049,-0.2081,-0.22,-0.2222,-0.2222,-0.2222,-0.2222,-0.2222,-0.2222,-0.2222,-0.2222,-0.2222,-0.3763,-0.5767,-0.5767,-0.7705,-1.0047,-1.0047,-1.0382,-1.0721,-1.0721,-1.0721,-1.0721,-1.0721,-1.0721,-1.0721,-1.0721,-1.0755,-1.0846,-1.1053,-1.1168,-1.1294,-1.1511,-1.1589,-1.1619,-1.1619,-1.1619,-1.1619,-1.1619,-1.1619,-1.1619,-1.1619,-1.1619,-1.1619,-1.1619,-1.0233,-0.9291,-0.9291,-0.69,-0.5164,-0.4731,-0.3641,-0.2769,-0.2333,-0.2333,-0.2333,-0.2333,-0.2333,-0.2333,-0.2333,-0.2333,-0.2364,-0.2423,-0.2423,-0.2456,-1.021,-0.8931,0.0,0.0,0.0,0.0,0.0,0.0,0.0,0.0,0.0,0.0,0.0,0.0,0.0,0.0,0.0,0.0,0.0,0.0,0.0,0.0,0.0,0.0,0.0,0.0,0.0,0.0,0.0,0.0,0.0,0.0,0.0,0.0,0.0,0.0,0.0,0.0,-0.0185,-0.0617,-0.0864,-0.1111,-0.1297,-0.1791,-0.1977,-0.1978,-0.2006,-0.2043,-0.2085,-0.2121,-0.2144,-0.2222,-0.2222,-0.2222,-0.2222,-0.2222,-0.2558,-0.3027,-0.3027,-0.49,-0.73,-0.73,-0.8842,-1.0721,-1.0721,-1.0721,-1.0721,-1.0721,-1.0721,-1.0721,-1.0721,-1.0721,-1.0721,-1.0721,-1.0765,-1.0877,-1.1111,-1.1209,-1.1324,-1.1572,-1.1619,-1.1619,-1.1619,-1.1619,-1.1619,-1.1619,-1.1619,-1.1619,-1.1619,-1.1619,-1.14,-1.0743,-0.9291,-0.8129,-0.7553,-0.5164,-0.3713,-0.3713,-0.2842,-0.2333,-0.2333,-0.2333,-0.2333,-0.2333,-0.2333,-0.2333,-0.2333,-0.2333,-0.2364,-0.2423,-0.2423,-0.2456,-0.8484,0.0,0.0,0.0,0.0,0.0,0.0,0.0,0.0,0.0,0.0,0.0,0.0,0.0,0.0,0.0,0.0,0.0,0.0,0.0,0.0,0.0,0.0,0.0,0.0,0.0,0.0,0.0,0.0,0.0,0.0,-0.0059,0.0,0.0,0.0,0.0,0.0,0.0,0.0,-0.0062,-0.0679,-0.0988,-0.105,-0.1729,-0.1977,-0.1978,-0.2006,-0.2051,-0.2106,-0.2108,-0.2127,-0.2222,-0.2222,-0.2222,-0.2222,-0.2357,-0.3228,-0.4301,-0.4434,-0.6305,-0.8573,-0.8573,-0.9579,-1.0721,-1.0721,-1.0721,-1.0721,-1.0721,-1.0721,-1.0721,-1.0721,-1.0721,-1.0721,-1.0721,-1.0759,-1.0972,-1.1128,-1.127,-1.1419,-1.1589,-1.1619,-1.1619,-1.1619,-1.1619,-1.1619,-1.1619,-1.1619,-1.1619,-1.1619,-1.1619,-1.1038,-0.9654,-0.8129,-0.6608,-0.502,-0.3423,-0.2478,-0.2333,-0.2333,-0.2333,-0.2333,-0.2333,-0.2333,-0.2333,-0.2333,-0.2333,-0.2333,-0.2335,-0.2367,-0.2423,-0.2427,-0.2459,-0.8408,-0.7661,0.0,0.0,0.0,0.0,0.0,0.0,0.0,0.0,0.0,0.0,0.0,0.0,0.0,0.0,0.0,0.0,0.0,0.0,0.0,0.0,0.0,0.0,0.0,0.0,0.0,0.0,0.0,0.0,-0.1386,-0.0526,0.0,0.0,0.0,0.0,0.0,0.0,-0.0122,0.0,-0.0803,-0.1112,-0.142,-0.1791,-0.1977,-0.1978,-0.2006,-0.2039,-0.2076,-0.2099,-0.2127,-0.2222,-0.2222,-0.2222,-0.2357,-0.343,-0.4033,-0.4434,-0.5566,-0.7102,-0.8573,-0.8573,-0.9579,-1.0721,-1.0721,-1.0721,-1.0721,-1.0721,-1.0721,-1.0721,-1.0721,-1.0721,-1.0721,-1.0721,-1.0744,-1.0843,-1.1107,-1.1189,-1.1294,-1.1565,-1.1619,-1.1619,-1.1619,-1.1619,-1.1619,-1.1619,-1.1619,-1.1619,-1.1619,-1.1619,-1.1472,-1.1109,-0.9726,-0.8201,-0.6608,-0.5091,-0.3641,-0.2405,-0.2333,-0.2333,-0.2333,-0.2333,-0.2333,-0.2333,-0.2333,-0.2333,-0.2333,-0.2357,-0.2387,-0.2424,-0.2448,-0.2479,-0.7893,0.0,0.0,0.0,0.0,0.0,0.0,0.0,0.0,0.0,0.0,0.0,0.0,0.0,0.0,0.0,0.0,0.0,0.0,0.0,0.0,0.0,0.0,0.0,0.0,0.0,0.0,0.0,0.0,-0.2404,-0.1816,-0.1202,-0.0575,0.0,0.0,0.0,0.0,-0.0596,-0.0961,-0.122,-0.2255,-0.2753,-0.265,-0.2222,-0.1977,-0.1977,-0.1992,-0.2023,-0.213,-0.2081,-0.2114,-0.2222,-0.2222,-0.2222,-0.2289,-0.3027,-0.4164,-0.5434,-0.6166,-0.7836,-0.9579,-0.9579,-1.0117,-1.0721,-1.0721,-1.0721,-1.0721,-1.0721,-1.0721,-1.0721,-1.0721,-1.0721,-1.0721,-1.0721,-1.0775,-1.089,-1.1114,-1.1219,-1.1341,-1.1572,-1.1619,-1.1619,-1.1619,-1.1619,-1.1619,-1.1619,-1.1619,-1.1619,-1.1619,-1.1619,-1.1329,-1.0599,-0.9798,-0.8348,-0.6103,-0.5164,-0.4004,-0.2405,-0.2333,-0.2333,-0.2333,-0.2333,-0.2333,-0.2333,-0.2333,-0.2333,-0.2333,-0.2363,-0.2394,-0.2424,-0.2455,-0.2485,-0.7482,0.0,-0.7526,0.0,0.0,0.0,0.0,0.0,0.0,0.0,0.0,0.0,0.0,0.0,0.0,0.0,0.0,0.0,0.0,0.0,0.0,0.0,0.0,0.0,0.0,0.0,0.0,0.0,0.0,-0.3469,-0.2463,-0.2015,-0.1466,-0.0629,-0.0401,-0.0404,-0.0645,-0.164,-0.2185,-0.2279,-0.3906,-0.4546,-0.4182,-0.2898,-0.2223,-0.1977,-0.1977,-0.2007,-0.2056,-0.2126,-0.2292,-0.2549,-0.2287,-0.249,-0.2892,-0.2892,-0.4564,-0.6833,-0.7034,-0.8706,-1.0721,-1.0721,-1.0721,-1.0721,-1.0721,-1.0721,-1.0721,-1.0721,-1.0721,-1.0721,-1.0721,-1.0721,-1.0721,-1.0721,-1.0856,-1.1019,-1.1138,-1.1284,-1.1436,-1.1589,-1.1619,-1.1619,-1.1619,-1.1619,-1.1619,-1.1619,-1.1619,-1.1619,-1.1619,-1.1619,-1.1109,-0.9798,-0.9726,-0.8422,-0.5381,-0.5091,-0.4293,-0.2405,-0.2333,-0.2333,-0.2333,-0.2333,-0.2333,-0.2333,-0.2333,-0.2333,-0.2333,-0.2369,-0.2399,-0.2424,-0.246,-0.249,0.0,0.0,-0.7187,0.0,0.0,0.0,0.0,0.0,0.0,0.0,0.0,0.0,0.0,0.0,0.0,0.0,0.0,0.0,0.0,0.0,0.0,0.0,0.0,0.0,0.0,0.0,0.0,0.0,-0.5091,-0.5091,-0.4923,-0.291,-0.2185,-0.3087,-0.2078,-0.2038,-0.3107,-0.328,-0.3365,-0.3421,-0.4303,-0.5029,-0.559,-0.4243,-0.302,-0.1977,-0.1977,-0.1994,-0.2026,-0.2053,-0.2864,-0.3899,-0.2679,-0.3695,-0.5832,-0.5832,-0.69,-0.8507,-0.9712,-1.0386,-1.0721,-1.0721,-1.0721,-1.0721,-1.0721,-1.0721,-1.0721,-1.0721,-1.0721,-1.0721,-1.0721,-1.0721,-1.0721,-1.0721,-1.0931,-1.1138,-1.1158,-1.1284,-1.1436,-1.1589,-1.1619,-1.1619,-1.1619,-1.1619,-1.1619,-1.1619,-1.1619,-1.1619,-1.1619,-1.1619,-1.1548,-1.1325,-1.1257,-1.0017,-0.697,-0.668,-0.5451,-0.2478,-0.2333,-0.2333,-0.2333,-0.2333,-0.2333,-0.2333,-0.2333,-0.2333,-0.2333,-0.239,-0.242,-0.2425,-0.2482,-0.251,-0.7666,-0.719,-0.695,0.0,0.0,0.0,0.0,0.0,0.0,0.0,0.0,0.0,0.0,0.0,0.0,0.0,0.0,0.0,0.0,0.0,0.0,0.0,0.0,0.0,0.0,0.0,0.0,0.0,-0.604,-0.6096,-0.5427,-0.4419,-0.3748,-0.358,-0.3078,-0.3088,-0.362,-0.4299,-0.5211,-0.6336,-0.6736,-0.6962,-0.6999,-0.6385,-0.5408,-0.4125,-0.2653,-0.2861,-0.4157,-0.352,-0.4091,-0.5331,-0.4739,-0.5299,-0.6433,-0.6433,-0.7303,-0.8706,-0.931,-1.0047,-1.0721,-1.0721,-1.0721,-1.0721,-1.0721,-1.0721,-1.0721,-1.0721,-1.0721,-1.0721,-1.0721,-1.0721,-1.0741,-1.0759,-1.1009,-1.1185,-1.127,-1.1409,-1.1538,-1.1606,-1.1619,-1.1619,-1.1619,-1.1619,-1.1619,-1.1619,-1.1619,-1.1619,-1.1619,-1.1619,-1.1619,-1.1619,-1.1619,-1.038,-0.7259,-0.6968,-0.5667,-0.2478,-0.2333,-0.2333,-0.2333,-0.2333,-0.2333,-0.2333,-0.2333,-0.2333,-0.2333,-0.2394,-0.2423,-0.2425,-0.2486,-0.2515,0.0,0.0,-0.6631,-0.6669,0.0,0.0,0.0,0.0,0.0,0.0,0.0,0.0,0.0,0.0,0.0,0.0,0.0,0.0,0.0,0.0,0.0,0.0,0.0,0.0,0.0,0.0,0.0,0.0,-0.671,-0.6818,-0.5929,-0.5594,-0.5146,-0.4529,-0.4195,-0.4195,-0.4529,-0.5481,-0.6822,-0.8623,-0.8725,-0.862,-0.8346,-0.8041,-0.7551,-0.6754,-0.4125,-0.409,-0.5817,-0.4958,-0.5481,-0.6736,-0.6432,-0.6814,-0.7434,-0.71,-0.7902,-0.9108,-0.9108,-0.9845,-1.0721,-1.0721,-1.0721,-1.0721,-1.0721,-1.0721,-1.0721,-1.0721,-1.0721,-1.0721,-1.0721,-1.0721,-1.0758,-1.0843,-1.1056,-1.1216,-1.1406,-1.1538,-1.1619,-1.1619,-1.1619,-1.1619,-1.1619,-1.1619,-1.1619,-1.1619,-1.1619,-1.1619,-1.1619,-1.1619,-1.1619,-1.1619,-1.1619,-1.0524,-0.7837,-0.7621,-0.6391,-0.3639,-0.3494,-0.3349,-0.2914,-0.2914,-0.2696,-0.2333,-0.2333,-0.2333,-0.2333,-0.2386,-0.2416,-0.2425,-0.2478,-0.2507,0.0,-0.6314,0.0,-0.6303,0.0,0.0,0.0,0.0,0.0,0.0,0.0,0.0,0.0,0.0,0.0,0.0,0.0,0.0,0.0,0.0,0.0,0.0,0.0,0.0,0.0,0.0,0.0,0.0,-0.7154,-0.7154,-0.7099,-0.604,-0.5873,-0.6985,-0.5929,-0.5871,-0.6988,-0.7324,-0.796,-0.8861,-0.8868,-0.9189,-0.9636,-0.8471,-0.8532,-0.9454,-0.6815,-0.5778,-0.591,-0.5815,-0.6726,-0.8052,-0.6732,-0.7949,-1.0316,-0.8975,-0.9377,-1.0585,-1.0585,-1.0654,-1.0721,-1.0721,-1.0721,-1.0721,-1.0721,-1.0721,-1.0721,-1.0721,-1.0721,-1.0721,-1.0721,-1.0721,-1.0758,-1.0843,-1.1056,-1.1246,-1.1545,-1.1613,-1.1619,-1.1619,-1.1619,-1.1619,-1.1619,-1.1619,-1.1619,-1.1619,-1.1619,-1.1619,-1.1619,-1.1619,-1.1619,-1.1619,-1.1619,-1.0962,-0.9291,-0.9144,-0.8492,-0.6825,-0.6753,-0.6103,-0.4657,-0.4584,-0.3859,-0.2333,-0.2333,-0.2333,-0.2333,-0.2365,-0.2395,-0.2424,-0.2457,-0.2487,0.0,0.0,0.0,-0.613,0.0,0.0,0.0,0.0,0.0,0.0,0.0,0.0,0.0,0.0,0.0,0.0,0.0,0.0,0.0,0.0,0.0,0.0,0.0,0.0,0.0,0.0,0.0,0.0,0.0,-0.721,-0.721,-0.6765,-0.6763,-0.721,-0.6765,-0.6821,-0.7438,-0.7715,-0.8139,-0.8781,-0.8875,-0.9196,-0.969,-0.929,-0.939,-0.9761,-0.8836,-0.8407,-0.8358,-0.7614,-0.8237,-0.9522,-0.9133,-0.9661,-1.0654,-1.0114,-1.025,-1.0721,-1.0721,-1.0721,-1.0721,-1.0721,-1.0721,-1.0721,-1.0721,-1.0721,-1.0721,-1.0721,-1.0721,-1.0721,-1.0721,-1.0729,-1.086,-1.1172,-1.1345,-1.1487,-1.1596,-1.1619,-1.1619,-1.1619,-1.1619,-1.1619,-1.1619,-1.1619,-1.1619,-1.1619,-1.1619,-1.1619,-1.1619,-1.1619,-1.1619,-1.1619,-1.1619,-1.0962,-0.9435,-0.9291,-0.8636,-0.7112,-0.6968,-0.6753,-0.6174,-0.5236,-0.4439,-0.3859,-0.2842,-0.2333,-0.2333,-0.2363,-0.2394,-0.2424,-0.2455,-0.3104,-0.6143,0.0,0.0,0.0,0.0,0.0,0.0,0.0,0.0,0.0,0.0,0.0,0.0,0.0,0.0,0.0,0.0,0.0,0.0,0.0,0.0,0.0,0.0,0.0,0.0,0.0,0.0,0.0,0.0,0.0,-0.721,-0.721,-0.7265,-0.7324,-0.7435,-0.7601,-0.7881,-0.81,-0.8391,-0.8871,-0.8969,-0.9237,-0.9612,-0.9707,-0.9774,-0.9822,-0.9822,-0.9822,-0.9768,-0.8998,-0.9337,-1.029,-1.0385,-1.0541,-1.0721,-1.0721,-1.0721,-1.0721,-1.0721,-1.0721,-1.0721,-1.0721,-1.0721,-1.0721,-1.0721,-1.0721,-1.0721,-1.0721,-1.0721,-1.0731,-1.0782,-1.0945,-1.1148,-1.1345,-1.1508,-1.1619,-1.1619,-1.1619,-1.1619,-1.1619,-1.1619,-1.1619,-1.1619,-1.1619,-1.1619,-1.1619,-1.1619,-1.1619,-1.1619,-1.1619,-1.1619,-1.1619,-1.1619,-1.1181,-1.0164,-1.0089,-0.9654,-0.8636,-0.8564,-0.8348,-0.7765,-0.6755,-0.6032,-0.5452,-0.4438,-0.3856,-0.3856,-0.3379,-0.3201,-0.3254,-0.3814,-0.4708,0.0,0.0,0.0,0.0,0.0,0.0,0.0,0.0,0.0,0.0,0.0,0.0,0.0,0.0,0.0,0.0,0.0,0.0,0.0,0.0,0.0,0.0,0.0,0.0,0.0,0.0,0.0,0.0,-0.6986,-0.7035,-0.7204,-0.721,-0.7324,-0.7607,-0.7881,-0.8156,-0.8484,-0.8484,-0.8723,-0.9204,-0.9207,-0.931,-0.9602,-0.9608,-0.9686,-0.9822,-0.9822,-0.9822,-0.9822,-0.9822,-1.0002,-1.028,-1.028,-1.046,-1.0721,-1.0721,-1.0721,-1.0721,-1.0721,-1.0721,-1.0721,-1.0721,-1.0721,-1.0721,-1.0721,-1.0721,-1.0721,-1.0721,-1.0724,-1.0761,-1.0853,-1.1175,-1.1392,-1.1396,-1.1511,-1.1619,-1.1619,-1.1619,-1.1619,-1.1619,-1.1619,-1.1619,-1.1619,-1.1619,-1.1619,-1.1619,-1.1619,-1.1619,-1.1619,-1.1619,-1.1619,-1.1619,-1.1619,-1.1619,-1.1619,-1.1619,-1.1619,-1.1619,-1.1619,-1.0962,-0.9435,-0.9291,-0.8564,-0.7112,-0.7042,-0.6968,-0.6968,-0.5525,-0.4864,-0.4983,-0.6568,-0.742,-0.6033,0.0,0.0,0.0,0.0,0.0,0.0,0.0,0.0,0.0,0.0,0.0,0.0,0.0,0.0,0.0,0.0,0.0,0.0,0.0,0.0,0.0,0.0,0.0,0.0,0.0,0.0,0.0,-0.6986,-0.7035,-0.7204,-0.7379,-0.7549,-0.7607,-0.81,-0.8429,-0.8484,-0.8712,-0.8846,-0.8998,-0.9103,-0.9313,-0.9449,-0.9557,-0.9686,-0.9822,-0.9822,-0.9822,-0.9822,-0.9822,-1.0002,-1.028,-1.028,-1.046,-1.0721,-1.0721,-1.0721,-1.0721,-1.0721,-1.0721,-1.0721,-1.0721,-1.0721,-1.0721,-1.0721,-1.0721,-1.0721,-1.0721,-1.0799,-1.0877,-1.1202,-1.1328,-1.1419,-1.1531,-1.1589,-1.1619,-1.1619,-1.1619,-1.1619,-1.1619,-1.1619,-1.1619,-1.1619,-1.1619,-1.1619,-1.1619,-1.1619,-1.1619,-1.1619,-1.1619,-1.1619,-1.1619,-1.1619,-1.1619,-1.1619,-1.1619,-1.1619,-1.1619,-1.1619,-1.14,-1.0962,-0.987,-0.9072,-0.8636,-0.7548,-0.6968,-0.6968,-0.6536,-0.6404,-0.6642,-0.8371,-0.9246,-0.6768,0.0,0.0,0.0,0.0,0.0,0.0,-0.5995,0.0,0.0,0.0,0.0,0.0,0.0,0.0,0.0,0.0,0.0,0.0,0.0,0.0,0.0,0.0,0.0,0.0,-0.6492,-0.6624,-0.6817,-0.688,-0.7037,-0.7371,-0.7771,-0.7992,-0.7992,-0.8432,-0.8654,-0.8654,-0.8826,-0.8885,-0.8885,-0.9025,-0.9174,-0.9384,-0.9473,-0.9629,-0.9822,-0.9822,-0.9822,-0.9822,-0.9822,-1.0002,-1.028,-1.028,-1.046,-1.0721,-1.0721,-1.0721,-1.0721,-1.0721,-1.0721,-1.0721,-1.0721,-1.0721,-1.0721,-1.0721,-1.0721,-1.0721,-1.0721,-1.0873,-1.1094,-1.1328,-1.144,-1.1508,-1.1599,-1.1619,-1.1619,-1.1619,-1.1619,-1.1619,-1.1619,-1.1619,-1.1619,-1.1619,-1.1619,-1.1619,-1.1619,-1.1619,-1.1619,-1.1619,-1.1619,-1.1619,-1.1619,-1.1619,-1.1619,-1.1619,-1.1619,-1.1619,-1.1619,-1.1619,-1.1619,-1.1619,-1.0746,-1.0236,-1.0236,-0.9363,-0.8948,-0.8993,-0.8341,-0.8452,-0.9348,-1.0534,-1.1017,-0.797,-0.723,0.0,0.0,0.0,0.0,-0.6179,-0.6132,-0.6071,0.0,0.0,0.0,0.0,0.0,0.0,0.0,0.0,0.0,0.0,0.0,0.0,0.0,0.0,0.0,-0.6403,-0.6395,-0.6435,-0.6608,-0.6744,-0.7076,-0.7572,-0.8202,-0.8484,-0.8484,-0.8768,-0.8885,-0.8885,-0.8885,-0.8885,-0.8885,-0.8885,-0.9093,-0.9381,-0.9381,-0.954,-0.9822,-0.9822,-0.9822,-0.9822,-0.9822,-1.0002,-1.028,-1.028,-1.046,-1.0721,-1.0721,-1.0721,-1.0721,-1.0721,-1.0721,-1.0721,-1.0721,-1.0721,-1.0721,-1.0721,-1.0721,-1.0727,-1.0761,-1.0958,-1.1202,-1.1372,-1.1518,-1.1619,-1.1619,-1.1619,-1.1619,-1.1619,-1.1619,-1.1619,-1.1619,-1.1619,-1.1619,-1.1619,-1.1619,-1.1619,-1.1619,-1.1619,-1.1619,-1.1619,-1.1619,-1.1619,-1.1619,-1.1619,-1.1619,-1.1619,-1.1619,-1.1619,-1.1619,-1.1619,-1.1619,-1.1619,-1.1619,-1.1619,-1.1619,-1.1619,-1.1697,-1.1857,-1.0452,-1.0661,-1.2294,-1.2437,-1.2501,-0.8435,-0.7994,-0.7798,0.0,0.0,0.0,0.0,-0.6264,-0.6287,0.0,0.0,0.0,0.0,0.0,0.0,0.0,0.0,0.0,0.0,0.0,0.0,0.0,0.0,0.0,-0.6575,-0.6443,-0.6435,-0.6608,-0.7034,-0.7396,-0.7768,-0.8258,-0.8484,-0.8484,-0.8768,-0.8885,-0.8885,-0.8885,-0.8885,-0.8885,-0.8885,-0.9093,-0.9381,-0.9381,-0.954,-0.9822,-0.9822,-0.9822,-0.9822,-0.9822,-1.0002,-1.028,-1.028,-1.046,-1.0721,-1.0721,-1.0721,-1.0721,-1.0721,-1.0721,-1.0721,-1.0721,-1.0721,-1.0721,-1.0721,-1.0721,-1.0768,-1.1009,-1.1118,-1.1226,-1.1504,-1.1596,-1.1619,-1.1619,-1.1619,-1.1619,-1.1619,-1.1619,-1.1619,-1.1619,-1.1619,-1.1619,-1.1619,-1.1619,-1.1619,-1.1619,-1.1619,-1.1619,-1.1619,-1.1619,-1.1619,-1.1619,-1.1619,-1.1619,-1.1619,-1.1619,-1.1619,-1.1619,-1.1619,-1.1619,-1.1619,-1.1619,-1.1619,-1.1619,-1.1619,-1.1752,-1.2016,-1.1719,-1.1808,-1.2294,-1.2437,-1.2501,-0.9492,-0.881,-0.8467,-0.7849,0.0,0.0,0.0,0.0,0.0,0.0,0.0,0.0,0.0,0.0,0.0,0.0,0.0,0.0,0.0,0.0,0.0,0.0,0.0,0.0,-0.6698,-0.6705,-0.676,-0.6975,-0.7412,-0.7756,-0.8056,-0.8397,-0.8633,-0.8709,-0.8826,-0.8885,-0.8885,-0.8885,-0.8885,-0.8885,-0.8885,-0.9093,-0.9381,-0.9381,-0.954,-0.9822,-0.9822,-0.9822,-0.9822,-0.9822,-1.0002,-1.028,-1.028,-1.046,-1.0721,-1.0721,-1.0721,-1.0721,-1.0721,-1.0721,-1.0721,-1.0721,-1.0721,-1.0721,-1.0721,-1.0721,-1.0782,-1.108,-1.1231,-1.1233,-1.1541,-1.1619,-1.1619,-1.1619,-1.1619,-1.1619,-1.1619,-1.1619,-1.1619,-1.1619,-1.1619,-1.1619,-1.1619,-1.1619,-1.1619,-1.1619,-1.1619,-1.1619,-1.1619,-1.1619,-1.1619,-1.1619,-1.1619,-1.1619,-1.1619,-1.1619,-1.1619,-1.1619,-1.1619,-1.1619,-1.1619,-1.1619,-1.1619,-1.1619,-1.1687,-1.1837,-1.2135,-1.2138,-1.225,-1.2396,-1.2467,-1.2501,0.0,0.0,0.0,0.0,0.0,-0.781,0.0,0.0,0.0,0.0,0.0,0.0,0.0,0.0,0.0,0.0,0.0,0.0,0.0,0.0,0.0,0.0,0.0,0.0,0.0,-0.6984,-0.7172,-0.7531,-0.7766,-0.803,-0.8376,-0.8632,-0.8811,-0.8878,-0.8885,-0.8885,-0.8885,-0.8885,-0.8885,-0.8885,-0.8885,-0.9093,-0.9381,-0.9381,-0.954,-0.9822,-0.9822,-0.9822,-0.9822,-0.9822,-1.0002,-1.028,-1.028,-1.046,-1.0721,-1.0721,-1.0721,-1.0721,-1.0721,-1.0721,-1.0721,-1.0721,-1.0721,-1.0721,-1.0721,-1.0721,-1.0782,-1.108,-1.1231,-1.1233,-1.1541,-1.1619,-1.1619,-1.1619,-1.1619,-1.1619,-1.1619,-1.1619,-1.1619,-1.1619,-1.1619,-1.1619,-1.1619,-1.1619,-1.1619,-1.1619,-1.1619,-1.1619,-1.1619,-1.1619,-1.1619,-1.1619,-1.1619,-1.1619,-1.1619,-1.1619,-1.1619,-1.1619,-1.1619,-1.1619,-1.1619,-1.1619,-1.1633,-1.166,-1.1772,-1.1921,-1.2104,-1.223,-1.2362,-1.2501,-1.2501,-1.2501,0.0,0.0,0.0,0.0,-0.9812,0.0,0.0,0.0,0.0,0.0,0.0,0.0,0.0,0.0,0.0,0.0,0.0,0.0,0.0,0.0,0.0,0.0,0.0,0.0,0.0,-0.731,-0.7411,-0.7971,-0.7924,-0.8131,-0.8642,-0.8784,-0.8865,-0.8885,-0.8885,-0.8885,-0.8885,-0.8885,-0.8885,-0.8885,-0.8885,-0.9093,-0.9381,-0.9381,-0.954,-0.9822,-0.9822,-0.9822,-0.9822,-0.9822,-1.0002,-1.028,-1.028,-1.046,-1.0721,-1.0721,-1.0721,-1.0721,-1.0721,-1.0721,-1.0721,-1.0721,-1.0721,-1.0721,-1.0721,-1.0721,-1.0782,-1.108,-1.1231,-1.1233,-1.1541,-1.1619,-1.1619,-1.1619,-1.1619,-1.1619,-1.1619,-1.1619,-1.1619,-1.1619,-1.1619,-1.1619,-1.1619,-1.1619,-1.1619,-1.1619,-1.1619,-1.1619,-1.1619,-1.1619,-1.1619,-1.1619,-1.1619,-1.1619,-1.1619,-1.1619,-1.1619,-1.1619,-1.1619,-1.1619,-1.1619,-1.1619,-1.1681,-1.1803,-1.1823,-1.1976,-1.2264,-1.2281,-1.2362,-1.2501,-1.2501,-1.2501,0.0,0.0,0.0,0.0,0.0,0.0,-1.0043,0.0,-0.8944,0.0,0.0,0.0,0.0,0.0,0.0,0.0,0.0,0.0,0.0,0.0,0.0,0.0,0.0,0.0,0.0,0.0,0.0,0.0,-0.8065,-0.816,-0.8564,-0.8723,-0.8849,-0.8881,-0.8885,-0.8885,-0.8885,-0.8885,-0.8885,-0.8885,-0.8885,-0.9093,-0.9381,-0.9381,-0.954,-0.9822,-0.9822,-0.9822,-0.9822,-0.9822,-1.0002,-1.028,-1.028,-1.046,-1.0721,-1.0721,-1.0721,-1.0721,-1.0721,-1.0721,-1.0721,-1.0721,-1.0721,-1.0721,-1.0721,-1.0721,-1.0765,-1.0978,-1.1097,-1.1212,-1.143,-1.1552,-1.1619,-1.1619,-1.1619,-1.1619,-1.1619,-1.1619,-1.1619,-1.1619,-1.1619,-1.1619,-1.1619,-1.1619,-1.1619,-1.1619,-1.1619,-1.1619,-1.1619,-1.1619,-1.1619,-1.1619,-1.1619,-1.1619,-1.1619,-1.1619,-1.1619,-1.1619,-1.1619,-1.1619,-1.1619,-1.1697,-1.1772,-1.183,-1.2006,-1.2162,-1.2291,-1.2372,-1.2444,-1.2501,-1.2501,-1.2501,-1.3304,0.0,0.0,0.0,0.0,0.0,0.0,0.0,0.0,0.0,0.0,0.0,0.0,0.0,0.0,0.0,0.0,0.0,0.0,0.0,0.0,0.0,0.0,0.0,0.0,0.0,0.0,0.0,0.0,-0.8143,-0.8523,-0.8652,-0.8781,-0.8878,-0.8885,-0.8885,-0.8885,-0.8885,-0.8885,-0.8885,-0.8885,-0.9093,-0.9381,-0.9381,-0.954,-0.9822,-0.9822,-0.9822,-0.9822,-0.9822,-1.0002,-1.028,-1.028,-1.046,-1.0721,-1.0721,-1.0721,-1.0721,-1.0721,-1.0721,-1.0721,-1.0721,-1.0721,-1.0721,-1.0721,-1.0721,-1.0751,-1.0836,-1.1053,-1.1199,-1.1352,-1.1504,-1.1619,-1.1619,-1.1619,-1.1619,-1.1619,-1.1619,-1.1619,-1.1619,-1.1619,-1.1619,-1.1619,-1.1619,-1.1619,-1.1619,-1.1619,-1.1619,-1.1619,-1.1619,-1.1619,-1.1619,-1.1619,-1.1619,-1.1619,-1.1619,-1.1619,-1.1619,-1.1619,-1.1636,-1.1677,-1.1775,-1.187,-1.1955,-1.2176,-1.2311,-1.2349,-1.2454,-1.2501,-1.2501,-1.2501,-1.2501,0.0,0.0,0.0,-1.4195,0.0,0.0,0.0,0.0,-1.2333,0.0,0.0,0.0,0.0,0.0,0.0,0.0,0.0,0.0,0.0,0.0,0.0,0.0,0.0,0.0,0.0,0.0,0.0,0.0,0.0,0.0,-0.8672,-0.8706,-0.8781,-0.8878,-0.8885,-0.8885,-0.8885,-0.8885,-0.8885,-0.8885,-0.8885,-0.9093,-0.9381,-0.9381,-0.954,-0.9822,-0.9822,-0.9822,-0.9822,-0.9822,-1.0002,-1.028,-1.028,-1.046,-1.0721,-1.0721,-1.0721,-1.0721,-1.0721,-1.0721,-1.0721,-1.0721,-1.0721,-1.0721,-1.0721,-1.0721,-1.0751,-1.0836,-1.1053,-1.1199,-1.1352,-1.1504,-1.1619,-1.1619,-1.1619,-1.1619,-1.1619,-1.1619,-1.1619,-1.1619,-1.1619,-1.1619,-1.1619,-1.1619,-1.1619,-1.1619,-1.1619,-1.1619,-1.1619,-1.1619,-1.1619,-1.1619,-1.1619,-1.1619,-1.1619,-1.1619,-1.1619,-1.1619,-1.1619,-1.1681,-1.182,-1.183,-1.1969,-1.2271,-1.2284,-1.2355,-1.2494,-1.2501,-1.2501,-1.2501,-1.2501,-1.2501,0.0,0.0,-1.5077,-1.4222,0.0,0.0,0.0,0.0,0.0,0.0,0.0,0.0,0.0,0.0,0.0,0.0,0.0,0.0,0.0,0.0,0.0,0.0,0.0,0.0,0.0,0.0,0.0,0.0,-0.7998,0.0,0.0,-0.8604,-0.8733,-0.8784,-0.8831,-0.8885,-0.8885,-0.8885,-0.8885,-0.8885,-0.8885,-0.9093,-0.9381,-0.9381,-0.954,-0.9822,-0.9822,-0.9822,-0.9822,-0.9822,-1.0002,-1.028,-1.028,-1.046,-1.0721,-1.0721,-1.0721,-1.0721,-1.0721,-1.0721,-1.0721,-1.0721,-1.0721,-1.0721,-1.0721,-1.0721,-1.0751,-1.0836,-1.1053,-1.1199,-1.1352,-1.1504,-1.1619,-1.1619,-1.1619,-1.1619,-1.1619,-1.1619,-1.1619,-1.1619,-1.1619,-1.1619,-1.1619,-1.1619,-1.1619,-1.1619,-1.1619,-1.1619,-1.1619,-1.1619,-1.1619,-1.1619,-1.1619,-1.1619,-1.1619,-1.1619,-1.1619,-1.1619,-1.1619,-1.1684,-1.1826,-1.1928,-1.2081,-1.2288,-1.2383,-1.2454,-1.2501,-1.2501,-1.2501,-1.2501,-1.2501,-1.2501,-1.6176,-1.6199,0.0,-1.4858,-1.5195,0.0,-1.4315,0.0,0.0,0.0,0.0,0.0,0.0,0.0,0.0,0.0,0.0,0.0,0.0,0.0,0.0,0.0,0.0,0.0,0.0,0.0,-0.7759,-0.7975,-0.7843,0.0,0.0,0.0,-0.8655,-0.871,-0.8804,-0.8885,-0.8885,-0.8885,-0.8885,-0.8885,-0.8885,-0.9093,-0.9381,-0.9381,-0.954,-0.9822,-0.9822,-0.9822,-0.9825,-0.988,-1.0053,-1.0287,-1.0337,-1.0507,-1.0721,-1.0721,-1.0721,-1.0721,-1.0721,-1.0721,-1.0721,-1.0721,-1.0721,-1.0721,-1.0721,-1.0721,-1.0751,-1.0836,-1.1053,-1.1199,-1.1352,-1.1504,-1.1619,-1.1619,-1.1619,-1.1619,-1.1619,-1.1619,-1.1619,-1.1619,-1.1619,-1.1619,-1.1619,-1.1619,-1.1619,-1.1619,-1.1619,-1.1619,-1.1619,-1.1619,-1.1619,-1.1619,-1.1619,-1.1619,-1.1619,-1.1619,-1.1619,-1.1619,-1.1619,-1.1708,-1.1904,-1.201,-1.2155,-1.2362,-1.2457,-1.2501,-1.2501,-1.2501,-1.2501,-1.2501,-1.2501,-1.2501]},{"header":{"parameterUnit":"m.s-1","parameterCategory":1,"la1":30.6,"la2":29.2853,"lo1":-89.7004,"lo2":-87.6739,"dy":0.0162,"dx":0.0183,"nx":112,"ny":82,"refTime":"2026-02-26T00:00:00:Z","depth":0,"parameterNumber":3,"parameterNumberName":"V-component_of_WINDS"},"data":[0.0,0.0,0.0,0.0,0.0,0.0,0.0,0.0,0.0,0.0,0.0,0.0,0.0,0.0,0.0,0.0,0.0,0.0,0.0,0.0,0.0,0.0,0.0,0.0,0.0,0.0,0.0,0.0,0.0,0.0,0.0,0.0,0.0,0.0,0.0,0.0,0.0,0.0,0.0,0.0,0.0,0.0,0.0,0.0,0.0,0.0,0.0,0.0,0.0,0.0,0.0,0.0,0.0,0.0,0.0,0.0,0.0,0.0,0.0,0.0,0.0,0.0,0.0,0.0,0.0,0.0,0.0,0.0,0.0,0.0,0.0,0.0,0.0,0.0,0.0,0.0,0.0,0.0,0.0,0.0,0.0,0.0,0.0,0.0,0.0,0.0,0.0,0.0,0.0,0.0,0.0,3.9428,4.0608,4.1666,4.2187,4.1649,4.062,3.8987,0.0,0.0,0.0,0.0,0.0,0.0,0.0,0.0,0.0,0.0,0.0,0.0,0.0,0.0,0.0,0.0,0.0,0.0,0.0,0.0,0.0,0.0,0.0,0.0,0.0,0.0,0.0,0.0,0.0,0.0,0.0,0.0,0.0,0.0,0.0,0.0,0.0,0.0,0.0,0.0,0.0,0.0,0.0,0.0,0.0,0.0,0.0,0.0,0.0,0.0,0.0,0.0,0.0,0.0,0.0,0.0,0.0,0.0,0.0,0.0,0.0,0.0,0.0,0.0,0.0,0.0,0.0,0.0,0.0,0.0,0.0,0.0,0.0,0.0,0.0,0.0,0.0,0.0,0.0,0.0,0.0,0.0,0.0,0.0,0.0,0.0,0.0,0.0,0.0,0.0,0.0,0.0,0.0,0.0,0.0,0.0,0.0,0.0,0.0,0.0,0.0,0.0,0.0,0.0,3.9585,4.2367,4.3493,4.3814,4.3241,4.3063,4.2182,4.0258,0.0,0.0,0.0,0.0,0.0,0.0,0.0,0.0,0.0,0.0,0.0,0.0,0.0,0.0,0.0,0.0,0.0,0.0,0.0,0.0,0.0,0.0,0.0,0.0,0.0,0.0,0.0,0.0,0.0,0.0,0.0,0.0,0.0,0.0,0.0,0.0,0.0,0.0,0.0,0.0,0.0,0.0,0.0,0.0,0.0,0.0,0.0,0.0,0.0,0.0,0.0,0.0,0.0,0.0,0.0,0.0,0.0,0.0,0.0,0.0,0.0,0.0,0.0,0.0,0.0,0.0,0.0,0.0,0.0,0.0,0.0,0.0,0.0,0.0,0.0,0.0,0.0,0.0,0.0,0.0,0.0,0.0,0.0,0.0,0.0,0.0,0.0,0.0,0.0,0.0,0.0,0.0,0.0,0.0,0.0,0.0,0.0,0.0,0.0,0.0,0.0,0.0,0.0,3.9336,4.0598,4.376,4.4407,4.4436,4.4021,4.3656,4.2578,4.0541,3.9528,0.0,0.0,0.0,0.0,0.0,0.0,0.0,0.0,0.0,0.0,0.0,0.0,0.0,0.0,0.0,0.0,0.0,0.0,0.0,0.0,0.0,0.0,0.0,0.0,0.0,0.0,0.0,0.0,0.0,0.0,0.0,0.0,0.0,0.0,0.0,0.0,0.0,0.0,0.0,0.0,0.0,0.0,0.0,0.0,0.0,0.0,0.0,0.0,0.0,0.0,0.0,0.0,0.0,0.0,0.0,0.0,0.0,0.0,0.0,0.0,0.0,0.0,0.0,0.0,0.0,0.0,0.0,0.0,0.0,0.0,0.0,0.0,0.0,0.0,0.0,0.0,0.0,0.0,0.0,0.0,0.0,0.0,0.0,0.0,0.0,0.0,0.0,0.0,0.0,0.0,0.0,0.0,0.0,0.0,0.0,0.0,0.0,0.0,0.0,0.0,0.0,0.0,4.165,4.2611,4.5075,4.5452,4.5374,4.4937,4.4263,4.2909,4.0718,3.9772,0.0,0.0,0.0,0.0,0.0,0.0,0.0,0.0,0.0,0.0,0.0,0.0,0.0,0.0,0.0,0.0,0.0,0.0,0.0,0.0,0.0,0.0,0.0,0.0,0.0,0.0,0.0,0.0,0.0,0.0,0.0,0.0,0.0,0.0,0.0,0.0,0.0,0.0,0.0,0.0,0.0,0.0,0.0,0.0,0.0,0.0,0.0,0.0,0.0,0.0,0.0,0.0,0.0,0.0,0.0,0.0,0.0,0.0,0.0,0.0,0.0,0.0,0.0,0.0,0.0,0.0,0.0,0.0,0.0,0.0,0.0,0.0,0.0,0.0,0.0,0.0,0.0,0.0,0.0,0.0,0.0,0.0,0.0,0.0,0.0,0.0,0.0,0.0,0.0,0.0,0.0,0.0,0.0,0.0,0.0,0.0,0.0,0.0,0.0,0.0,0.0,0.0,4.3551,4.5679,4.7058,4.7868,4.7702,4.6209,4.5343,4.3815,4.1289,3.9801,0.0,0.0,0.0,0.0,0.0,0.0,0.0,0.0,0.0,0.0,0.0,0.0,0.0,0.0,0.0,0.0,0.0,0.0,0.0,0.0,0.0,0.0,0.0,0.0,0.0,0.0,0.0,0.0,0.0,0.0,0.0,0.0,0.0,0.0,0.0,0.0,0.0,0.0,0.0,0.0,0.0,0.0,0.0,0.0,0.0,0.0,0.0,0.0,0.0,0.0,0.0,0.0,0.0,0.0,0.0,0.0,0.0,0.0,0.0,0.0,0.0,0.0,0.0,0.0,0.0,0.0,0.0,0.0,0.0,0.0,0.0,0.0,0.0,0.0,0.0,0.0,0.0,0.0,0.0,0.0,0.0,0.0,0.0,0.0,0.0,0.0,0.0,0.0,0.0,0.0,0.0,0.0,0.0,0.0,0.0,0.0,0.0,0.0,0.0,0.0,0.0,0.0,4.3543,4.5499,0.0,4.7718,4.7387,4.6279,4.5499,4.4077,4.1778,0.0,0.0,0.0,0.0,0.0,0.0,0.0,0.0,0.0,0.0,0.0,0.0,0.0,0.0,0.0,0.0,0.0,0.0,0.0,0.0,0.0,0.0,0.0,0.0,0.0,0.0,0.0,0.0,0.0,0.0,0.0,0.0,0.0,0.0,0.0,0.0,0.0,0.0,0.0,0.0,0.0,0.0,0.0,0.0,0.0,0.0,0.0,0.0,0.0,0.0,0.0,0.0,0.0,0.0,0.0,0.0,0.0,0.0,0.0,0.0,0.0,0.0,0.0,0.0,0.0,0.0,0.0,0.0,0.0,0.0,0.0,0.0,0.0,0.0,0.0,0.0,0.0,0.0,0.0,0.0,0.0,0.0,0.0,0.0,0.0,0.0,0.0,0.0,0.0,0.0,0.0,0.0,0.0,0.0,0.0,0.0,0.0,0.0,0.0,0.0,0.0,0.0,4.1987,4.3975,4.5824,0.0,4.7695,4.716,4.6365,4.5342,4.3841,4.1733,0.0,0.0,0.0,0.0,0.0,0.0,0.0,0.0,0.0,0.0,0.0,0.0,0.0,0.0,0.0,0.0,0.0,0.0,0.0,0.0,0.0,0.0,0.0,0.0,0.0,0.0,0.0,0.0,0.0,0.0,0.0,0.0,0.0,0.0,0.0,0.0,0.0,0.0,0.0,0.0,0.0,0.0,0.0,0.0,0.0,0.0,0.0,0.0,0.0,0.0,0.0,0.0,0.0,0.0,0.0,0.0,0.0,0.0,0.0,0.0,0.0,0.0,0.0,0.0,0.0,0.0,0.0,0.0,0.0,0.0,0.0,0.0,0.0,0.0,0.0,0.0,0.0,0.0,0.0,0.0,0.0,0.0,0.0,0.0,0.0,0.0,0.0,0.0,0.0,0.0,0.0,0.0,0.0,0.0,0.0,0.0,0.0,0.0,0.0,0.0,0.0,0.0,4.2896,4.5186,4.7125,4.8723,4.8166,4.7367,4.6568,4.4952,4.3124,0.0,0.0,0.0,0.0,0.0,0.0,0.0,0.0,0.0,0.0,0.0,0.0,0.0,0.0,0.0,0.0,0.0,0.0,0.0,0.0,0.0,0.0,0.0,0.0,0.0,0.0,0.0,0.0,0.0,0.0,0.0,0.0,0.0,0.0,0.0,0.0,0.0,0.0,0.0,0.0,0.0,0.0,0.0,0.0,0.0,0.0,0.0,0.0,0.0,0.0,0.0,0.0,0.0,0.0,0.0,0.0,0.0,0.0,0.0,0.0,0.0,0.0,0.0,0.0,0.0,0.0,0.0,0.0,0.0,0.0,0.0,0.0,0.0,0.0,0.0,0.0,0.0,0.0,0.0,0.0,0.0,0.0,0.0,0.0,0.0,0.0,0.0,0.0,0.0,0.0,0.0,0.0,0.0,0.0,0.0,0.0,0.0,0.0,0.0,0.0,0.0,0.0,0.0,4.3352,4.5389,4.7125,4.8723,4.7664,4.6754,4.6513,4.4952,4.3253,4.1514,0.0,0.0,0.0,0.0,0.0,0.0,0.0,0.0,0.0,0.0,0.0,0.0,0.0,0.0,0.0,0.0,0.0,0.0,0.0,0.0,0.0,0.0,0.0,0.0,0.0,0.0,0.0,0.0,0.0,0.0,0.0,0.0,0.0,0.0,0.0,0.0,0.0,0.0,0.0,0.0,0.0,0.0,0.0,0.0,0.0,0.0,0.0,0.0,0.0,0.0,0.0,0.0,0.0,0.0,0.0,0.0,0.0,0.0,0.0,0.0,0.0,0.0,0.0,0.0,0.0,0.0,0.0,0.0,0.0,0.0,0.0,0.0,0.0,0.0,0.0,0.0,0.0,0.0,0.0,0.0,0.0,0.0,0.0,0.0,0.0,0.0,0.0,0.0,0.0,0.0,0.0,0.0,0.0,0.0,0.0,0.0,0.0,0.0,0.0,0.0,0.0,0.0,4.4045,4.5709,4.727,4.9187,4.7958,4.6896,4.6562,4.5348,4.3762,4.1789,0.0,0.0,0.0,0.0,0.0,0.0,0.0,0.0,0.0,0.0,0.0,0.0,0.0,0.0,0.0,0.0,0.0,0.0,0.0,0.0,0.0,0.0,0.0,0.0,0.0,0.0,0.0,0.0,0.0,0.0,0.0,0.0,0.0,0.0,0.0,0.0,0.0,0.0,0.0,0.0,0.0,0.0,0.0,0.0,0.0,0.0,0.0,0.0,0.0,0.0,0.0,0.0,0.0,0.0,0.0,0.0,0.0,0.0,0.0,0.0,0.0,0.0,0.0,0.0,0.0,0.0,0.0,0.0,0.0,0.0,0.0,0.0,0.0,0.0,0.0,0.0,0.0,0.0,0.0,0.0,0.0,0.0,0.0,0.0,0.0,0.0,0.0,0.0,0.0,0.0,0.0,0.0,0.0,0.0,0.0,0.0,0.0,0.0,0.0,0.0,0.0,0.0,4.4798,4.6071,4.752,4.9891,4.8734,4.7518,4.6789,4.5957,4.4509,4.2193,0.0,0.0,0.0,0.0,0.0,0.0,0.0,0.0,0.0,0.0,0.0,0.0,0.0,0.0,0.0,0.0,0.0,0.0,0.0,0.0,0.0,0.0,0.0,0.0,0.0,0.0,0.0,0.0,0.0,0.0,0.0,0.0,0.0,0.0,0.0,0.0,0.0,0.0,0.0,0.0,0.0,0.0,0.0,0.0,0.0,0.0,0.0,0.0,0.0,0.0,0.0,0.0,0.0,0.0,0.0,0.0,0.0,0.0,0.0,0.0,4.1271,0.0,0.0,0.0,0.0,0.0,0.0,0.0,0.0,0.0,0.0,0.0,0.0,0.0,0.0,0.0,0.0,0.0,0.0,0.0,0.0,0.0,0.0,0.0,0.0,0.0,0.0,0.0,0.0,0.0,0.0,0.0,0.0,0.0,0.0,0.0,0.0,0.0,0.0,0.0,0.0,0.0,4.4854,4.6147,4.7634,5.0081,4.8903,4.7893,4.7724,4.6358,4.4995,4.3851,4.1427,0.0,0.0,0.0,0.0,0.0,0.0,0.0,0.0,0.0,0.0,0.0,0.0,0.0,0.0,0.0,0.0,0.0,0.0,0.0,0.0,0.0,0.0,0.0,0.0,0.0,0.0,0.0,0.0,0.0,0.0,0.0,0.0,0.0,0.0,0.0,0.0,0.0,0.0,0.0,0.0,0.0,0.0,0.0,0.0,0.0,0.0,0.0,0.0,0.0,0.0,0.0,0.0,0.0,0.0,0.0,0.0,0.0,0.0,0.0,0.0,4.3259,0.0,0.0,0.0,0.0,0.0,0.0,0.0,0.0,0.0,0.0,0.0,0.0,0.0,0.0,0.0,0.0,0.0,0.0,0.0,0.0,0.0,0.0,0.0,0.0,0.0,0.0,0.0,0.0,0.0,0.0,0.0,0.0,0.0,0.0,0.0,0.0,0.0,0.0,0.0,0.0,4.5491,4.6448,4.7679,5.0131,4.934,4.8458,4.8084,4.7289,4.6106,4.4495,4.224,0.0,0.0,0.0,0.0,0.0,0.0,0.0,0.0,0.0,0.0,0.0,0.0,0.0,0.0,0.0,0.0,0.0,0.0,0.0,0.0,0.0,0.0,0.0,0.0,0.0,0.0,0.0,0.0,0.0,0.0,0.0,0.0,0.0,0.0,0.0,0.0,0.0,0.0,0.0,0.0,0.0,0.0,0.0,0.0,0.0,0.0,0.0,0.0,0.0,0.0,0.0,0.0,0.0,4.642,4.6828,4.5256,4.679,4.7869,4.844,4.6338,4.6479,4.8074,4.6085,0.0,0.0,0.0,0.0,0.0,0.0,0.0,0.0,0.0,0.0,0.0,0.0,0.0,0.0,0.0,0.0,0.0,0.0,0.0,0.0,0.0,0.0,0.0,0.0,4.6064,4.5886,0.0,0.0,0.0,0.0,0.0,0.0,0.0,0.0,0.0,0.0,0.0,0.0,4.624,4.6918,4.7907,5.02,4.9779,4.9062,4.8406,4.8393,4.7425,4.5082,4.3446,4.1844,0.0,0.0,0.0,0.0,0.0,0.0,0.0,0.0,0.0,0.0,0.0,0.0,0.0,0.0,0.0,0.0,0.0,0.0,0.0,0.0,0.0,0.0,0.0,0.0,0.0,0.0,0.0,0.0,0.0,0.0,0.0,0.0,4.0806,4.1697,0.0,0.0,0.0,0.0,0.0,0.0,0.0,0.0,0.0,0.0,0.0,0.0,0.0,4.3191,4.3897,4.6266,4.7079,4.6439,4.9671,5.0378,4.884,4.9775,5.0244,5.0353,5.0,0.0,4.8992,4.7336,0.0,0.0,0.0,0.0,0.0,0.0,0.0,0.0,0.0,0.0,0.0,0.0,0.0,0.0,0.0,0.0,0.0,0.0,0.0,0.0,0.0,0.0,4.7136,4.7036,4.72,4.696,0.0,4.2919,4.0421,3.9239,3.8533,0.0,0.0,0.0,0.0,0.0,0.0,0.0,4.6424,4.7534,4.8686,5.0469,4.9962,4.9437,4.9324,4.9321,4.857,4.6786,4.5739,4.4482,4.2881,4.0516,0.0,0.0,0.0,0.0,0.0,0.0,0.0,0.0,0.0,0.0,0.0,0.0,0.0,0.0,0.0,0.0,0.0,0.0,0.0,0.0,0.0,0.0,0.0,0.0,0.0,0.0,0.0,0.0,0.0,4.1126,4.2779,4.3889,4.3246,4.2529,0.0,0.0,0.0,0.0,0.0,0.0,0.0,0.0,0.0,4.5472,4.5528,4.6151,4.7433,4.9032,4.9669,4.9363,5.1722,5.2247,5.1152,5.1964,5.2322,5.2322,5.2322,5.21,5.1545,4.9295,4.8161,4.7694,0.0,0.0,0.0,0.0,4.5404,4.6172,4.679,4.7354,0.0,4.6555,0.0,0.0,0.0,0.0,0.0,0.0,0.0,0.0,0.0,0.0,4.8812,4.8812,4.9153,4.9248,4.8452,4.6291,4.3832,0.0,4.0704,3.9815,3.8003,0.0,0.0,0.0,0.0,0.0,4.6648,4.7673,4.8664,4.9884,4.9715,4.9509,4.9509,4.9509,4.9189,4.8457,4.7162,4.5928,4.4807,4.2784,4.108,0.0,0.0,0.0,0.0,0.0,0.0,0.0,0.0,0.0,0.0,0.0,0.0,0.0,0.0,0.0,0.0,0.0,0.0,0.0,0.0,0.0,0.0,0.0,0.0,0.0,0.0,0.0,0.0,4.3584,4.482,4.5544,4.5461,4.4847,0.0,0.0,0.0,0.0,0.0,0.0,4.4915,4.5464,4.6588,4.832,4.8377,4.9066,5.0532,5.1385,5.1802,5.1821,5.3248,5.3637,5.3105,5.3694,5.394,5.3979,5.3959,5.393,5.3745,5.1258,5.0191,4.9877,4.7813,4.7048,4.7138,4.7138,4.7682,4.8573,5.0039,5.083,5.0933,4.9523,0.0,4.7593,4.4891,0.0,0.0,0.0,0.0,4.6175,4.7295,4.8935,5.0398,5.0588,5.114,5.1389,5.0552,4.9245,4.7229,0.0,4.3001,4.2083,4.0044,0.0,0.0,0.0,0.0,4.5472,4.7145,4.8055,4.8792,4.9476,4.9551,4.9567,4.9593,4.9781,4.9725,4.9311,4.8313,4.7297,4.6312,4.4836,4.314,4.1211,0.0,0.0,0.0,0.0,0.0,0.0,0.0,0.0,0.0,0.0,0.0,0.0,0.0,0.0,0.0,0.0,0.0,0.0,0.0,0.0,0.0,0.0,0.0,0.0,0.0,0.0,0.0,0.0,0.0,4.5777,4.7165,0.0,0.0,0.0,0.0,4.4762,4.5609,4.6803,4.8351,4.8484,4.9261,5.0963,5.102,5.1423,5.2262,5.3077,5.3475,5.3494,5.4389,5.4886,5.496,5.4871,5.4905,5.5023,5.489,5.4825,5.4712,5.2968,5.1812,5.1025,5.0077,4.9717,4.9711,4.9711,5.0261,5.1133,5.1987,5.1879,5.163,5.3095,5.1935,4.9784,4.8864,4.7941,0.0,0.0,4.8674,4.9098,5.0866,5.1424,5.1711,5.2468,5.284,5.2771,5.1877,5.1037,4.9555,0.0,4.5324,4.4459,4.3568,0.0,4.2867,4.444,4.5337,4.6434,4.8112,4.898,4.9495,4.9663,4.9678,4.975,4.9871,5.0572,5.0363,4.8842,4.9373,4.9026,4.739,4.6518,4.5609,4.4673,4.2322,0.0,0.0,0.0,0.0,0.0,0.0,0.0,0.0,0.0,0.0,0.0,0.0,0.0,0.0,0.0,0.0,0.0,0.0,0.0,0.0,0.0,0.0,0.0,0.0,0.0,0.0,0.0,0.0,4.838,4.9475,0.0,4.7458,4.8287,4.8555,4.7547,4.9239,5.0399,5.0551,5.1059,5.1859,5.3022,5.3079,5.3479,5.4324,5.4702,5.516,5.574,5.6137,5.6633,5.722,5.7171,5.7182,5.722,5.7171,5.7148,5.7071,5.59,5.4433,5.2857,5.1982,5.1687,5.1764,5.1764,5.2317,5.3117,5.3384,5.3334,5.3067,5.2577,5.1433,5.0186,4.9899,4.9539,4.9458,5.0383,5.07,5.1042,5.2253,5.3061,5.3453,5.3183,5.3599,5.3822,5.2945,5.204,5.1055,5.0013,4.8079,4.6393,4.5586,4.5546,4.564,4.5716,4.6821,4.7861,4.8453,4.9244,4.9792,4.9816,4.983,4.9857,4.9898,5.0163,5.0542,5.1054,5.0808,5.0445,4.9917,4.9054,4.7504,4.5197,4.4197,4.249,0.0,0.0,0.0,0.0,0.0,0.0,0.0,0.0,0.0,0.0,0.0,0.0,0.0,0.0,0.0,0.0,0.0,0.0,0.0,0.0,0.0,0.0,0.0,0.0,0.0,0.0,4.9457,4.9495,5.1047,5.134,4.9346,5.0728,5.1198,4.9915,5.1593,5.2603,5.2448,5.2957,5.3663,5.4585,5.4604,5.5042,5.5964,5.6052,5.6541,5.7409,5.7514,5.7854,5.8471,5.8423,5.8423,5.8452,5.8423,5.8394,5.8355,5.7776,5.6695,5.5287,5.4097,5.3682,5.3762,5.3995,5.4448,5.4944,5.4944,5.5135,5.5059,5.3091,5.2059,5.1525,5.1238,5.1189,5.1419,5.2269,5.2626,5.2934,5.379,5.4506,5.4853,5.4283,5.462,5.4849,5.3988,5.3316,5.2798,5.2508,5.0083,4.7938,4.7395,4.7434,4.7452,4.7217,4.8042,4.877,4.9067,4.9578,4.9925,4.9965,4.9978,4.9992,5.0025,4.9778,5.0101,5.1209,5.0747,5.0463,5.0539,5.0228,4.8952,4.6634,4.5908,4.4249,4.1542,0.0,0.0,0.0,0.0,0.0,0.0,0.0,0.0,0.0,0.0,0.0,0.0,0.0,0.0,0.0,0.0,0.0,0.0,0.0,0.0,0.0,0.0,0.0,4.5038,4.8541,5.0551,4.9047,5.1868,5.2962,5.0475,5.1846,5.2537,5.1735,5.2435,5.3256,5.4097,5.4135,5.4616,5.5615,5.5646,5.6137,5.713,5.7159,5.7593,5.8452,5.8462,5.8538,5.869,5.8558,5.8567,5.869,5.8548,5.8491,5.8491,5.8471,5.8452,5.8278,5.6415,5.5684,5.5765,5.641,5.6652,5.6639,5.6639,5.7212,5.7485,5.5033,5.4212,5.404,5.3192,5.3054,5.3351,5.4139,5.4485,5.4814,5.5605,5.5808,5.5827,5.5827,5.5909,5.5788,5.5021,5.4917,5.4731,5.3896,5.1296,4.9217,4.9197,4.846,4.8162,4.9003,4.8974,0.0,4.9993,5.0005,4.9965,5.0095,5.0108,5.0158,5.029,4.9557,4.9129,4.9167,4.9148,4.9148,4.9148,4.9882,4.9901,4.9091,4.7341,4.566,4.4006,0.0,0.0,0.0,0.0,0.0,0.0,0.0,0.0,0.0,0.0,0.0,0.0,0.0,0.0,0.0,0.0,0.0,0.0,0.0,0.0,0.0,0.0,4.7113,4.7717,4.991,5.1739,5.2514,5.4027,5.446,5.3137,5.4021,5.4376,5.3598,5.4357,5.497,5.5312,5.5331,5.5737,5.6655,5.6693,5.713,5.8025,5.8197,5.8704,5.9566,5.9711,6.0099,6.0696,6.0649,6.0641,6.0631,6.0581,6.0585,6.0534,5.9954,5.9675,5.9502,5.8143,5.7536,5.7443,5.7783,5.7804,5.7695,5.7695,5.7768,5.7798,5.7186,5.6582,5.6038,5.5953,5.5526,5.5094,5.5325,5.5489,5.5672,5.5885,5.6056,5.6163,5.6163,5.6185,5.6154,5.5941,5.5343,5.4754,5.4426,5.308,5.183,5.1299,5.0327,4.9691,4.992,4.9923,0.0,5.0205,5.0219,5.0188,5.0243,5.0243,5.0267,5.0302,4.9557,4.9614,5.0837,5.0321,4.9977,4.9977,5.0187,4.9614,4.82,4.6481,4.5086,0.0,0.0,0.0,0.0,0.0,0.0,0.0,0.0,0.0,0.0,0.0,0.0,0.0,0.0,0.0,0.0,0.0,0.0,0.0,0.0,0.0,0.0,4.7293,4.9272,5.0867,5.1985,5.3015,5.3989,5.4868,5.5212,5.4696,5.5153,5.5308,5.4885,5.5365,5.5729,5.5845,5.6192,5.6662,5.726,5.7616,5.8254,5.9184,5.9303,5.9793,6.0631,6.075,6.1047,6.1504,6.1504,6.1482,6.1446,6.1446,6.1446,6.1414,6.0942,6.0728,0.0,0.0,0.0,0.0,0.0,5.9055,5.9218,5.8853,5.8689,5.8568,5.83,5.7871,5.7478,5.7601,5.7332,5.6973,5.6973,5.7069,5.7164,5.7164,5.7003,5.6834,5.6842,5.6569,5.6309,5.6298,5.5844,5.537,5.5221,5.44,0.0,5.3051,5.2064,5.1353,5.1353,5.1353,5.1353,5.1353,5.1353,5.1353,5.1353,5.1047,5.0837,5.0837,4.9767,0.0,0.0,0.0,4.9251,4.9251,4.9251,0.0,0.0,0.0,0.0,0.0,0.0,0.0,0.0,4.5927,4.5564,0.0,0.0,0.0,0.0,0.0,0.0,0.0,0.0,0.0,0.0,0.0,0.0,0.0,0.0,0.0,0.0,4.9346,5.141,5.3779,5.418,5.425,5.4256,5.4938,5.5409,5.5409,5.5547,5.5632,5.5654,5.5769,5.5919,5.6082,0.0,0.0,0.0,0.0,5.9443,6.0447,6.0447,6.0803,6.1528,6.1528,6.1524,6.1519,6.1519,6.1514,6.149,6.149,6.149,6.149,6.1514,6.1519,6.133,5.9653,5.8966,5.8994,5.9582,6.0277,6.0838,6.0065,0.0,0.0,5.8954,5.8674,5.8578,5.8616,5.8628,5.8642,5.8642,5.8736,5.8823,5.8823,5.8297,5.7762,5.7754,5.7084,5.6458,5.6453,5.6362,5.6233,5.6044,5.5311,5.467,5.4487,5.3529,5.2805,5.2805,5.2805,5.2805,5.2805,5.2805,5.2805,5.2805,0.0,0.0,5.1754,5.0206,4.8945,4.8266,4.8056,4.7941,4.7941,4.7845,4.8258,4.9224,4.9243,5.0054,5.1735,5.0971,5.1792,5.397,4.8544,4.7704,0.0,0.0,0.0,0.0,0.0,0.0,0.0,0.0,0.0,0.0,0.0,0.0,0.0,0.0,0.0,4.8472,5.0787,5.2728,5.3932,5.4708,5.5148,5.5154,5.5387,5.5558,5.5558,5.572,5.5889,5.6005,5.6075,5.6472,5.7317,5.7516,5.8272,5.9718,5.9913,6.0447,6.1331,6.135,6.1442,6.1663,0.0,0.0,6.1584,6.1584,6.1545,6.149,6.149,6.149,6.1495,6.1553,6.1584,6.1537,6.0997,6.0857,6.0942,6.0954,6.1068,6.1204,6.1029,6.0853,6.0721,6.0735,6.0259,5.9729,5.9871,5.9463,0.0,5.8914,5.8944,5.8954,5.8954,5.8846,5.8734,5.8725,5.8067,5.7415,5.7359,5.6798,5.6232,5.6033,5.5775,5.5509,5.536,5.3931,5.2805,5.2805,5.2805,5.2805,5.2805,5.2805,5.2805,5.2805,5.2652,5.2575,5.2575,5.1028,5.0302,5.0825,4.9595,4.885,4.885,4.8181,4.8525,5.0034,5.0073,5.0894,5.2575,5.2403,5.2919,5.4046,5.1544,5.1448,0.0,0.0,0.0,0.0,0.0,0.0,0.0,0.0,0.0,0.0,0.0,4.3107,4.5418,0.0,4.8461,5.0654,5.2406,5.3831,5.4778,5.5273,5.5542,5.5562,5.5624,5.569,5.5798,5.5954,5.625,5.6758,5.6895,5.7371,5.8348,5.8781,5.9412,6.0327,6.0776,6.1215,6.166,6.166,6.1666,6.1698,6.1698,6.1674,6.166,6.166,6.1631,6.1595,6.1595,6.1595,6.1595,6.1634,6.166,6.1637,6.1549,6.15,6.1486,6.1426,6.1409,6.1409,6.1409,6.1322,6.1266,6.1373,6.1117,6.0778,6.0877,6.0599,6.0248,6.0248,6.0248,6.0248,6.0248,5.9954,5.965,5.9648,5.9018,5.8379,5.8316,5.762,5.6942,5.677,5.628,5.5855,5.568,5.4813,5.414,5.4116,5.4104,5.4104,5.4104,5.4104,5.4104,5.4104,5.3702,5.3454,5.3454,5.1907,5.1142,5.1582,5.0397,4.9691,4.9691,4.9289,4.9843,5.1525,5.1544,5.2594,5.4696,5.4734,5.5409,5.6633,5.5835,5.5663,0.0,0.0,0.0,0.0,0.0,0.0,0.0,0.0,4.2347,4.3608,4.4281,4.5467,4.8086,4.914,5.0386,5.279,5.3909,5.477,5.5586,5.574,5.5767,5.5806,5.5805,5.5855,5.6027,5.6167,5.662,5.7495,5.7663,5.82,5.9284,5.997,6.0431,6.0646,6.133,6.1698,6.1698,6.1698,6.1698,6.1698,6.1698,6.1698,6.1698,6.1698,6.1698,6.1698,6.1698,6.1698,6.1698,6.1698,6.1698,6.1698,6.1698,6.1631,6.1537,6.1537,6.1537,6.1537,6.1537,6.1537,6.1537,6.1537,6.1537,6.1537,6.1537,6.1537,6.1537,6.1537,6.1537,6.1537,6.1537,6.1054,6.0561,6.057,5.9946,5.9339,5.926,5.8585,5.794,5.7806,5.697,5.6201,5.6038,5.5733,5.5476,5.5422,5.5396,5.5396,5.5403,5.5403,5.5403,5.5403,5.4772,5.4295,5.4129,5.2886,5.2057,5.1885,5.1216,5.0815,5.0815,5.0815,5.1598,5.3281,5.3331,5.4593,5.7117,5.7188,5.7998,5.9472,5.9524,5.9179,4.0887,3.9724,3.9324,4.0568,4.1446,4.2822,0.0,0.0,4.6541,4.8919,4.8319,4.8162,5.0773,5.1339,5.2012,5.3844,5.4914,5.5567,5.5673,5.5852,5.6019,5.6214,5.6179,5.6155,5.6187,5.6348,5.6838,5.77,5.7771,5.8512,6.0173,6.0329,6.0742,6.1522,6.164,6.1698,6.1698,6.1698,6.1698,6.1698,6.1698,6.1698,6.1698,6.1698,6.1698,6.1698,6.1698,6.1698,6.1698,6.1698,6.1698,6.1698,6.1698,6.1696,6.1671,6.1671,6.1671,6.1671,6.1671,6.1671,6.1671,6.1671,6.1671,6.1671,6.1671,6.1671,6.1671,6.1671,6.1671,6.1671,6.1671,6.1615,6.1537,6.1534,6.0873,6.0246,6.0175,5.9524,5.8909,5.8845,5.7923,5.7152,5.7124,5.6221,5.548,5.5408,5.5395,5.5409,5.5403,5.5403,5.5403,5.5403,5.5307,5.497,5.4247,5.4077,5.3671,5.2893,5.274,5.2702,5.2702,5.2702,5.3487,5.5174,5.5193,5.6439,5.9,5.9,5.9498,6.0438,6.045,6.0399,4.3511,4.3211,0.0,0.0,4.4889,4.5902,4.7441,4.7521,4.7704,4.9277,4.9461,4.9961,5.2066,5.2863,5.3614,0.0,5.5449,5.5814,5.592,5.6065,5.6247,5.6455,5.6448,5.6437,5.6437,5.6923,5.7623,5.8482,5.9022,5.9846,6.1095,6.1154,6.133,6.1698,6.1698,6.1698,6.1698,6.1698,6.1698,6.1698,6.1698,6.1698,6.1698,6.1698,6.1698,6.1698,6.1698,6.1698,6.1698,6.1698,6.1698,6.1698,6.1698,6.1698,6.1698,6.1698,6.1698,6.1698,6.1698,6.1698,6.1698,6.1698,6.1698,6.1698,6.1698,6.1698,6.1698,6.1698,6.1698,6.1698,6.1698,6.1698,6.1698,6.1698,6.1425,6.1152,6.1119,6.0456,5.9848,5.9817,5.8893,5.8113,5.8113,5.7574,5.694,5.6352,5.5818,5.5456,5.5458,5.5458,5.5458,5.5458,5.5458,5.5317,5.4989,5.4975,5.4833,5.4488,5.445,5.468,5.5178,5.5197,5.6002,5.767,5.7709,5.8495,6.0067,6.0098,6.0303,6.0667,6.0704,6.0717,4.4744,0.0,0.0,4.6061,4.7169,4.8162,4.8154,4.8337,4.8769,4.9658,5.0158,5.1042,5.3015,5.3716,5.4334,5.5445,5.576,5.592,5.6078,5.6252,5.6345,5.625,5.6235,5.6235,5.6235,5.6996,5.7914,5.9024,5.969,6.0529,6.164,6.1698,6.1698,6.1698,6.1698,6.1698,6.1698,6.1698,6.1698,6.1698,6.1698,6.1698,6.1698,6.1698,6.1698,6.1698,6.1698,6.1698,6.1698,6.1698,6.1698,6.1698,6.1698,6.1698,6.1698,6.1698,6.1698,6.1698,6.1698,6.1698,6.1698,6.1698,6.1698,6.1698,6.1698,6.1698,6.1698,6.1698,6.1698,6.1698,6.1698,6.1698,6.1698,6.1698,6.1698,6.1698,6.1698,6.1193,6.0764,6.0764,5.9867,5.9095,5.9056,5.8679,5.8115,5.7389,5.6718,5.6095,5.5562,5.5504,5.5504,5.5504,5.5516,5.5527,5.5527,5.5762,5.5907,5.5907,5.6126,5.6548,5.7193,5.7213,5.7884,5.9343,5.9362,5.9784,6.0655,6.0697,6.0741,6.0741,6.0788,6.08,0.0,0.0,4.4917,4.5243,4.7218,4.9064,4.9051,4.9712,5.0596,5.1516,5.1056,5.1289,5.3887,5.3686,5.3697,5.5423,5.5921,5.6091,5.6097,5.6383,5.6272,5.5435,5.5337,5.5337,0.0,5.6138,5.7328,5.8985,5.9122,5.9883,6.1601,6.1698,6.1698,6.1698,6.1698,6.1698,6.1698,6.1698,6.1698,6.1698,6.1698,6.1698,6.1698,6.1698,6.1698,6.1698,6.1698,6.1698,6.1698,6.1698,6.1698,6.1698,6.1698,6.1698,6.1698,6.1698,6.1698,6.1698,6.1698,6.1698,6.1698,6.1698,6.1698,6.1698,6.1698,6.1698,6.1698,6.1698,6.1698,6.1698,6.1698,6.1698,6.1698,6.1698,6.1698,6.1698,6.1698,6.1679,6.1659,6.1659,6.085,6.0117,5.9977,5.9146,5.8442,5.8275,5.8231,5.7562,5.5727,5.5504,5.5504,5.5504,5.5562,5.5596,5.5596,5.642,5.6953,5.6953,5.7761,5.8231,5.825,5.825,5.8654,5.9481,5.9481,5.9923,6.08,6.08,6.08,6.08,6.08,6.08,4.4222,0.0,4.6229,4.7502,4.8903,4.9958,4.9961,5.0224,5.0566,5.0926,5.1186,5.1649,5.2565,5.296,5.3547,5.4703,5.5117,5.5501,5.6019,5.6387,5.6274,5.5396,5.53,0.0,0.0,0.0,0.0,5.8148,5.9319,6.0217,6.0803,6.1388,6.1698,6.1698,6.1698,6.1698,6.1698,6.1698,6.1698,6.1698,6.1698,6.1698,6.1698,6.1698,6.1698,6.1698,6.1698,6.1698,6.1698,6.1698,6.1698,6.1698,6.1698,6.1698,6.1698,6.1698,6.1698,6.1698,6.1698,6.1698,6.1698,6.1698,6.1698,6.1698,6.1698,6.1698,6.1698,6.1698,6.1698,6.1698,6.1698,6.1698,6.1698,6.1698,6.1698,6.1698,6.1698,6.1698,6.1698,6.1698,6.1357,6.1052,6.0997,6.0526,5.9911,5.9199,5.8646,5.8066,5.7436,5.7347,5.7347,5.7347,5.737,5.7381,5.7381,5.7673,5.7857,5.7857,5.8146,5.855,5.9069,5.9108,5.9492,6.0339,6.0358,6.0512,6.08,6.08,6.08,6.08,6.08,6.08,4.4753,4.5996,4.7367,4.8783,4.9792,5.0446,5.0468,5.05,5.0638,5.0978,5.0998,5.1239,5.2192,5.2337,5.2799,5.426,5.468,5.5131,5.5974,5.6085,5.5862,5.5357,5.5025,5.4966,0.0,0.0,0.0,5.768,5.8831,5.9749,6.0373,6.0939,6.1388,6.1698,6.1698,6.1698,6.1698,6.1698,6.1698,6.1698,6.1698,6.1698,6.1698,6.1698,6.1698,6.1698,6.1698,6.1698,6.1698,6.1698,6.1698,6.1698,6.1698,6.1698,6.1698,6.1698,6.1698,6.1698,6.1698,6.1698,6.1698,6.1698,6.1698,6.1698,6.1698,6.1698,6.1698,6.1698,6.1698,6.1698,6.1698,6.1698,6.1698,6.1698,6.1698,6.1698,6.1698,6.1698,6.1698,6.1698,6.1628,6.1569,6.1514,6.1216,6.0751,6.0065,5.9511,5.8973,5.8377,5.83,5.83,5.83,5.83,5.83,5.83,5.8569,5.8723,5.8723,5.9031,5.9435,5.9935,5.9954,6.0223,6.0781,6.08,6.08,6.08,6.08,6.08,6.08,6.08,6.08,4.5223,4.677,4.8267,4.9111,4.9916,5.054,5.065,5.0622,5.0824,5.1605,5.0548,5.0183,0.0,0.0,5.151,5.3973,5.4523,5.4986,5.5974,5.557,5.5213,0.0,0.0,0.0,0.0,0.0,0.0,5.7543,0.0,5.8499,6.0237,6.0373,6.0803,6.1679,6.1698,6.1698,6.1698,6.1698,6.1698,6.1698,6.1698,6.1698,6.1698,6.1698,6.1698,6.1698,6.1698,6.1698,6.1698,6.1698,6.1698,6.1698,6.1698,6.1698,6.1698,6.1698,6.1698,6.1698,6.1698,6.1698,6.1698,6.1698,6.1698,6.1698,6.1698,6.1698,6.1698,6.1698,6.1698,6.1698,6.1698,6.1698,6.1698,6.1698,6.1698,6.1698,6.1698,6.1696,6.1696,6.1698,6.1696,6.1657,6.1519,6.1209,6.0944,6.0816,6.08,6.0223,5.8627,5.8434,5.8434,5.8434,5.8434,5.8434,5.8434,5.9127,5.9569,5.9569,6.0339,6.08,6.08,6.08,6.08,6.08,6.08,6.08,6.08,6.08,6.08,6.08,6.08,6.0819,4.6913,4.8103,4.9264,5.076,5.0839,5.0736,5.1352,5.1075,5.0558,5.0125,5.0202,5.0164,0.0,0.0,0.0,5.2511,5.345,0.0,5.6038,5.623,0.0,5.5376,0.0,5.5064,5.5281,5.5103,0.0,0.0,5.6918,5.766,5.9339,6.0041,6.0803,6.1679,6.1698,6.1698,6.1698,6.1698,6.1698,6.1698,6.1698,6.1698,6.1698,6.1698,6.1698,6.1698,6.1698,6.1698,6.1698,6.1698,6.1698,6.1698,6.1698,6.1698,6.1698,6.1698,6.1698,6.1698,6.1698,6.1698,6.1698,6.1698,6.1698,6.1698,6.1698,6.1698,6.1698,6.1698,6.1698,6.1698,6.1698,6.1698,6.1698,6.1698,6.1698,6.1698,6.1698,6.1625,6.1584,6.1671,6.1625,6.1495,6.1304,6.112,6.0944,6.0816,6.08,6.0646,6.0223,6.0165,6.0165,6.0165,6.0165,6.0165,6.0165,6.0339,6.0473,6.0473,6.0685,6.08,6.08,6.08,6.08,6.08,6.08,6.08,6.08,6.08,6.08,6.08,6.08,6.1146,4.8211,4.9469,5.0545,5.116,5.1228,5.1095,5.0806,5.0433,4.9875,4.9009,4.8933,0.0,0.0,0.0,0.0,0.0,0.0,0.0,5.605,5.6094,5.5915,0.0,5.5532,0.0,5.5825,5.5513,5.5669,0.0,5.6606,5.7328,5.9005,5.9553,6.0393,6.1659,6.1698,6.1698,6.1698,6.1698,6.1698,6.1698,6.1698,6.1698,6.1698,6.1698,6.1698,6.1698,0.0,6.1698,6.1698,6.1698,6.1698,6.1698,6.1698,6.1698,6.1698,6.1698,6.1698,6.1698,6.1698,6.1698,6.1698,6.1698,6.1698,6.1698,6.1698,6.1698,6.1698,6.1698,6.1698,6.1698,6.1698,6.1698,6.1698,6.1698,6.1698,6.1698,6.1698,6.1634,6.1591,6.1618,6.1476,6.1317,6.1151,6.1055,6.0944,6.0816,6.08,6.08,6.08,6.08,6.08,6.08,6.08,6.08,6.08,6.08,6.08,6.08,6.08,6.08,6.08,6.08,6.08,6.08,6.08,6.08,6.08,6.08,6.08,6.08,6.1185,6.1639,4.9229,5.0663,5.1731,5.1029,5.1298,5.1356,4.9894,4.9394,4.8971,4.8125,0.0,4.7231,4.7836,4.8147,4.9149,5.1707,0.0,5.4133,5.6063,5.574,5.5629,5.6502,5.5925,5.5769,5.6528,5.5925,5.5788,5.6547,5.6606,5.7328,5.9005,5.92,6.002,6.164,6.1698,6.1698,6.1698,6.1698,6.1698,6.1698,6.1698,6.1698,6.1698,6.1698,6.1698,6.1698,6.1698,0.0,6.1698,6.1698,6.1698,6.1698,6.1698,6.1698,6.1698,6.1698,6.1698,6.1698,6.1698,6.1698,6.1698,6.1698,6.1698,6.1698,6.1698,6.1698,6.1698,6.1698,6.1698,6.1698,6.1698,6.1698,6.1698,6.1698,6.1693,6.1668,6.1668,6.1643,6.1598,6.1471,6.1285,6.1132,6.103,6.0993,6.0933,6.0816,6.08,6.08,6.08,6.08,6.08,6.08,6.08,6.08,6.08,6.08,6.08,6.08,6.08,6.08,6.08,6.08,6.08,6.08,6.08,6.08,6.08,6.08,6.0858,6.0993,6.1755,6.2216,5.0132,5.1114,5.1865,5.1731,5.1298,5.0818,5.0539,4.9356,0.0,0.0,0.0,4.774,4.7192,4.7761,4.9165,5.1838,0.0,0.0,0.0,0.0,5.6399,0.0,0.0,0.0,0.0,0.0,0.0,0.0,0.0,5.7328,5.9005,5.9788,6.0646,6.1679,6.1698,6.1698,6.1698,6.1698,6.1698,6.1698,6.1698,6.1698,6.1698,6.1698,6.1698,6.1698,6.1698,0.0,6.1698,6.1698,6.1698,6.1698,6.1698,6.1698,6.1698,6.1698,6.1698,6.1698,6.1698,6.1698,6.1698,6.1698,6.1698,6.1698,6.1698,6.1698,6.1698,6.1698,6.1698,6.1698,6.1698,6.1698,6.1698,6.1698,6.1621,6.1532,6.1532,6.1392,6.1259,6.1115,6.1055,6.1039,6.1002,6.0911,6.0827,6.0793,6.08,6.08,6.08,6.08,6.08,6.08,6.08,6.08,6.08,6.08,6.08,6.08,6.08,6.08,6.08,6.08,6.08,6.08,6.08,6.08,6.08,6.08,6.1166,6.1889,6.2043,6.2839,5.0508,5.1259,5.1788,5.1375,5.0991,5.0462,4.9548,0.0,0.0,0.0,0.0,4.6682,4.6297,0.0,0.0,0.0,0.0,0.0,0.0,0.0,0.0,0.0,0.0,0.0,0.0,0.0,0.0,0.0,0.0,5.7809,5.9026,6.0354,6.1271,6.1698,6.1698,6.1698,6.1698,6.1698,6.1698,6.1698,6.1698,6.1698,6.1698,6.1698,6.1698,6.1698,6.1698,0.0,6.1698,6.1698,6.1698,6.1698,6.1698,6.1698,6.1698,6.1698,6.1698,6.1698,6.1698,6.1698,6.1698,6.1698,6.1698,6.1698,6.1698,6.1698,6.1698,6.1698,6.1698,6.1698,6.1698,6.1698,6.1698,6.1698,6.1591,6.1476,6.1379,6.1218,6.107,6.102,6.0934,6.089,6.089,6.0842,6.08,6.08,6.08,6.08,6.08,6.08,6.08,6.08,6.08,6.08,6.08,6.08,6.08,6.08,6.08,6.08,6.08,6.08,6.08,6.08,6.08,6.08,6.08,6.1262,6.1697,6.212,6.2993,6.382,5.0643,5.1288,5.1712,5.0894,5.0558,5.001,4.8452,4.7336,0.0,0.0,4.5594,4.5671,4.5845,0.0,0.0,0.0,0.0,0.0,0.0,0.0,0.0,0.0,0.0,0.0,0.0,0.0,0.0,0.0,0.0,0.0,5.9326,6.0848,6.1707,6.1707,6.1705,6.1703,6.1703,6.1701,6.1698,6.1698,6.1698,6.1698,6.1698,6.1698,6.1698,6.1698,6.1698,0.0,0.0,6.1698,6.1698,6.1698,6.1698,6.1698,6.1698,6.1698,6.1698,6.1698,6.1698,6.1698,6.1698,6.1698,6.1698,6.1698,6.1698,6.1698,6.1698,6.1698,6.1698,6.1698,6.1698,6.1698,6.1674,6.1609,6.1513,6.1379,6.1167,6.1028,6.0954,6.0954,6.0877,6.08,6.08,6.08,6.08,6.08,6.08,6.08,6.08,6.08,6.08,6.08,6.08,6.08,6.08,6.08,6.08,6.08,6.08,6.08,6.08,6.08,6.08,6.08,6.08,6.0877,6.1069,6.1774,6.2293,6.2678,6.3993,6.4705,5.0593,5.1239,5.1712,5.0894,5.0087,4.926,4.8317,0.0,0.0,4.5614,4.5594,4.5845,4.6624,0.0,0.0,0.0,0.0,5.0344,0.0,0.0,0.0,0.0,0.0,0.0,0.0,0.0,0.0,0.0,0.0,0.0,6.0223,6.1179,6.1707,6.1707,6.1701,6.1696,6.1696,6.1705,6.1698,6.1698,6.1698,6.1698,6.1698,6.1698,6.1698,6.1698,6.1698,0.0,0.0,6.1698,6.1698,6.1698,6.1698,6.1698,6.1698,6.1698,6.1698,6.1698,6.1698,6.1698,6.1698,6.1698,6.1698,6.1698,6.1698,6.1698,6.1698,6.1698,6.1698,6.1698,6.1698,6.1698,6.1615,6.1322,6.124,6.1167,6.089,6.0839,6.0816,6.0816,6.0823,6.08,6.08,6.08,6.08,6.08,6.08,6.08,6.08,6.08,6.08,6.08,6.08,6.08,6.08,6.08,6.08,6.08,6.08,6.08,6.08,6.08,6.08,6.08,6.08,6.1185,6.1985,6.2062,6.2878,6.4378,6.4532,6.5013,5.0499,5.0923,5.1106,5.0789,4.9644,4.8529,4.8182,0.0,4.5594,4.5594,4.5594,4.571,4.6047,4.5825,0.0,0.0,0.0,0.0,0.0,0.0,0.0,0.0,0.0,0.0,0.0,0.0,0.0,0.0,0.0,0.0,5.9627,6.0951,6.1709,6.1709,6.1707,6.1705,6.1705,6.1701,6.1697,6.1692,6.1692,6.1707,6.1698,6.1698,6.1698,6.1698,6.1698,0.0,0.0,6.1698,6.1698,6.1698,6.1698,6.1698,6.1698,6.1698,6.1698,6.1698,6.1698,6.1698,6.1698,6.1698,6.1698,6.1698,6.1698,6.1698,6.1698,6.1698,6.1698,6.1698,6.1698,6.1634,6.1513,6.1259,6.1132,6.1028,6.0842,6.08,6.08,6.08,6.08,6.08,6.08,6.08,6.08,6.08,6.08,6.08,6.08,6.08,6.08,6.08,6.08,6.08,6.08,6.08,6.08,6.08,6.08,6.08,6.08,6.08,6.08,6.08,6.132,6.1755,6.2101,6.3108,6.3955,6.4609,6.5147,6.557,5.0086,5.0491,5.0712,5.0712,4.9394,4.8105,0.0,4.6797,4.5594,4.5594,4.5594,4.5594,4.5594,4.5594,4.5594,4.5594,0.0,4.6684,4.8289,0.0,0.0,0.0,0.0,0.0,0.0,0.0,0.0,0.0,0.0,0.0,5.8789,6.0408,6.142,6.1694,6.1693,6.1692,6.1692,6.1691,6.1705,6.1697,6.1701,6.1696,6.1698,6.1703,6.1703,6.1698,6.1698,0.0,0.0,6.1698,6.1698,6.1698,6.1698,6.1698,6.1698,6.1698,6.1698,6.1698,6.1698,6.1698,6.1698,6.1698,6.1698,6.1698,6.1698,6.1698,6.1698,6.1698,6.1668,6.1634,6.1634,6.1537,6.1373,6.1177,6.1062,6.0964,6.0839,6.08,6.08,6.08,6.08,6.08,6.08,6.08,6.08,6.08,6.08,6.08,6.08,6.08,6.08,6.08,6.08,6.08,6.08,6.08,6.08,6.08,6.08,6.08,6.08,6.105,6.1166,6.1166,6.2012,6.2598,6.2898,6.403,6.4742,6.5064,6.5627,6.5897,4.9287,5.0,5.0712,5.0712,4.9394,4.8105,0.0,4.6797,4.5594,4.5594,4.5594,4.5594,4.5594,4.5594,4.5594,4.5594,4.6317,0.0,4.8349,0.0,0.0,0.0,0.0,0.0,0.0,0.0,0.0,0.0,0.0,0.0,5.791,5.9492,6.0801,6.168,6.1698,6.1697,6.1697,6.1693,6.1705,6.1697,6.1705,6.1701,6.1701,6.1692,6.1692,0.0,0.0,0.0,0.0,6.1698,6.1698,6.1698,6.1698,6.1698,6.1698,6.1698,6.1698,6.1698,6.1698,6.1698,6.1698,6.1698,6.1698,6.1698,6.1698,6.1698,6.1698,6.1698,6.1595,6.149,6.149,6.1353,6.117,6.1028,6.1002,6.0964,6.0839,6.08,6.08,6.08,6.08,6.08,6.08,6.08,6.08,6.08,6.08,6.08,6.08,6.08,6.08,6.08,6.08,6.08,6.08,6.08,6.08,6.08,6.08,6.08,6.08,6.1639,6.2101,6.2101,6.2878,6.3785,6.4773,6.4652,6.5107,6.6078,6.5962,6.5897,4.8757,4.9518,4.974,4.9798,4.9394,4.8836,4.824,4.7259,4.6317,4.5729,4.5594,4.5594,4.5594,4.5594,4.5806,4.6394,4.6721,0.0,0.0,0.0,0.0,0.0,0.0,0.0,0.0,0.0,0.0,0.0,0.0,0.0,5.7871,5.8398,5.9336,6.0762,6.1386,6.1699,6.1699,6.1698,6.1697,6.1693,6.1695,6.1709,6.1692,6.1696,6.1692,0.0,0.0,0.0,0.0,6.1698,6.1698,6.1698,6.1698,6.1698,6.1698,6.1698,6.1698,6.1698,6.1698,6.1698,6.1698,6.1698,6.1698,6.1698,6.1698,6.1698,6.1671,6.1588,6.1532,6.1476,6.1336,6.1182,6.1055,6.1011,6.0933,6.0853,6.0804,6.08,6.08,6.08,6.08,6.08,6.08,6.08,6.08,6.08,6.08,6.08,6.08,6.08,6.08,6.08,6.08,6.08,6.08,6.08,6.08,6.08,6.08,6.1069,6.1658,6.1947,6.237,6.2916,6.3849,6.4434,6.4652,6.5402,6.5877,6.6098,6.5962,6.6186,4.7234,4.8396,4.8774,4.924,4.8914,4.8317,4.7778,4.7009,4.6163,4.5278,4.5114,4.5017,4.471,4.4671,4.4932,4.5778,4.5913,0.0,0.0,0.0,0.0,0.0,0.0,0.0,0.0,0.0,0.0,0.0,0.0,0.0,5.7383,5.7715,5.8379,5.9414,6.0605,6.1367,6.1699,6.1699,6.1699,6.1697,6.1698,6.1695,6.1697,6.1701,6.1696,0.0,0.0,0.0,0.0,6.1698,6.1698,6.1698,6.1698,6.1698,6.1698,6.1698,6.1698,6.1698,6.1698,6.1698,6.1698,6.1698,6.1698,6.1671,6.1541,6.1565,6.1618,6.1528,6.1409,6.1279,6.1167,6.1039,6.0923,6.0923,6.0856,6.08,6.08,6.08,6.08,6.08,6.08,6.08,6.08,6.08,6.08,6.08,6.08,6.08,6.08,6.08,6.08,6.08,6.08,6.08,6.08,6.08,6.08,6.08,6.1108,6.1559,6.2142,6.2725,6.3291,6.3865,6.4799,6.5265,6.5232,6.6023,6.6311,6.6108,6.5997,6.6381,0.0,4.6591,4.7597,4.8738,4.7962,4.6885,4.6808,4.6182,0.0,4.4412,4.4201,4.3989,4.3316,4.3143,4.3374,4.4239,0.0,0.0,0.0,0.0,0.0,0.0,0.0,0.0,0.0,0.0,0.0,0.0,0.0,0.0,5.6601,5.7363,5.7832,5.789,5.9414,6.0664,6.1601,6.1601,6.164,6.1697,6.1699,6.1697,6.1699,6.1707,6.1701,0.0,0.0,0.0,0.0,6.1698,6.1698,6.1698,6.1698,6.1698,6.1698,6.1698,6.1698,6.1698,6.1698,6.1698,6.1698,6.1698,6.1698,6.164,6.1322,6.1348,6.1505,6.1471,6.1237,6.0993,6.0983,6.089,6.08,6.08,6.08,6.08,6.08,6.08,6.08,6.08,6.08,6.08,6.08,6.08,6.08,6.08,6.08,6.08,6.08,6.08,6.08,6.08,6.08,6.08,6.08,6.08,6.0819,6.0877,6.1658,6.2216,6.2462,6.3838,6.4714,6.4889,6.5682,6.6185,6.6344,6.6495,6.6425,6.6129,6.6099,6.6494,4.2193,0.0,4.4968,4.6119,4.6646,4.674,0.0,4.5748,4.519,4.3682,0.0,4.3508,4.3932,4.3508,4.3585,0.0,0.0,0.0,0.0,0.0,0.0,0.0,0.0,0.0,0.0,0.0,0.0,0.0,0.0,5.6601,5.6601,5.6797,5.7207,5.7871,5.8281,5.9199,6.0683,6.0703,6.1035,6.1699,6.1699,6.1698,6.1707,6.1708,6.1701,0.0,0.0,0.0,6.1698,6.1698,6.1698,6.1698,6.1698,6.1698,6.1698,6.1698,6.1698,6.1698,6.1698,6.1698,6.1698,6.1698,6.1698,6.1666,6.1471,6.1452,6.1456,6.1186,6.1066,6.0983,6.0877,6.0827,6.08,6.08,6.08,6.08,6.08,6.08,6.08,6.08,6.08,6.08,6.08,6.08,6.08,6.08,6.08,6.08,6.08,6.08,6.08,6.08,6.08,6.08,6.08,6.08,6.1069,6.1755,6.1985,6.2736,6.4155,6.4549,6.509,6.5779,6.5992,6.6295,6.667,6.6476,6.6406,6.6484,6.6212,6.687,4.0247,4.1976,4.3836,4.4993,4.5496,4.5586,4.5105,4.472,0.0,0.0,0.0,0.0,0.0,0.0,0.0,0.0,0.0,0.0,0.0,0.0,0.0,0.0,0.0,0.0,0.0,0.0,0.0,0.0,0.0,5.6601,5.6601,5.6601,5.6816,5.7285,5.7305,5.8125,5.9824,5.9844,6.0273,6.1094,6.1094,6.1307,6.1709,6.1709,6.1701,0.0,0.0,0.0,6.1698,6.1698,6.1698,6.1698,6.1698,6.1698,6.1698,6.1698,6.1698,6.1698,6.1698,6.1698,6.1696,6.1628,6.1618,6.1576,6.1343,6.1258,6.123,6.1057,6.0954,6.089,6.0816,6.08,6.08,6.08,6.08,6.08,6.08,6.08,6.08,6.08,6.08,6.08,6.08,6.08,6.08,6.08,6.08,6.0935,6.1351,6.105,6.0954,6.1339,6.1031,6.0954,6.1358,6.1453,6.1668,6.2062,6.2832,6.3764,6.4886,6.5238,6.5692,6.633,6.633,6.6483,6.6795,6.6618,6.6546,6.6609,6.682,6.7527,3.9127,4.113,4.334,4.4205,4.4269,4.4085,4.3951,0.0,0.0,0.0,0.0,0.0,0.0,0.0,0.0,0.0,0.0,0.0,0.0,0.0,0.0,0.0,0.0,0.0,0.0,0.0,0.0,0.0,0.0,5.6601,5.6601,5.6601,5.6601,5.6601,5.6601,5.7305,5.8789,5.8945,5.9414,6.0215,6.0215,6.0663,6.1494,6.1494,6.1564,6.1698,0.0,0.0,6.1698,6.1698,6.1698,6.1698,6.1698,6.1698,6.1698,6.1698,6.1698,6.1698,6.1698,6.1698,6.1671,6.1541,6.149,6.1431,6.1098,6.1002,6.0993,6.0983,6.0899,6.08,6.08,6.08,6.08,6.08,6.08,6.08,6.08,6.08,6.08,6.08,6.0916,6.0954,6.0819,6.1012,6.1146,6.1012,6.1089,6.1454,6.2197,6.1627,6.1454,6.2197,6.1608,6.1473,6.2224,6.2504,6.2604,6.2517,6.3858,6.4868,6.5302,6.5868,6.6322,6.6615,6.66,6.6661,6.6795,6.6795,6.6749,6.6654,6.7501,6.817,3.9577,4.0999,4.2224,4.1939,4.2575,4.3085,4.2354,0.0,0.0,0.0,0.0,0.0,0.0,0.0,0.0,0.0,0.0,0.0,0.0,0.0,0.0,0.0,0.0,0.0,0.0,0.0,0.0,0.0,0.0,5.6601,5.6601,5.6601,5.6601,5.6601,5.6601,5.6738,5.6992,5.7734,5.8535,5.9375,5.9375,5.9803,6.0595,6.0595,6.0996,6.1698,0.0,6.1698,6.1698,6.1698,6.1698,6.1698,6.1698,6.1698,6.1698,6.1698,6.1698,6.1698,6.1698,6.1698,6.1671,6.1541,6.149,6.1431,6.1098,6.1002,6.0983,6.0856,6.0816,6.08,6.08,6.08,6.08,6.08,6.08,6.08,6.08,6.08,6.08,6.08,6.1408,6.1678,6.0935,6.1973,6.2685,6.2005,6.2474,6.2974,6.3108,6.3012,6.2974,6.3108,6.3012,6.2974,6.3108,6.3818,6.4278,6.4384,6.478,6.5443,6.6329,6.6474,6.6605,6.6762,6.6657,6.6661,6.6795,6.6795,6.6792,6.6781,6.7554,6.8294,3.9191,4.0364,4.1387,4.1203,4.2441,4.3643,4.3239,0.0,0.0,0.0,0.0,0.0,0.0,0.0,0.0,0.0,0.0,0.0,0.0,0.0,0.0,0.0,0.0,0.0,0.0,0.0,0.0,0.0,0.0,0.0,5.6601,5.6601,5.6601,5.6601,5.6601,5.6601,5.6601,5.6992,5.7637,5.8496,5.8496,5.8924,5.9717,6.0186,6.0627,6.1017,0.0,6.1698,6.1698,6.1698,6.1698,6.1698,6.1698,6.1698,6.1698,6.1698,6.1698,6.1698,6.1698,6.1698,6.1671,6.1541,6.1431,6.1305,6.1064,6.0944,6.0888,6.0816,6.08,6.08,6.08,6.08,6.08,6.08,6.08,6.08,6.08,6.08,6.08,6.08,6.1108,6.1416,6.1493,6.2127,6.2666,6.2743,6.307,6.3462,6.3935,6.3589,6.3481,6.3955,6.3589,6.3493,6.3955,6.4452,6.4941,6.546,6.5763,6.6112,6.657,6.6666,6.6746,6.6795,6.6746,6.6746,6.6795,6.6795,6.6795,6.6834,6.8112,6.8849,3.9016,3.9968,4.0948,4.1233,0.0,4.3778,4.397,0.0,0.0,0.0,0.0,0.0,0.0,0.0,0.0,0.0,0.0,0.0,0.0,0.0,0.0,0.0,0.0,0.0,0.0,0.0,0.0,0.0,0.0,0.0,5.6601,5.6601,5.6601,5.6601,5.6601,5.6601,5.6601,5.6601,5.6933,5.7598,5.7597,5.8026,5.8839,5.9482,6.002,6.0432,6.1115,6.1503,6.1698,6.1698,6.1698,6.1698,6.1698,6.1698,6.1698,6.1698,6.1698,6.1698,6.1698,6.1698,6.1671,6.1541,6.1359,6.1158,6.1037,6.0911,6.08,6.08,6.08,6.08,6.08,6.08,6.08,6.08,6.08,6.08,6.08,6.0954,6.1089,6.1089,6.1416,6.1839,6.23,6.2716,6.3128,6.3551,6.3782,6.4147,6.482,6.432,6.4166,6.4839,6.432,6.4185,6.4859,6.5035,6.5393,6.61,6.6432,6.6605,6.6648,6.6749,6.6795,6.6795,6.6795,6.6795,6.6795,6.6795,6.6893,6.7146,6.8688,6.9423,3.9682,4.0415,4.1099,4.1921,4.2048,0.0,4.3008,4.2527,0.0,4.2931,0.0,0.0,0.0,0.0,0.0,0.0,0.0,0.0,0.0,0.0,0.0,0.0,0.0,0.0,0.0,0.0,0.0,0.0,0.0,0.0,5.6601,5.6601,5.6601,5.6601,5.6601,5.6601,5.6601,5.6601,5.6621,5.6699,5.6698,5.7145,5.7999,5.7992,5.8863,6.0393,6.0471,6.0959,6.1698,6.1698,6.1698,6.1698,6.1698,6.1698,6.1698,6.1698,6.1698,6.1698,6.1698,6.1698,6.1671,6.1541,6.1359,6.1158,6.1037,6.0911,6.08,6.08,6.08,6.08,6.08,6.08,6.08,6.08,6.08,6.08,6.08,6.1435,6.2005,6.2005,6.3262,6.4089,6.3339,6.4551,6.5359,6.4628,6.5186,6.5743,6.5801,6.5743,6.5743,6.5801,6.5743,6.5743,6.5801,6.5942,6.609,6.6264,6.6483,6.6657,6.6787,6.6795,6.6795,6.6795,6.6795,6.6795,6.6795,6.6795,6.7224,6.8025,6.8962,6.9837,3.9076,3.9754,4.0431,4.1298,4.2077,0.0,0.0,4.3585,4.3605,0.0,0.0,0.0,0.0,0.0,0.0,0.0,0.0,0.0,0.0,0.0,0.0,0.0,0.0,0.0,0.0,0.0,0.0,0.0,0.0,0.0,5.6601,5.6601,5.6601,5.6601,5.6601,5.6601,5.6601,5.6601,5.6601,5.6601,5.66,5.6771,5.7114,5.7579,5.8158,5.8831,5.9924,6.0588,6.0939,6.1483,6.1698,6.1698,6.1698,6.1698,6.1698,6.1698,6.1698,6.1698,6.1698,6.1657,6.1545,6.1365,6.1211,6.1055,6.0932,6.0842,6.08,6.08,6.08,6.08,6.08,6.08,6.08,6.08,6.08,6.0954,6.1493,6.187,6.2255,6.2743,6.3358,6.3858,6.407,6.4666,6.5166,6.5378,6.5686,6.5897,6.5897,6.5897,6.5897,6.5897,6.5897,6.5897,6.5897,6.6108,6.6243,6.6307,6.6489,6.6657,6.6795,6.6795,6.6795,6.6795,6.6795,6.6795,6.6795,6.6795,6.7244,6.8122,6.8981,6.9879,3.8535,3.9258,4.0108,4.0986,0.0,0.0,4.4047,4.4509,4.4951,0.0,0.0,0.0,0.0,0.0,0.0,0.0,0.0,0.0,0.0,0.0,0.0,0.0,0.0,0.0,0.0,0.0,0.0,0.0,0.0,0.0,0.0,5.6601,5.6601,5.6601,5.6601,5.6601,5.6601,5.6601,5.6601,5.6599,5.6598,5.6594,5.6621,5.7164,5.7551,5.7875,5.9358,6.0159,6.0471,6.1349,6.1698,6.1698,6.1698,6.1698,6.1698,6.1698,6.1698,6.1698,6.1698,6.1602,6.1481,6.1342,6.1159,6.0974,6.089,6.0831,6.08,6.08,6.08,6.08,6.08,6.08,6.08,6.08,6.1012,6.1358,6.1966,6.2524,6.3051,6.3608,6.3935,6.432,6.4916,6.5013,6.5205,6.5801,6.5897,6.5897,6.5897,6.5897,6.5897,6.5897,6.5933,6.5962,6.5962,6.6176,6.6329,6.6379,6.6527,6.6657,6.6795,6.6795,6.6795,6.6795,6.6795,6.6795,6.6795,6.6795,6.7381,6.8513,6.9118,7.0016,3.8278,3.9066,4.0301,0.0,0.0,0.0,4.3912,4.4979,4.5845,0.0,0.0,0.0,0.0,0.0,0.0,0.0,0.0,0.0,0.0,0.0,0.0,0.0,0.0,0.0,0.0,0.0,0.0,0.0,0.0,0.0,0.0,5.6601,5.6601,5.6582,5.6601,5.6601,5.6601,5.6601,5.6601,5.6599,5.6595,5.6609,5.6602,5.6591,5.7035,5.7836,5.8714,5.9573,6.0451,6.1349,6.1698,6.1698,6.1698,6.1698,6.1698,6.1698,6.1698,6.1698,6.1698,6.1618,6.151,6.151,6.1265,6.0993,6.0993,6.0911,6.08,6.08,6.08,6.08,6.08,6.08,6.08,6.08,6.1466,6.2101,6.212,6.3416,6.4589,6.4609,6.5301,6.5897,6.5897,6.5897,6.5897,6.5897,6.5897,6.5897,6.5897,6.5897,6.5897,6.5897,6.6008,6.6108,6.6108,6.6217,6.6399,6.6585,6.6595,6.6661,6.6795,6.6795,6.6795,6.6795,6.6795,6.6795,6.6795,6.6795,6.7693,6.9391,6.9391,7.0328,3.7979,3.8712,0.0,0.0,0.0,0.0,0.0,4.504,0.0,0.0,0.0,0.0,0.0,0.0,0.0,0.0,0.0,0.0,0.0,0.0,0.0,0.0,0.0,0.0,0.0,0.0,0.0,0.0,0.0,0.0,0.0,5.6269,5.6328,5.5703,5.6289,5.6601,5.6601,5.6601,5.6601,5.6595,5.6594,5.6609,5.6602,5.6591,5.6723,5.6996,5.7836,5.8675,5.9592,6.1093,6.1698,6.1698,6.1698,6.1698,6.1698,6.1698,6.1698,6.1698,6.1698,6.1526,6.1292,6.1292,6.1098,6.0856,6.0856,6.0819,6.08,6.08,6.08,6.08,6.08,6.08,6.08,6.08,6.0993,6.1512,6.2685,6.3339,6.4051,6.5282,6.5724,6.5897,6.5897,6.5897,6.5897,6.5897,6.5897,6.5897,6.5897,6.5897,6.5897,6.5897,6.6008,6.6108,6.6108,6.6341,6.6538,6.6609,6.6697,6.6759,6.6795,6.6795,6.6795,6.6795,6.6795,6.6795,6.6795,6.6795,6.7693,6.9391,6.9391,7.0328,3.8271,3.9271,0.0,0.0,0.0,0.0,0.0,0.0,0.0,0.0,0.0,0.0,0.0,0.0,0.0,0.0,0.0,0.0,0.0,0.0,0.0,0.0,0.0,0.0,0.0,0.0,0.0,0.0,0.0,0.0,0.0,5.5273,5.5488,5.5312,5.5801,5.625,5.6601,5.6601,5.6601,5.6598,5.6595,5.6591,5.6606,5.6593,5.6606,5.6645,5.7445,5.8499,5.971,6.0744,6.1388,6.1698,6.1698,6.1698,6.1698,6.1698,6.1666,6.1625,6.1625,6.1406,6.1108,6.1108,6.0983,6.08,6.08,6.08,6.08,6.08,6.08,6.08,6.08,6.08,6.08,6.08,6.105,6.1685,6.3012,6.357,6.4224,6.5628,6.5897,6.5897,6.5897,6.5897,6.5897,6.5897,6.5897,6.5897,6.5897,6.5897,6.5916,6.5967,6.6108,6.6202,6.629,6.6538,6.6674,6.6674,6.6756,6.6795,6.6795,6.6795,6.6795,6.6795,6.6795,6.6795,6.6795,6.6795,6.7693,6.9391,6.9391,7.0328,3.887,0.0,0.0,0.0,0.0,0.0,0.0,0.0,0.0,0.0,0.0,0.0,0.0,0.0,0.0,0.0,0.0,0.0,0.0,0.0,0.0,0.0,0.0,0.0,0.0,0.0,0.0,0.0,0.0,0.0,0.0,5.3945,5.4336,5.5039,5.5137,5.5605,5.6465,5.6484,5.6523,5.6601,5.6597,5.6593,5.6592,5.6595,5.6606,5.6645,5.7445,5.8734,6.0295,6.0373,6.092,6.1698,6.1698,6.1698,6.1698,6.1693,6.1595,6.151,6.1481,6.1278,6.1002,6.1002,6.0911,6.08,6.08,6.08,6.08,6.08,6.08,6.08,6.08,6.08,6.08,6.08,6.1408,6.2224,6.3108,6.3916,6.4762,6.5724,6.5897,6.5897,6.5897,6.5897,6.5897,6.5897,6.5897,6.5897,6.5897,6.5897,6.5958,6.6076,6.6202,6.6351,6.6569,6.6709,6.679,6.6795,6.6795,6.6795,6.6795,6.6795,6.6795,6.6795,6.6795,6.6795,6.6795,6.6873,6.7771,6.9391,6.9489,7.0406,3.8727,3.9876,0.0,0.0,0.0,0.0,0.0,0.0,0.0,0.0,0.0,0.0,0.0,0.0,0.0,0.0,0.0,0.0,0.0,0.0,0.0,0.0,0.0,0.0,0.0,0.0,0.0,0.0,0.0,0.0,5.2931,5.3591,5.3769,5.3262,5.3926,5.4707,5.5566,5.5586,5.5918,0.0,5.6596,5.661,5.6603,5.6593,5.6606,5.6645,5.7445,5.8402,5.9436,6.0119,6.092,6.1698,6.1698,6.1698,6.1693,6.1584,6.1528,6.1481,6.131,6.1151,6.1002,6.1002,6.0911,6.08,6.08,6.08,6.08,6.08,6.08,6.08,6.08,6.08,6.08,6.08,6.0935,6.1493,6.2993,6.3455,6.4051,6.559,6.5897,6.5897,6.5897,6.5897,6.5897,6.5897,6.5897,6.5897,6.5897,6.5897,6.5903,6.5946,6.6065,6.6193,6.6351,6.6544,6.6697,6.6792,6.6795,6.6795,6.6795,6.6795,6.6795,6.6795,6.6795,6.6795,6.6795,6.7498,6.8357,6.9411,7.0094,7.0992,3.8795,0.0,0.0,0.0,0.0,0.0,0.0,0.0,0.0,0.0,0.0,0.0,0.0,0.0,0.0,0.0,0.0,0.0,0.0,0.0,0.0,0.0,0.0,0.0,0.0,0.0,0.0,0.0,0.0,5.2425,5.1999,5.2447,5.2712,5.2695,5.3144,5.3808,5.4668,5.4645,5.507,5.5924,5.5853,5.6046,5.6461,5.6558,5.6606,5.6626,5.7035,5.7933,5.9141,5.9592,6.0549,6.1698,6.1698,6.1698,6.1696,6.1625,6.148,6.1342,6.1233,6.1062,6.0911,6.0911,6.0864,6.08,6.08,6.08,6.08,6.08,6.08,6.08,6.08,6.08,6.08,6.08,6.1108,6.1762,6.3031,6.3628,6.432,6.5628,6.5897,6.5897,6.5897,6.5897,6.5897,6.5897,6.5897,6.5897,6.5897,6.5897,6.5928,6.599,6.6054,6.6194,6.6419,6.6538,6.6657,6.6792,6.6795,6.6795,6.6795,6.6795,6.6795,6.6795,6.6795,6.6795,6.6795,6.7673,6.8552,6.9411,7.0289,7.1167,3.8717,0.0,4.3514,0.0,0.0,0.0,0.0,0.0,0.0,0.0,0.0,0.0,0.0,0.0,0.0,0.0,0.0,0.0,0.0,0.0,0.0,0.0,0.0,0.0,0.0,0.0,0.0,0.0,0.0,5.1211,5.1269,5.1288,5.1659,5.2418,5.2459,5.2869,5.3726,5.3686,5.4096,5.4953,5.4998,5.5439,5.627,5.6469,5.6577,5.6606,5.6606,5.7465,5.889,5.9044,6.0015,6.1451,6.1637,6.1668,6.1612,6.1612,6.1413,6.1162,6.114,6.0983,6.08,6.08,6.08,6.08,6.08,6.08,6.08,6.08,6.08,6.08,6.08,6.08,6.08,6.08,6.157,6.2493,6.3166,6.3993,6.4859,6.5724,6.5897,6.5897,6.5897,6.5897,6.5897,6.5897,6.5897,6.5897,6.5897,6.5897,6.5946,6.6054,6.6065,6.6205,6.6521,6.6544,6.6619,6.6792,6.6795,6.6795,6.6795,6.6795,6.6795,6.6795,6.6795,6.6795,6.6795,6.783,6.8708,6.9411,7.0445,7.1304,0.0,0.0,4.3532,0.0,0.0,0.0,0.0,0.0,0.0,0.0,0.0,0.0,0.0,0.0,0.0,0.0,0.0,0.0,0.0,0.0,0.0,0.0,0.0,0.0,0.0,0.0,0.0,0.0,5.1114,5.1114,5.1131,5.1245,5.134,5.1392,5.1462,5.1874,5.2682,5.2691,5.3116,5.3993,5.4675,5.5397,5.6128,5.6266,5.6443,5.6606,5.6606,5.7113,5.8031,5.8792,5.9619,6.0499,6.1367,6.151,6.1266,6.1266,6.1155,6.1011,6.089,6.0839,6.08,6.08,6.08,6.08,6.08,6.08,6.08,6.08,6.08,6.08,6.08,6.08,6.08,6.08,6.1993,6.3166,6.3281,6.3993,6.4859,6.5724,6.5897,6.5897,6.5897,6.5897,6.5897,6.5897,6.5897,6.5897,6.5897,6.5897,6.591,6.5909,6.594,6.6041,6.6314,6.6344,6.6476,6.679,6.6795,6.6795,6.6795,6.6795,6.6795,6.6795,6.6795,6.6795,6.6795,6.8435,6.9294,6.943,7.107,7.189,3.9438,4.157,4.357,0.0,0.0,0.0,0.0,0.0,0.0,0.0,0.0,0.0,0.0,0.0,0.0,0.0,0.0,0.0,0.0,0.0,0.0,0.0,0.0,0.0,0.0,0.0,0.0,0.0,5.103,5.1024,5.1099,5.1157,5.1191,5.1203,5.1236,5.1411,5.1768,5.1736,5.2319,5.3532,5.4369,5.5207,5.599,5.6044,5.6166,5.6333,5.652,5.6959,5.7643,5.8605,5.943,6.0174,6.1066,6.1334,6.1206,6.1206,6.1128,6.0983,6.0933,6.0856,6.08,6.08,6.08,6.08,6.08,6.08,6.08,6.08,6.08,6.08,6.08,6.08,6.0916,6.1408,6.2435,6.3435,6.3916,6.4705,6.5436,6.582,6.5897,6.5897,6.5897,6.5897,6.5897,6.5897,6.5897,6.5897,6.5897,6.5897,6.5897,6.5897,6.5897,6.6005,6.6283,6.6295,6.6438,6.679,6.6795,6.6795,6.6795,6.6795,6.6795,6.6795,6.6795,6.6795,6.6795,6.8552,6.9391,6.943,7.1187,7.2007,0.0,0.0,4.277,4.4957,0.0,0.0,0.0,0.0,0.0,0.0,0.0,0.0,0.0,0.0,0.0,0.0,0.0,0.0,0.0,0.0,0.0,0.0,0.0,0.0,0.0,0.0,0.0,0.0,5.0966,5.0932,5.1043,5.1081,5.1109,5.1128,5.1156,5.1156,5.1128,5.1074,5.1818,5.3311,5.3947,5.4814,5.5844,5.5889,5.5938,5.602,5.6333,5.6708,5.7146,5.8129,5.8945,5.9699,6.0558,6.0988,6.1092,6.1132,6.1053,6.0944,6.0944,6.0869,6.08,6.08,6.08,6.08,6.08,6.08,6.08,6.08,6.08,6.08,6.08,6.08,6.1012,6.1889,6.2704,6.3608,6.4686,6.5436,6.5897,6.5897,6.5897,6.5897,6.5897,6.5897,6.5897,6.5897,6.5897,6.5897,6.5897,6.5897,6.5897,6.5897,6.5897,6.5982,6.6217,6.6243,6.6373,6.6658,6.6666,6.6693,6.6753,6.6753,6.6762,6.6795,6.6795,6.6795,6.6795,6.8337,6.9176,6.943,7.0953,7.1792,0.0,4.0151,0.0,4.3807,0.0,0.0,0.0,0.0,0.0,0.0,0.0,0.0,0.0,0.0,0.0,0.0,0.0,0.0,0.0,0.0,0.0,0.0,0.0,0.0,0.0,0.0,0.0,0.0,5.0906,5.0906,5.0914,5.103,5.105,5.091,5.1043,5.103,5.0929,5.0901,5.1715,5.3311,5.335,5.4187,5.5716,5.5845,5.5836,5.5747,5.6013,5.6149,5.6233,5.7127,5.7911,5.8688,5.966,6.0377,6.0831,6.0964,6.0923,6.0804,6.0804,6.0812,6.08,6.08,6.08,6.08,6.08,6.08,6.08,6.08,6.08,6.08,6.08,6.08,6.1012,6.1889,6.2704,6.3782,6.5474,6.5859,6.5897,6.5897,6.5897,6.5897,6.5897,6.5897,6.5897,6.5897,6.5897,6.5897,6.5897,6.5897,6.5897,6.5897,6.5897,6.595,6.6108,6.6109,6.6176,6.6329,6.6337,6.6419,6.6595,6.66,6.6666,6.6795,6.6795,6.6795,6.6795,6.7712,6.8591,6.9411,7.0348,7.1206,0.0,0.0,0.0,4.2608,0.0,0.0,0.0,0.0,0.0,0.0,0.0,0.0,0.0,0.0,0.0,0.0,0.0,0.0,0.0,0.0,0.0,0.0,0.0,0.0,0.0,0.0,0.0,0.0,0.0,5.0898,5.0898,5.0959,5.094,5.0898,5.0959,5.0952,5.0905,5.0863,5.1391,5.2473,5.3032,5.3869,5.4953,5.5517,5.5738,5.5714,5.5789,5.5835,5.5922,5.6875,5.7696,5.8468,5.934,6.0147,6.0812,6.0845,6.0842,6.08,6.08,6.08,6.08,6.08,6.08,6.08,6.08,6.08,6.08,6.08,6.08,6.08,6.08,6.1235,6.1985,6.3358,6.4339,6.5147,6.5763,6.5897,6.5897,6.5897,6.5897,6.5897,6.5897,6.5897,6.5897,6.5897,6.5897,6.5897,6.5897,6.5897,6.5897,6.5897,6.5897,6.595,6.6088,6.6108,6.6157,6.6279,6.6295,6.6337,6.6393,6.6532,6.661,6.6666,6.6756,6.6795,6.6795,6.7673,6.8552,6.9411,7.0289,7.1104,3.6221,0.0,0.0,0.0,0.0,0.0,0.0,0.0,0.0,0.0,0.0,0.0,0.0,0.0,0.0,0.0,0.0,0.0,0.0,0.0,0.0,0.0,0.0,0.0,0.0,0.0,0.0,0.0,0.0,0.0,5.0898,5.0898,5.089,5.0901,5.0885,5.0861,5.0838,5.0784,5.1172,5.1963,5.2541,5.3406,5.4511,5.5049,5.5434,5.5703,5.5703,5.5703,5.5752,5.6416,5.733,5.8357,5.8896,5.9781,6.08,6.08,6.08,6.08,6.08,6.08,6.08,6.08,6.08,6.08,6.08,6.08,6.08,6.08,6.08,6.0858,6.1146,6.207,6.3224,6.4339,6.5263,6.5897,6.5897,6.5897,6.5897,6.5897,6.5897,6.5897,6.5897,6.5897,6.5897,6.5897,6.5897,6.5897,6.5897,6.5897,6.5897,6.5897,6.5897,6.5933,6.6039,6.603,6.6076,6.6157,6.6167,6.6194,6.6226,6.6356,6.6445,6.6495,6.659,6.6627,6.6627,6.7278,6.8186,6.9318,6.9857,7.0644,0.0,0.0,0.0,0.0,0.0,0.0,0.0,0.0,0.0,0.0,0.0,0.0,0.0,0.0,0.0,0.0,0.0,0.0,0.0,0.0,0.0,0.0,0.0,0.0,0.0,0.0,0.0,0.0,4.9707,5.0055,5.0859,5.0898,5.0901,5.0899,5.0838,5.0775,5.0701,5.0701,5.1097,5.1865,5.1885,5.2799,5.4453,5.4491,5.4934,5.5703,5.5703,5.5703,5.5703,5.5703,5.6722,5.83,5.83,5.9319,6.08,6.08,6.08,6.08,6.08,6.08,6.08,6.08,6.08,6.08,6.08,6.08,6.08,6.08,6.0819,6.1031,6.1947,6.3378,6.4609,6.4628,6.5282,6.5897,6.5897,6.5897,6.5897,6.5897,6.5897,6.5897,6.5897,6.5897,6.5897,6.5897,6.5897,6.5897,6.5897,6.5897,6.5897,6.5897,6.5897,6.5897,6.5897,6.5897,6.5897,6.5897,6.5897,6.595,6.6088,6.6108,6.6167,6.6279,6.6307,6.6295,6.6295,6.6489,6.7442,6.9098,6.9004,6.9861,3.4436,0.0,0.0,0.0,0.0,0.0,0.0,0.0,0.0,0.0,0.0,0.0,0.0,0.0,0.0,0.0,0.0,0.0,0.0,0.0,0.0,0.0,0.0,0.0,0.0,0.0,0.0,0.0,4.9707,5.0055,5.0859,5.0893,5.0888,5.0899,5.0784,5.071,5.0701,5.0702,5.0818,5.1029,5.1625,5.2481,5.3587,5.4203,5.4934,5.5703,5.5703,5.5703,5.5703,5.5703,5.6722,5.83,5.83,5.9319,6.08,6.08,6.08,6.08,6.08,6.08,6.08,6.08,6.08,6.08,6.08,6.08,6.08,6.08,6.1243,6.2082,6.3531,6.4243,6.4762,6.5397,6.5724,6.5897,6.5897,6.5897,6.5897,6.5897,6.5897,6.5897,6.5897,6.5897,6.5897,6.5897,6.5897,6.5897,6.5897,6.5897,6.5897,6.5897,6.5897,6.5897,6.5897,6.5897,6.5897,6.5897,6.5897,6.5916,6.595,6.6044,6.6119,6.6157,6.6251,6.6295,6.6295,6.6358,6.7274,6.8978,7.0068,7.0825,3.4618,0.0,0.0,0.0,0.0,0.0,0.0,4.1345,0.0,0.0,0.0,0.0,0.0,0.0,0.0,0.0,0.0,0.0,0.0,0.0,0.0,0.0,0.0,0.0,0.0,4.6561,4.7134,4.8508,4.8952,4.968,5.0835,5.0855,5.0821,5.0821,5.073,5.0692,5.0692,5.0702,5.0712,5.0712,5.1183,5.2029,5.3222,5.3722,5.4607,5.5703,5.5703,5.5703,5.5703,5.5703,5.6722,5.83,5.83,5.9319,6.08,6.08,6.08,6.08,6.08,6.08,6.08,6.08,6.08,6.08,6.08,6.08,6.08,6.08,6.1666,6.2916,6.4243,6.4878,6.5263,6.5782,6.5897,6.5897,6.5897,6.5897,6.5897,6.5897,6.5897,6.5897,6.5897,6.5897,6.5897,6.5897,6.5897,6.5897,6.5897,6.5897,6.5897,6.5897,6.5897,6.5897,6.5897,6.5897,6.5897,6.5897,6.5897,6.5897,6.5897,6.5986,6.6027,6.6027,6.6098,6.6293,6.6622,6.6727,6.7618,6.9255,7.0487,7.1065,3.5403,3.6557,0.0,0.0,0.0,0.0,4.1041,4.1029,4.1235,0.0,0.0,0.0,0.0,0.0,0.0,0.0,0.0,0.0,0.0,0.0,0.0,0.0,0.0,0.0,4.5923,4.5865,4.6155,4.7018,4.7985,4.9181,5.0668,5.0708,5.0701,5.0701,5.0693,5.0712,5.0712,5.0712,5.0712,5.0712,5.0712,5.1568,5.3203,5.3203,5.4107,5.5703,5.5703,5.5703,5.5703,5.5703,5.6722,5.83,5.83,5.9319,6.08,6.08,6.08,6.08,6.08,6.08,6.08,6.08,6.08,6.08,6.08,6.08,6.0839,6.1031,6.2147,6.3531,6.4493,6.532,6.5897,6.5897,6.5897,6.5897,6.5897,6.5897,6.5897,6.5897,6.5897,6.5897,6.5897,6.5897,6.5897,6.5897,6.5897,6.5897,6.5897,6.5897,6.5897,6.5897,6.5897,6.5897,6.5897,6.5897,6.5897,6.5897,6.5897,6.5897,6.5897,6.5897,6.5897,6.5897,6.5897,6.634,6.7244,6.7417,6.8274,6.9725,7.0533,7.0898,3.5998,3.6818,3.7698,0.0,0.0,0.0,0.0,3.9269,3.9977,0.0,0.0,0.0,0.0,0.0,0.0,0.0,0.0,0.0,0.0,0.0,0.0,0.0,0.0,0.0,4.6786,4.6213,4.6155,4.7018,4.8516,4.9489,4.9749,5.0362,5.0701,5.0701,5.0693,5.0712,5.0712,5.0712,5.0712,5.0712,5.0712,5.1568,5.3203,5.3203,5.4107,5.5703,5.5703,5.5703,5.5703,5.5703,5.6722,5.83,5.83,5.9319,6.08,6.08,6.08,6.08,6.08,6.08,6.08,6.08,6.08,6.08,6.08,6.08,6.1069,6.2435,6.3051,6.3666,6.5243,6.5763,6.5897,6.5897,6.5897,6.5897,6.5897,6.5897,6.5897,6.5897,6.5897,6.5897,6.5897,6.5897,6.5897,6.5897,6.5897,6.5897,6.5897,6.5897,6.5897,6.5897,6.5897,6.5897,6.5897,6.5897,6.5897,6.5897,6.5897,6.5897,6.5897,6.5897,6.5897,6.5897,6.5897,6.6647,6.8148,6.82,6.8719,6.9725,7.0533,7.0898,3.6703,3.7414,3.8194,3.8365,0.0,0.0,0.0,0.0,0.0,0.0,0.0,0.0,0.0,0.0,0.0,0.0,0.0,0.0,0.0,0.0,0.0,0.0,0.0,0.0,4.7657,4.6965,4.6622,4.7024,4.7808,4.8624,4.9465,4.9844,5.024,5.0683,5.0702,5.0712,5.0712,5.0712,5.0712,5.0712,5.0712,5.1568,5.3203,5.3203,5.4107,5.5703,5.5703,5.5703,5.5703,5.5703,5.6722,5.83,5.83,5.9319,6.08,6.08,6.08,6.08,6.08,6.08,6.08,6.08,6.08,6.08,6.08,6.08,6.1146,6.2839,6.3288,6.3705,6.5455,6.5897,6.5897,6.5897,6.5897,6.5897,6.5897,6.5897,6.5897,6.5897,6.5897,6.5897,6.5897,6.5897,6.5897,6.5897,6.5897,6.5897,6.5897,6.5897,6.5897,6.5897,6.5897,6.5897,6.5897,6.5897,6.5897,6.5897,6.5897,6.5897,6.5897,6.5897,6.5897,6.5897,6.6282,6.7128,6.8385,6.884,6.9475,7.0302,7.0706,7.0898,0.0,0.0,0.0,0.0,0.0,3.9489,0.0,0.0,0.0,0.0,0.0,0.0,0.0,0.0,0.0,0.0,0.0,0.0,0.0,0.0,0.0,0.0,0.0,0.0,0.0,4.7438,4.6936,4.7216,4.7039,4.7668,4.9392,4.9586,4.9971,5.0673,5.0712,5.0712,5.0712,5.0712,5.0712,5.0712,5.0712,5.1568,5.3203,5.3203,5.4107,5.5703,5.5703,5.5703,5.5703,5.5703,5.6722,5.83,5.83,5.9319,6.08,6.08,6.08,6.08,6.08,6.08,6.08,6.08,6.08,6.08,6.08,6.08,6.1146,6.2839,6.3288,6.3705,6.5455,6.5897,6.5897,6.5897,6.5897,6.5897,6.5897,6.5897,6.5897,6.5897,6.5897,6.5897,6.5897,6.5897,6.5897,6.5897,6.5897,6.5897,6.5897,6.5897,6.5897,6.5897,6.5897,6.5897,6.5897,6.5897,6.5897,6.5897,6.5897,6.5897,6.5897,6.5897,6.5974,6.6128,6.6763,6.7609,6.8648,6.936,7.011,7.0898,7.0898,7.0898,0.0,0.0,0.0,0.0,4.0287,0.0,0.0,0.0,0.0,0.0,0.0,0.0,0.0,0.0,0.0,0.0,0.0,0.0,0.0,0.0,0.0,0.0,0.0,0.0,0.0,4.6815,4.6463,4.7955,4.7349,4.7631,4.9327,5.0135,5.0596,5.0712,5.0712,5.0712,5.0712,5.0712,5.0712,5.0712,5.0712,5.1568,5.3203,5.3203,5.4107,5.5703,5.5703,5.5703,5.5703,5.5703,5.6722,5.83,5.83,5.9319,6.08,6.08,6.08,6.08,6.08,6.08,6.08,6.08,6.08,6.08,6.08,6.08,6.1146,6.2839,6.3288,6.3705,6.5455,6.5897,6.5897,6.5897,6.5897,6.5897,6.5897,6.5897,6.5897,6.5897,6.5897,6.5897,6.5897,6.5897,6.5897,6.5897,6.5897,6.5897,6.5897,6.5897,6.5897,6.5897,6.5897,6.5897,6.5897,6.5897,6.5897,6.5897,6.5897,6.5897,6.5897,6.5897,6.6244,6.6936,6.7051,6.7917,6.9552,6.9648,7.011,7.0898,7.0898,7.0898,0.0,0.0,0.0,0.0,0.0,0.0,3.9545,0.0,3.9328,0.0,0.0,0.0,0.0,0.0,0.0,0.0,0.0,0.0,0.0,0.0,0.0,0.0,0.0,0.0,0.0,0.0,0.0,0.0,4.6632,4.6873,4.8567,4.9471,5.0183,5.0693,5.0712,5.0712,5.0712,5.0712,5.0712,5.0712,5.0712,5.1568,5.3203,5.3203,5.4107,5.5703,5.5703,5.5703,5.5703,5.5703,5.6722,5.83,5.83,5.9319,6.08,6.08,6.08,6.08,6.08,6.08,6.08,6.08,6.08,6.08,6.08,6.08,6.105,6.2262,6.2935,6.3589,6.482,6.5513,6.5897,6.5897,6.5897,6.5897,6.5897,6.5897,6.5897,6.5897,6.5897,6.5897,6.5897,6.5897,6.5897,6.5897,6.5897,6.5897,6.5897,6.5897,6.5897,6.5897,6.5897,6.5897,6.5897,6.5897,6.5897,6.5897,6.5897,6.5897,6.5897,6.634,6.6763,6.709,6.809,6.8975,6.9706,7.0167,7.0571,7.0898,7.0898,7.0898,3.8364,0.0,0.0,0.0,0.0,0.0,0.0,0.0,0.0,0.0,0.0,0.0,0.0,0.0,0.0,0.0,0.0,0.0,0.0,0.0,0.0,0.0,0.0,0.0,0.0,0.0,0.0,0.0,0.0,4.6182,4.8336,4.9067,4.9798,5.0673,5.0712,5.0712,5.0712,5.0712,5.0712,5.0712,5.0712,5.1568,5.3203,5.3203,5.4107,5.5703,5.5703,5.5703,5.5703,5.5703,5.6722,5.83,5.83,5.9319,6.08,6.08,6.08,6.08,6.08,6.08,6.08,6.08,6.08,6.08,6.08,6.08,6.0973,6.1851,6.2685,6.3512,6.4378,6.5243,6.5897,6.5897,6.5897,6.5897,6.5897,6.5897,6.5897,6.5897,6.5897,6.5897,6.5897,6.5897,6.5897,6.5897,6.5897,6.5897,6.5897,6.5897,6.5897,6.5897,6.5897,6.5897,6.5897,6.5897,6.5897,6.5897,6.5897,6.5994,6.6224,6.6782,6.7321,6.7802,6.9052,6.9821,7.0033,7.0629,7.0898,7.0898,7.0898,7.0898,0.0,0.0,0.0,3.9001,0.0,0.0,0.0,0.0,4.0181,0.0,0.0,0.0,0.0,0.0,0.0,0.0,0.0,0.0,0.0,0.0,0.0,0.0,0.0,0.0,0.0,0.0,0.0,0.0,0.0,0.0,4.9183,4.9375,4.9798,5.0673,5.0712,5.0712,5.0712,5.0712,5.0712,5.0712,5.0712,5.1568,5.3203,5.3203,5.4107,5.5703,5.5703,5.5703,5.5703,5.5703,5.6722,5.83,5.83,5.9319,6.08,6.08,6.08,6.08,6.08,6.08,6.08,6.08,6.08,6.08,6.08,6.08,6.0973,6.1851,6.2685,6.3512,6.4378,6.5243,6.5897,6.5897,6.5897,6.5897,6.5897,6.5897,6.5897,6.5897,6.5897,6.5897,6.5897,6.5897,6.5897,6.5897,6.5897,6.5897,6.5897,6.5897,6.5897,6.5897,6.5897,6.5897,6.5897,6.5897,6.5897,6.5897,6.5897,6.6244,6.7032,6.709,6.7878,6.959,6.9667,7.0071,7.086,7.0898,7.0898,7.0898,7.0898,7.0898,0.0,0.0,4.1423,3.9884,0.0,0.0,0.0,0.0,0.0,0.0,0.0,0.0,0.0,0.0,0.0,0.0,0.0,0.0,0.0,0.0,0.0,0.0,0.0,0.0,0.0,0.0,0.0,0.0,4.5652,0.0,0.0,4.8798,4.9529,4.9817,5.0404,5.0712,5.0712,5.0712,5.0712,5.0712,5.0712,5.1568,5.3203,5.3203,5.4107,5.5703,5.5703,5.5703,5.5703,5.5703,5.6722,5.83,5.83,5.9319,6.08,6.08,6.08,6.08,6.08,6.08,6.08,6.08,6.08,6.08,6.08,6.08,6.0973,6.1851,6.2685,6.3512,6.4378,6.5243,6.5897,6.5897,6.5897,6.5897,6.5897,6.5897,6.5897,6.5897,6.5897,6.5897,6.5897,6.5897,6.5897,6.5897,6.5897,6.5897,6.5897,6.5897,6.5897,6.5897,6.5897,6.5897,6.5897,6.5897,6.5897,6.5897,6.5897,6.6263,6.7071,6.7648,6.8513,6.9687,7.0225,7.0629,7.0898,7.0898,7.0898,7.0898,7.0898,7.0898,4.1196,4.1522,0.0,4.0547,4.0505,0.0,3.9331,0.0,0.0,0.0,0.0,0.0,0.0,0.0,0.0,0.0,0.0,0.0,0.0,0.0,0.0,0.0,0.0,0.0,0.0,0.0,4.4286,4.5518,4.4767,0.0,0.0,0.0,4.9086,4.9394,5.025,5.0712,5.0712,5.0712,5.0712,5.0712,5.0712,5.1568,5.3203,5.3203,5.4107,5.5703,5.5703,5.5703,5.5722,5.603,5.7011,5.8338,5.8627,5.9588,6.08,6.08,6.08,6.08,6.08,6.08,6.08,6.08,6.08,6.08,6.08,6.08,6.0973,6.1851,6.2685,6.3512,6.4378,6.5243,6.5897,6.5897,6.5897,6.5897,6.5897,6.5897,6.5897,6.5897,6.5897,6.5897,6.5897,6.5897,6.5897,6.5897,6.5897,6.5897,6.5897,6.5897,6.5897,6.5897,6.5897,6.5897,6.5897,6.5897,6.5897,6.5897,6.5897,6.6397,6.7513,6.8109,6.8936,7.011,7.0648,7.0898,7.0898,7.0898,7.0898,7.0898,7.0898,7.0898]}]]